[[{"header":{"parameterUnit":"m.s-1","parameterCategory":1,"la1":30.6,"la2":28.766,"lo1":-90.7593,"lo2":-88.6598,"dy":0.0162,"dx":0.0183,"nx":116,"ny":114,"refTime":"2023-04-19T06:00:00:Z","depth":0,"parameterNumber":2,"parameterNumberName":"U-component_of_WINDS"},"data":[0.0,0.0,0.0,0.0,0.0,0.0,0.0,0.0,0.0,0.0,0.0,0.0,0.0,0.0,0.0,0.0,0.0,0.0,0.0,0.0,0.0,0.0,0.0,0.0,0.0,0.0,0.0,0.0,0.0,0.0,0.0,0.0,0.0,0.0,0.0,0.0,0.0,0.0,0.0,0.0,0.0,0.0,0.0,0.0,0.0,0.0,0.0,0.0,0.0,0.0,0.0,0.0,0.0,0.0,0.0,0.0,0.0,0.0,0.0,0.0,0.0,0.0,0.0,0.0,0.0,0.0,0.0,0.0,0.0,0.0,0.0,0.0,0.0,0.0,0.0,0.0,0.0,0.0,0.0,0.0,0.0,0.0,0.0,0.0,0.0,0.0,0.0,0.0,0.0,0.0,0.0,0.0,0.0,0.0,0.0,0.0,0.0,0.0,0.0,0.0,0.0,0.0,0.0,0.0,0.0,0.0,0.0,0.0,0.0,0.0,0.0,0.0,0.0,0.0,0.0,0.0,0.0,0.0,0.0,0.0,0.0,0.0,0.0,0.0,0.0,0.0,0.0,0.0,0.0,0.0,0.0,0.0,0.0,0.0,0.0,0.0,0.0,0.0,0.0,0.0,0.0,0.0,0.0,0.0,0.0,0.0,0.0,0.0,0.0,0.0,0.0,0.0,0.0,0.0,0.0,0.0,0.0,0.0,0.0,0.0,0.0,0.0,0.0,0.0,0.0,0.0,0.0,0.0,0.0,0.0,0.0,0.0,0.0,0.0,0.0,0.0,0.0,0.0,0.0,0.0,0.0,0.0,0.0,0.0,0.0,0.0,0.0,0.0,0.0,0.0,0.0,0.0,0.0,0.0,0.0,0.0,0.0,0.0,0.0,0.0,0.0,0.0,0.0,0.0,0.0,0.0,0.0,0.0,0.0,0.0,0.0,0.0,0.0,0.0,0.0,0.0,0.0,0.0,0.0,0.0,0.0,0.0,0.0,0.0,0.0,0.0,0.0,0.0,0.0,0.0,0.0,0.0,0.0,0.0,0.0,0.0,0.0,0.0,0.0,0.0,0.0,0.0,0.0,0.0,0.0,0.0,0.0,0.0,0.0,0.0,0.0,0.0,0.0,0.0,0.0,0.0,0.0,0.0,0.0,0.0,0.0,0.0,0.0,0.0,0.0,0.0,0.0,0.0,0.0,0.0,0.0,0.0,0.0,0.0,0.0,0.0,0.0,0.0,0.0,0.0,0.0,0.0,0.0,0.0,0.0,0.0,0.0,0.0,0.0,0.0,0.0,0.0,0.0,0.0,0.0,0.0,0.0,0.0,0.0,0.0,0.0,0.0,0.0,0.0,0.0,0.0,0.0,0.0,0.0,0.0,0.0,0.0,0.0,0.0,0.0,0.0,0.0,0.0,0.0,0.0,0.0,0.0,0.0,0.0,0.0,0.0,0.0,0.0,0.0,0.0,0.0,0.0,0.0,0.0,0.0,0.0,0.0,0.0,0.0,0.0,0.0,0.0,0.0,0.0,0.0,0.0,0.0,0.0,0.0,0.0,0.0,0.0,0.0,0.0,0.0,0.0,0.0,0.0,0.0,0.0,0.0,0.0,0.0,0.0,0.0,0.0,0.0,0.0,0.0,0.0,0.0,0.0,0.0,0.0,0.0,0.0,0.0,0.0,0.0,0.0,0.0,0.0,0.0,0.0,0.0,0.0,0.0,0.0,0.0,0.0,0.0,0.0,0.0,0.0,0.0,0.0,0.0,0.0,0.0,0.0,0.0,0.0,0.0,0.0,0.0,0.0,0.0,0.0,0.0,0.0,0.0,0.0,0.0,0.0,0.0,0.0,0.0,0.0,0.0,0.0,0.0,0.0,0.0,0.0,0.0,0.0,0.0,0.0,0.0,0.0,0.0,0.0,0.0,0.0,0.0,0.0,0.0,0.0,0.0,0.0,0.0,0.0,0.0,0.0,0.0,0.0,0.0,0.0,0.0,0.0,0.0,0.0,0.0,0.0,0.0,0.0,0.0,0.0,0.0,0.0,0.0,0.0,0.0,0.0,0.0,0.0,0.0,0.0,0.0,0.0,0.0,0.0,0.0,0.0,0.0,0.0,0.0,0.0,0.0,0.0,0.0,0.0,0.0,0.0,0.0,0.0,0.0,0.0,0.0,0.0,0.0,0.0,0.0,0.0,0.0,0.0,0.0,0.0,0.0,0.0,0.0,0.0,0.0,0.0,0.0,0.0,0.0,0.0,0.0,0.0,0.0,0.0,0.0,0.0,0.0,0.0,0.0,0.0,0.0,0.0,0.0,0.0,0.0,0.0,0.0,0.0,0.0,0.0,0.0,0.0,0.0,0.0,0.0,0.0,0.0,0.0,0.0,0.0,0.0,0.0,0.0,0.0,0.0,0.0,0.0,0.0,0.0,0.0,0.0,0.0,0.0,0.0,0.0,0.0,0.0,0.0,0.0,0.0,0.0,0.0,0.0,0.0,0.0,0.0,0.0,0.0,0.0,0.0,0.0,0.0,0.0,0.0,0.0,0.0,0.0,0.0,0.0,0.0,0.0,0.0,0.0,0.0,0.0,0.0,0.0,0.0,0.0,0.0,0.0,0.0,0.0,0.0,0.0,0.0,0.0,0.0,0.0,0.0,0.0,0.0,0.0,0.0,0.0,0.0,0.0,0.0,0.0,0.0,0.0,0.0,0.0,0.0,0.0,0.0,0.0,0.0,0.0,0.0,0.0,0.0,0.0,0.0,0.0,0.0,0.0,0.0,0.0,0.0,0.0,0.0,0.0,0.0,0.0,0.0,0.0,0.0,0.0,0.0,0.0,0.0,0.0,0.0,0.0,0.0,0.0,0.0,0.0,0.0,0.0,0.0,0.0,0.0,0.0,0.0,0.0,0.0,0.0,0.0,0.0,0.0,0.0,0.0,0.0,0.0,0.0,0.0,0.0,0.0,0.0,0.0,0.0,0.0,0.0,0.0,0.0,0.0,0.0,0.0,0.0,0.0,0.0,0.0,0.0,0.0,0.0,0.0,0.0,0.0,0.0,0.0,0.0,0.0,0.0,0.0,0.0,0.0,0.0,0.0,0.0,0.0,0.0,0.0,0.0,0.0,0.0,0.0,0.0,0.0,0.0,0.0,0.0,0.0,0.0,0.0,0.0,0.0,0.0,0.0,0.0,0.0,0.0,0.0,0.0,0.0,0.0,0.0,0.0,0.0,0.0,0.0,0.0,0.0,0.0,0.0,0.0,0.0,0.0,0.0,0.0,0.0,0.0,0.0,0.0,0.0,0.0,0.0,0.0,0.0,0.0,0.0,0.0,0.0,0.0,0.0,0.0,0.0,0.0,0.0,0.0,0.0,0.0,0.0,0.0,0.0,0.0,0.0,0.0,0.0,0.0,0.0,0.0,0.0,0.0,0.0,0.0,0.0,0.0,0.0,0.0,0.0,0.0,0.0,0.0,0.0,0.0,0.0,0.0,0.0,0.0,0.0,0.0,0.0,0.0,0.0,0.0,0.0,0.0,0.0,0.0,0.0,0.0,0.0,0.0,0.0,0.0,0.0,0.0,0.0,0.0,0.0,0.0,0.0,0.0,0.0,0.0,0.0,0.0,0.0,0.0,0.0,0.0,0.0,0.0,0.0,0.0,0.0,0.0,0.0,0.0,0.0,0.0,0.0,0.0,0.0,0.0,0.0,0.0,0.0,0.0,0.0,0.0,0.0,0.0,0.0,0.0,0.0,0.0,0.0,0.0,0.0,0.0,0.0,0.0,0.0,0.0,0.0,0.0,0.0,0.0,0.0,0.0,0.0,0.0,0.0,0.0,0.0,0.0,0.0,0.0,0.0,0.0,0.0,0.0,0.0,0.0,0.0,0.0,0.0,0.0,0.0,0.0,0.0,0.0,0.0,0.0,0.0,0.0,0.0,0.0,0.0,0.0,0.0,0.0,0.0,0.0,0.0,0.0,0.0,0.0,0.0,0.0,0.0,0.0,0.0,0.0,0.0,0.0,0.0,0.0,0.0,0.0,0.0,0.0,0.0,0.0,0.0,0.0,0.0,0.0,0.0,0.0,0.0,0.0,0.0,0.0,0.0,0.0,0.0,0.0,0.0,0.0,0.0,0.0,0.0,0.0,0.0,0.0,0.0,0.0,0.0,0.0,0.0,0.0,0.0,0.0,0.0,0.0,0.0,0.0,0.0,0.0,0.0,0.0,0.0,0.0,0.0,0.0,0.0,0.0,0.0,0.0,0.0,0.0,0.0,0.0,0.0,0.0,0.0,0.0,0.0,0.0,0.0,0.0,0.0,0.0,0.0,0.0,0.0,0.0,0.0,0.0,0.0,0.0,0.0,0.0,0.0,0.0,0.0,0.0,0.0,0.0,0.0,0.0,0.0,0.0,0.0,0.0,0.0,0.0,0.0,0.0,0.0,0.0,0.0,0.0,0.0,0.0,0.0,0.0,0.0,0.0,0.0,0.0,0.0,0.0,0.0,0.0,0.0,0.0,0.0,0.0,0.0,0.0,0.0,0.0,0.0,0.0,0.0,0.0,0.0,0.0,0.0,0.0,0.0,0.0,0.0,0.0,0.0,0.0,0.0,0.0,0.0,0.0,0.0,0.0,0.0,0.0,0.0,0.0,0.0,0.0,0.0,0.0,0.0,0.0,0.0,0.0,0.0,0.0,0.0,0.0,0.0,0.0,0.0,0.0,0.0,0.0,0.0,0.0,0.0,0.0,0.0,0.0,0.0,0.0,0.0,0.0,0.0,0.0,0.0,0.0,0.0,0.0,0.0,0.0,0.0,0.0,0.0,0.0,0.0,0.0,0.0,0.0,0.0,0.0,0.0,0.0,0.0,0.0,0.0,0.0,0.0,0.0,0.0,0.0,0.0,0.0,0.0,0.0,0.0,0.0,0.0,0.0,0.0,0.0,0.0,0.0,0.0,0.0,0.0,0.0,0.0,0.0,0.0,0.0,0.0,0.0,0.0,0.0,0.0,0.0,0.0,0.0,0.0,0.0,0.0,0.0,0.0,0.0,0.0,0.0,0.0,0.0,0.0,0.0,0.0,0.0,0.0,0.0,0.0,0.0,0.0,0.0,0.0,0.0,0.0,0.0,0.0,0.0,0.0,0.0,0.0,0.0,0.0,0.0,0.0,0.0,0.0,0.0,0.0,0.0,0.0,0.0,0.0,0.0,0.0,0.0,0.0,0.0,0.0,0.0,0.0,0.0,0.0,0.0,0.0,0.0,0.0,0.0,0.0,0.0,0.0,0.0,0.0,0.0,0.0,0.0,0.0,0.0,0.0,0.0,0.0,0.0,0.0,0.0,0.0,0.0,0.0,0.0,0.0,0.0,0.0,0.0,0.0,0.0,0.0,0.0,0.0,0.0,0.0,0.0,0.0,0.0,0.0,0.0,0.0,0.0,0.0,0.0,0.0,0.0,0.0,0.0,0.0,0.0,0.0,0.0,0.0,0.0,0.0,0.0,0.0,0.0,0.0,0.0,0.0,0.0,0.0,0.0,0.0,0.0,0.0,0.0,0.0,0.0,0.0,0.0,0.0,0.0,0.0,0.0,0.0,0.0,0.0,0.0,0.0,0.0,0.0,0.0,0.0,0.0,0.0,0.0,0.0,0.0,0.0,0.0,0.0,0.0,0.0,0.0,0.0,0.0,0.0,0.0,0.0,0.0,0.0,0.0,0.0,0.0,0.0,0.0,0.0,0.0,0.0,0.0,0.0,0.0,0.0,0.0,0.0,0.0,0.0,0.0,0.0,0.0,0.0,0.0,0.0,0.0,0.0,0.0,0.0,0.0,0.0,0.0,0.0,0.0,0.0,0.0,0.0,0.0,0.0,0.0,0.0,0.0,0.0,0.0,0.0,0.0,0.0,0.0,0.0,0.0,0.0,0.0,0.0,0.0,0.0,0.0,0.0,0.0,0.0,0.0,0.0,0.0,0.0,0.0,0.0,0.0,0.0,0.0,0.0,0.0,0.0,0.0,0.0,0.0,0.0,0.0,0.0,0.0,0.0,0.0,0.0,0.0,0.0,0.0,0.0,0.0,0.0,0.0,0.0,0.0,0.0,0.0,0.0,0.0,0.0,-2.0352,0.0,0.0,0.0,0.0,0.0,0.0,0.0,0.0,0.0,0.0,0.0,0.0,0.0,0.0,0.0,0.0,0.0,0.0,0.0,0.0,0.0,0.0,0.0,0.0,0.0,0.0,0.0,0.0,0.0,0.0,0.0,0.0,0.0,0.0,0.0,0.0,0.0,0.0,0.0,-2.2248,-2.2248,-2.1816,-2.2727,-2.2368,-2.0898,0.0,0.0,0.0,0.0,0.0,0.0,0.0,0.0,0.0,0.0,0.0,0.0,0.0,0.0,0.0,0.0,0.0,0.0,0.0,0.0,0.0,0.0,0.0,0.0,0.0,0.0,0.0,0.0,0.0,0.0,0.0,0.0,0.0,0.0,0.0,0.0,0.0,0.0,0.0,0.0,0.0,0.0,0.0,0.0,0.0,0.0,0.0,0.0,0.0,0.0,0.0,0.0,0.0,0.0,0.0,0.0,0.0,0.0,0.0,0.0,0.0,0.0,0.0,0.0,0.0,0.0,0.0,0.0,0.0,0.0,0.0,-2.0644,0.0,0.0,0.0,0.0,0.0,0.0,0.0,0.0,0.0,0.0,0.0,0.0,0.0,0.0,0.0,0.0,0.0,0.0,0.0,0.0,0.0,0.0,0.0,0.0,-2.1929,-2.3302,-2.3326,0.0,0.0,0.0,0.0,0.0,0.0,0.0,0.0,-2.4115,-2.4179,-2.2896,-2.3982,-2.4036,-2.3144,-2.4122,-2.337,-2.1273,-2.1194,0.0,0.0,0.0,0.0,0.0,0.0,0.0,0.0,0.0,0.0,0.0,0.0,0.0,0.0,0.0,0.0,0.0,0.0,0.0,0.0,0.0,0.0,0.0,0.0,0.0,0.0,0.0,0.0,0.0,0.0,0.0,0.0,0.0,0.0,0.0,0.0,0.0,0.0,0.0,0.0,0.0,0.0,0.0,0.0,0.0,0.0,0.0,0.0,0.0,0.0,0.0,0.0,0.0,0.0,0.0,0.0,0.0,0.0,0.0,0.0,0.0,0.0,0.0,0.0,0.0,-2.2978,-2.2213,-2.1791,-2.1696,-2.1657,-2.0742,-1.9332,0.0,0.0,0.0,0.0,0.0,0.0,0.0,0.0,0.0,0.0,0.0,0.0,0.0,0.0,0.0,0.0,0.0,0.0,0.0,0.0,0.0,0.0,-2.2939,-2.2696,-2.4201,-2.3963,-2.3681,0.0,0.0,0.0,0.0,0.0,0.0,-2.587,-2.4236,-2.3763,-2.4491,-2.4489,-2.4036,-2.3144,-2.4231,-2.4491,-2.3947,-2.3556,-2.2776,-2.1719,0.0,0.0,0.0,0.0,0.0,0.0,0.0,0.0,0.0,0.0,0.0,0.0,0.0,0.0,0.0,0.0,0.0,0.0,0.0,0.0,0.0,0.0,0.0,0.0,0.0,0.0,0.0,0.0,0.0,0.0,0.0,0.0,0.0,0.0,0.0,0.0,0.0,0.0,0.0,0.0,0.0,-2.0137,-1.9942,0.0,0.0,0.0,0.0,0.0,0.0,0.0,0.0,0.0,0.0,0.0,0.0,0.0,0.0,-2.3813,-2.3097,-2.2736,-2.2736,-2.2068,-2.1783,-2.1742,-2.1455,-2.1291,-2.125,-2.1104,0.0,-1.9311,-1.9411,0.0,0.0,0.0,0.0,0.0,0.0,0.0,0.0,0.0,0.0,0.0,0.0,0.0,0.0,0.0,0.0,0.0,0.0,0.0,0.0,0.0,-2.4672,-2.4578,-2.5914,-2.5913,-2.5656,-2.5119,0.0,0.0,0.0,0.0,-2.6381,-2.6761,-2.7071,-2.7205,-2.7205,-2.6238,-2.5803,-2.5934,-2.6906,-2.6921,-2.6085,-2.6371,-2.5311,-2.3321,-2.2535,0.0,0.0,0.0,0.0,0.0,0.0,0.0,0.0,0.0,0.0,0.0,0.0,0.0,0.0,0.0,0.0,0.0,0.0,0.0,0.0,0.0,0.0,0.0,0.0,0.0,0.0,0.0,0.0,0.0,0.0,0.0,0.0,0.0,0.0,0.0,0.0,0.0,0.0,0.0,-2.0819,-2.0876,-2.0988,-2.153,-2.2009,0.0,0.0,0.0,0.0,0.0,0.0,0.0,0.0,0.0,-2.3369,-2.325,-2.3076,-2.2839,-2.2492,-2.2287,-2.2287,-2.239,-2.2329,-2.2206,-2.2104,-2.1981,-2.1897,-2.1316,-2.0818,-2.0357,-2.0071,-1.9989,-1.9971,0.0,0.0,0.0,0.0,0.0,0.0,0.0,0.0,0.0,0.0,0.0,0.0,0.0,0.0,0.0,0.0,0.0,0.0,-2.6843,-2.6348,-2.6323,-2.7504,-2.7609,-2.7307,-2.6723,-2.7058,0.0,0.0,-2.7622,-2.7996,-2.81,-2.9529,-2.9785,-2.8869,-2.7852,-2.7634,-2.8113,-2.906,-2.8892,-2.7869,-2.8333,-2.7085,-2.4595,-2.3586,-2.2998,-2.2742,0.0,0.0,0.0,0.0,0.0,0.0,0.0,0.0,0.0,0.0,0.0,0.0,0.0,0.0,0.0,0.0,0.0,0.0,0.0,0.0,0.0,0.0,0.0,0.0,0.0,0.0,0.0,0.0,0.0,0.0,0.0,0.0,0.0,0.0,0.0,0.0,0.0,-2.1366,-2.1523,-2.1855,-2.2451,-2.2879,0.0,0.0,0.0,0.0,0.0,0.0,-2.3163,-2.3625,-2.3691,-2.3124,-2.3103,-2.2914,-2.2539,-2.2539,-2.2539,-2.2539,-2.3155,-2.3345,-2.3239,-2.3157,-2.3072,-2.2944,-2.2244,-2.1945,-2.1864,-2.0983,-2.0605,-2.0568,-2.0191,-2.004,0.0,-1.9732,-1.9622,-1.9622,0.0,0.0,0.0,0.0,0.0,0.0,0.0,0.0,0.0,0.0,0.0,-2.621,-2.8426,-2.7522,-2.7279,-2.8593,-2.8131,-2.7877,-2.8161,-2.9383,-2.9951,-2.9624,-2.9629,-3.0157,-3.1173,-3.0306,-2.9296,-2.8157,-2.8912,-2.8869,-2.8113,-2.9253,-2.9611,-2.9268,-2.8757,-2.7229,-2.5083,-2.502,-2.4361,-2.3474,-2.3454,0.0,0.0,0.0,0.0,0.0,0.0,0.0,0.0,0.0,0.0,0.0,0.0,0.0,0.0,0.0,0.0,0.0,0.0,0.0,0.0,0.0,0.0,0.0,0.0,0.0,0.0,0.0,0.0,0.0,0.0,0.0,0.0,0.0,0.0,0.0,0.0,0.0,0.0,-2.1894,-2.1936,0.0,0.0,0.0,0.0,-2.4083,-2.4162,-2.3884,-2.3163,-2.3163,-2.3144,-2.309,-2.311,-2.3457,-2.4277,-2.4297,-2.4297,-2.4297,-2.4343,-2.4323,-2.4343,-2.4343,-2.4323,-2.4297,-2.4067,-2.3929,-2.3794,-2.1725,-2.0857,-2.0857,-2.0587,-2.0484,-2.0484,-2.0466,-2.0448,-2.0448,0.0,0.0,0.0,0.0,0.0,0.0,0.0,0.0,0.0,-2.4871,-2.6124,-2.7261,-2.8051,-2.8371,-2.8609,-2.8973,-2.891,-2.905,-2.9545,-2.9512,-2.9796,-3.058,-3.0544,-3.1053,-3.2212,-3.1417,-3.1004,-3.1048,-3.0874,-3.0961,-3.1307,-3.1718,-3.1649,-3.1196,-3.0985,-2.9941,-2.8207,-2.678,-2.6259,-2.6324,-2.4761,-2.4645,0.0,0.0,0.0,0.0,0.0,0.0,0.0,0.0,0.0,0.0,0.0,0.0,0.0,0.0,0.0,0.0,0.0,0.0,0.0,0.0,0.0,0.0,0.0,0.0,0.0,0.0,0.0,0.0,0.0,0.0,0.0,0.0,0.0,0.0,0.0,0.0,0.0,-2.2656,-2.293,0.0,0.0,-2.3779,-2.4071,-2.4314,-2.4314,-2.4226,-2.3939,-2.3939,-2.3964,-2.3945,-2.3919,-2.4102,-2.4414,-2.4414,-2.4551,-2.4844,-2.4844,-2.4844,-2.4844,-2.4844,-2.4687,-2.4414,-2.4322,-2.4275,-2.4237,-2.3319,-2.2739,-2.2252,-2.1752,-2.1448,-2.1272,-2.0908,-2.0857,-2.0922,0.0,0.0,0.0,0.0,0.0,0.0,0.0,0.0,-2.4573,-2.4872,-2.6483,-2.7649,-2.7891,-2.887,-2.9443,-2.9248,-2.9553,-3.0019,-3.0552,-3.0261,-3.0604,-3.173,-3.1699,-3.2025,-3.281,-3.2351,-3.2351,-3.2853,-3.2523,-3.2709,-3.3345,-3.3545,-3.342,-3.3068,-3.3068,-3.24,-3.1284,-2.9389,-2.8476,-2.8091,-2.6144,-2.5897,-2.651,0.0,0.0,0.0,0.0,0.0,0.0,0.0,0.0,0.0,0.0,0.0,0.0,0.0,0.0,0.0,0.0,0.0,0.0,0.0,0.0,0.0,0.0,0.0,0.0,0.0,0.0,0.0,0.0,0.0,0.0,0.0,0.0,0.0,0.0,0.0,-2.3262,-2.3491,-2.3828,-2.4004,-2.4004,-2.4258,-2.4473,-2.4629,-2.4629,-2.4707,-2.4844,-2.4816,-2.4922,-2.5078,-2.5078,-2.5156,-2.5293,-2.5293,-2.543,-2.5723,-2.5723,-2.5723,-2.5723,-2.5723,-2.5566,-2.5293,-2.5293,-2.5293,-2.5245,-2.5149,-2.4726,-2.4124,-2.3051,-2.2553,-2.2378,-2.2008,-2.1938,-2.2025,0.0,0.0,0.0,0.0,0.0,0.0,0.0,-2.3667,-2.4186,-2.502,-2.6299,-2.7342,-2.7971,-2.9091,-2.9688,-2.9443,-3.0188,-3.0778,-3.1124,-3.1789,-3.2466,-3.3043,-3.3111,-3.3111,-3.3111,-3.3136,-3.3093,-3.3093,-3.3646,-3.3922,-3.3947,-3.4474,-3.468,-3.468,-3.468,-3.4424,-3.3878,-3.2869,-3.0995,-2.8571,-2.7459,-2.6906,-2.6638,0.0,0.0,0.0,0.0,0.0,0.0,0.0,0.0,0.0,0.0,0.0,0.0,0.0,0.0,0.0,0.0,0.0,0.0,0.0,0.0,0.0,0.0,0.0,0.0,0.0,0.0,0.0,0.0,0.0,0.0,0.0,0.0,0.0,-2.4414,-2.4414,-2.4414,-2.4414,-2.4434,-2.4453,-2.4453,-2.4473,-2.4668,-2.5145,-2.5184,-2.5312,-2.5713,-2.5732,-2.5977,-2.6387,-2.6426,-2.6621,-2.7031,-2.7051,-2.707,-2.707,-2.707,-2.707,-2.7051,-2.7051,-2.7031,-2.7012,-2.7012,-2.7012,-2.7012,-2.7012,-2.6777,-2.6239,-2.444,-2.3757,-2.3738,-2.3719,-2.3719,-2.3719,0.0,0.0,0.0,0.0,0.0,0.0,0.0,-2.4188,-2.4616,-2.4209,-2.5861,-2.7098,-2.7139,-2.8505,-2.9656,-3.0223,-3.0819,-3.137,-3.188,-3.2098,-3.2466,-3.3043,-3.3111,-3.3111,-3.3111,-3.347,-3.3671,-3.3671,-3.4223,-3.45,-3.45,-3.465,-3.468,-3.468,-3.468,-3.465,-3.4455,-3.4205,-3.3439,-3.2138,-2.9015,-2.7913,-2.7969,0.0,0.0,0.0,0.0,0.0,0.0,0.0,0.0,0.0,0.0,0.0,0.0,0.0,0.0,0.0,0.0,0.0,0.0,0.0,0.0,0.0,0.0,0.0,0.0,0.0,0.0,0.0,0.0,0.0,0.0,0.0,0.0,-2.5109,-2.4512,-2.4414,-2.4414,-2.4414,-2.4933,-2.5323,-2.5323,-2.5888,-2.6348,-2.6465,-2.6484,-2.6543,-2.666,-2.666,-2.6719,-2.6836,-2.7148,-2.7415,-2.748,-2.7793,-2.8086,-2.8398,-2.8398,-2.8242,-2.7949,-2.7949,-2.7598,-2.7012,-2.7012,-2.7012,-2.7012,-2.7012,-2.6953,-2.6688,-2.545,-2.4823,-2.4656,-2.4179,-2.3998,-2.3998,0.0,0.0,0.0,0.0,0.0,0.0,0.0,-2.4079,-2.436,-2.4143,-2.5799,-2.7067,-2.7273,-2.8831,-3.0137,-3.0869,-3.1436,-3.1863,-3.219,-3.2441,-3.2717,-3.3068,-3.3111,-3.3237,-3.342,-3.3746,-3.4022,-3.4248,-3.4756,-3.5031,-3.5031,-3.5303,-3.5403,-3.5403,-3.5403,-3.5278,-3.5031,-3.4594,-3.4135,-3.3433,-3.0652,-2.946,-2.912,-2.7197,-2.6574,-2.6619,-2.6419,-2.6244,-2.6058,-2.6011,0.0,0.0,0.0,0.0,0.0,0.0,0.0,0.0,0.0,0.0,0.0,0.0,0.0,0.0,0.0,0.0,0.0,0.0,0.0,0.0,0.0,0.0,0.0,0.0,-2.6241,-2.624,-2.5904,-2.5591,-2.5484,-2.5661,-2.6084,-2.6369,-2.6269,-2.6719,-2.7168,-2.7519,-2.7539,-2.7715,-2.8066,-2.8086,-2.8086,-2.8086,-2.834,-2.8511,-2.8511,-2.8711,-2.8945,-2.9199,-2.9199,-2.9062,-2.8828,-2.8828,-2.8555,0.0,-2.8086,-2.8086,-2.8066,-2.7891,-2.7812,0.0,0.0,0.0,0.0,0.0,-2.5315,-2.5295,0.0,0.0,0.0,0.0,0.0,0.0,0.0,-2.3624,-2.3711,-2.4315,-2.5673,-2.6892,-2.7622,-2.9357,-3.0708,-3.1231,-3.1905,-3.2315,-3.2315,-3.2792,-3.3111,-3.3111,-3.3187,-3.3395,-3.3897,-3.4022,-3.4324,-3.4781,-3.5332,-3.5583,-3.5608,-3.6132,-3.6405,-3.6405,-3.6405,-3.6081,-3.5537,-3.467,-3.3906,-3.3284,-3.2252,-3.1204,-3.008,-2.825,-2.7494,-2.7404,-2.7071,-2.7071,-2.7214,-2.6736,0.0,0.0,0.0,0.0,0.0,0.0,0.0,0.0,0.0,0.0,0.0,0.0,0.0,0.0,0.0,0.0,0.0,0.0,0.0,0.0,0.0,0.0,0.0,0.0,-2.7142,-2.7471,-2.7955,-2.7492,-2.7132,-2.7359,-2.7478,-2.7404,-2.7148,-2.7246,-2.7669,-2.8379,-2.8491,-2.8824,-2.9587,0.0,0.0,0.0,0.0,-2.9704,-2.9704,-2.9744,-2.9783,-2.9783,-2.9783,-2.9744,-2.9704,-2.9704,-2.9609,-2.9626,-2.9626,-2.9626,-2.9607,-2.9141,-2.8984,-2.8867,-2.7598,-2.7051,-2.7012,-2.7012,-2.7012,0.0,0.0,0.0,0.0,0.0,0.0,0.0,0.0,-2.3493,-2.3537,-2.3667,-2.4765,-2.5615,-2.5893,-2.8326,-3.0128,-3.0548,-3.2031,-3.2918,-3.2918,-3.3061,-3.3111,-3.3111,-3.3495,-3.3796,-3.3897,-3.4731,-3.5232,-3.5332,-3.5931,-3.6207,-3.6207,-3.6355,-3.6405,-3.6405,-3.6405,-3.6355,-3.6207,-3.5993,-3.5151,-3.379,-3.2765,-3.1733,-3.0721,-2.9528,-2.8838,-2.8305,-2.7499,-2.7262,-2.7262,-2.7167,-2.7167,-2.7214,-2.7214,-2.7044,0.0,0.0,0.0,0.0,0.0,0.0,0.0,0.0,0.0,0.0,0.0,0.0,0.0,0.0,0.0,0.0,0.0,0.0,0.0,-2.7703,-2.7703,-2.8036,-2.877,-2.8758,-2.8353,-2.7509,-2.7826,-2.81,-2.8047,-2.8888,-2.938,-2.9372,-2.9557,-2.9616,-2.9626,-2.9626,0.0,-2.9626,-2.9902,-3.0078,-3.0078,-3.0449,-3.0644,-3.0644,0.0,0.0,-3.0078,-3.0078,-2.9883,-2.9626,-2.9626,-2.9626,-2.957,-2.9473,-2.9453,-2.9316,-2.8047,-2.7324,-2.7012,-2.7012,-2.7012,-2.7012,0.0,0.0,0.0,0.0,0.0,0.0,0.0,-2.3363,-2.3406,-2.3817,-2.4781,-2.5743,-2.6278,-2.8723,-3.051,-3.095,-3.2265,-3.3111,-3.3111,-3.3111,-3.3111,-3.3111,-3.3596,-3.4022,-3.4299,-3.5082,-3.5633,-3.5956,-3.6279,-3.6405,-3.6405,-3.6405,-3.6405,-3.6358,-3.581,-3.5906,-3.631,-3.4654,-3.4462,-3.5011,-3.2909,-3.2545,-3.2908,-2.9837,-2.8864,-2.8958,-2.825,-2.7998,-2.7998,-2.7998,-2.7668,-2.7309,-2.7309,-2.7379,-2.7497,0.0,0.0,0.0,0.0,0.0,0.0,0.0,0.0,0.0,0.0,0.0,0.0,0.0,0.0,-2.834,0.0,0.0,-2.8635,-2.8706,-2.8849,-2.9279,-3.0125,-3.012,-2.9742,-2.9033,-2.905,-2.9218,-2.9382,-2.9648,-2.9892,-3.0108,-3.0128,-3.017,-3.0215,-3.0234,-3.0234,-3.0234,-3.043,-3.0547,-3.0547,-3.0781,-3.0898,-3.0898,-3.0898,-3.0762,-3.0547,-3.0547,-3.043,-3.0234,-3.0234,-3.0234,-3.0215,-2.998,-2.9766,-2.9567,-2.8922,-2.8359,-2.7949,-2.7734,-2.7656,-2.7617,0.0,0.0,0.0,0.0,0.0,0.0,0.0,0.0,-2.3406,-2.3991,-2.5011,-2.6019,-2.6819,-2.896,-3.0676,-3.1533,-3.2176,-3.2698,-3.3068,-3.2939,-3.2896,-3.3068,-3.3596,-3.4148,-3.468,-3.5232,-3.5805,-3.6405,-3.6405,-3.6405,-3.6405,-3.6405,-3.6405,-3.6358,-3.5523,-3.5475,-3.5906,-3.3327,-3.3476,-3.5259,-3.2627,-3.2727,-3.3982,-2.9791,-2.8864,-2.9771,-2.9186,-2.8867,-2.8679,-2.8679,-2.8179,-2.7579,-2.7579,-2.7779,-2.8244,-2.9336,-2.9278,0.0,0.0,0.0,0.0,0.0,0.0,0.0,0.0,0.0,-2.834,-2.8472,-2.8809,-2.9024,-2.8758,-2.9157,-2.9673,-2.9917,-3.0158,-3.0553,-3.1326,-3.1209,-3.1009,-3.0888,-3.0438,-3.0266,-3.06,-3.029,-3.0243,-3.0846,-3.0675,-3.0661,-3.0976,-3.0957,-3.0898,-3.0898,-3.0898,-3.0898,-3.0898,-3.0898,-3.0898,-3.0898,-3.0898,-3.0898,-3.0898,-3.0898,-3.0898,-3.0898,-3.0898,-3.0898,-3.0859,-3.0488,-3.0137,-2.9824,-2.9726,-2.9473,-2.9101,-2.8594,-2.8418,-2.8359,0.0,0.0,0.0,0.0,0.0,0.0,0.0,0.0,0.0,-2.358,-2.4728,-2.549,-2.5447,-2.7473,-2.9596,-3.1444,-3.0935,-3.1247,-3.2982,-3.2264,-3.2176,-3.3068,-3.3596,-3.4148,-3.468,-3.5232,-3.5805,-3.6405,-3.6405,-3.6405,-3.6405,-3.6405,-3.6405,-3.6405,-3.6263,-3.5763,-3.4969,-3.4581,-3.3525,-3.2123,-3.1717,-3.1206,-3.0502,-2.9536,-3.0104,-3.1308,-3.0378,-2.9406,-2.8611,-2.8611,-2.8562,-2.8462,-2.8462,-2.8504,-2.8723,-2.9813,-3.0078,-3.0307,-3.1776,-3.1734,-3.0917,-2.9566,-2.9539,-2.9621,0.0,0.0,-2.9693,-2.9516,-2.9661,-2.9962,-3.0334,-3.0491,-3.0677,-3.1153,-3.1215,-3.1326,-3.1543,-3.1549,-3.1656,-3.2064,-3.1248,-3.0724,-3.0987,-3.1348,-3.1609,-3.1649,-3.1649,-3.1496,-3.1267,-3.1054,-3.0898,-3.0898,-3.0898,-3.0898,-3.0898,-3.0898,-3.0898,-3.0898,-3.0898,-3.0898,-3.0898,-3.0898,-3.0898,-3.0898,-3.0898,-3.0898,-3.0879,-3.084,-3.0781,-3.0703,-3.0293,-3.0098,-2.9961,-2.9141,-2.8848,-2.8789,0.0,0.0,0.0,0.0,0.0,0.0,0.0,0.0,0.0,0.0,-2.4597,-2.5284,-2.5214,-2.714,-2.9057,-3.0643,-3.0441,-3.0531,-3.1359,-3.1024,-3.0979,-3.1403,-3.2443,-3.3146,-3.3367,-3.4757,-3.5608,-3.5881,-3.6207,-3.6405,-3.6405,-3.6405,-3.6073,-3.5427,-3.4824,-3.4288,-3.3796,-3.2549,-3.2196,-3.2448,-3.1197,-3.1146,-3.1768,-3.096,-3.107,-3.1605,-3.1218,-3.0752,0.0,-3.0387,-2.9998,-2.9409,-2.8807,-2.9224,-3.0162,-3.1225,-3.172,-3.2112,-3.2712,-3.2269,-3.144,-3.0785,-3.079,-3.0691,-2.9746,-2.9766,-3.0077,-3.0219,-3.0334,-3.0532,-3.1008,-3.1091,-3.1236,0.0,-3.1754,-3.1864,-3.2205,-3.2267,-3.2329,-3.2534,-3.197,-3.1755,-3.2039,-3.1917,-3.1903,-3.2076,-3.173,-3.1441,-3.1325,-3.1054,-3.0898,-3.0898,-3.0898,-3.0898,-3.0898,-3.0898,-3.0898,-3.0898,-3.0898,-3.0898,-3.0898,-3.0898,-3.0898,-3.0898,-3.0898,-3.0898,-3.0898,-3.0898,-3.0898,-3.0879,-3.0684,-3.0605,-3.0488,-2.9629,-2.9297,-2.9238,0.0,0.0,0.0,0.0,0.0,0.0,0.0,0.0,0.0,0.0,0.0,-2.5177,-2.5418,-2.6921,-2.8376,-2.9464,-2.9395,-2.9486,-2.992,-2.9806,-2.9806,-3.0056,-3.1174,-3.1865,-3.2007,-3.3762,-3.4789,-3.5112,-3.579,-3.6254,-3.6405,-3.6405,-3.581,-3.4775,-3.3993,-3.33,-3.265,-3.1094,-3.1146,-3.2196,-3.0651,-3.094,-3.2246,-3.1432,-3.1176,-3.1192,-3.152,-3.1663,-3.1663,-3.1663,-3.142,-3.0882,-3.0113,-3.0628,-3.1739,-3.2845,-3.3394,-3.3648,-3.3648,-3.2627,-3.1586,-3.1586,-3.1381,-3.0961,-3.0349,-3.018,-3.0325,-3.0781,-3.0884,-3.1008,-3.1485,-3.1567,-3.1712,-3.2091,-3.2173,-3.2297,-3.2628,-3.2669,-3.2669,-3.2669,-3.2555,-3.2498,-3.2669,-3.2248,-3.2018,-3.2305,-3.1787,-3.1383,-3.1325,-3.1054,-3.0898,-3.0898,-3.0898,-3.0898,-3.0898,-3.0898,-3.0898,-3.0898,-3.0898,-3.0898,-3.0898,-3.0898,-3.0898,-3.0898,-3.0898,-3.0898,-3.0898,-3.0898,-3.0898,-3.0898,-3.0898,-3.0898,-3.082,-3.0176,-2.9844,-2.9687,0.0,0.0,0.0,0.0,0.0,0.0,0.0,0.0,0.0,0.0,0.0,0.0,0.0,-2.6572,-2.7194,-2.7934,-2.7384,-2.7715,-2.9326,-2.8773,-2.8773,-2.9761,-3.0125,-3.0514,-3.1044,-3.1986,-3.3015,-3.4124,-3.5065,-3.5855,-3.6405,-3.6405,-3.581,-3.4775,-3.4775,-3.3575,-3.1637,-3.1586,-3.0991,-3.0099,-3.0047,-3.0047,-3.0099,-3.0047,-3.0047,-3.0183,-3.1257,-3.1571,-3.1571,-3.1571,-3.2303,-3.3105,-3.3055,-3.3105,-3.3327,-3.441,-3.4727,-3.4727,-3.4727,-3.3227,-3.1586,-3.1586,-3.0836,-3.0171,-3.0553,-3.0677,-3.0801,-3.1257,-3.136,-3.1485,-3.1884,-3.1967,-3.2112,-3.2587,-3.2649,-3.2649,-3.2669,-3.2669,-3.2669,-3.2669,-3.2669,-3.2669,0.0,-3.244,-3.2305,-3.2305,-3.196,-3.1614,-3.1325,-3.1054,-3.0898,-3.0898,-3.0898,-3.0898,-3.0898,-3.0898,-3.0898,-3.0898,-3.0898,-3.0898,-3.0898,-3.0898,-3.0898,-3.0898,-3.0898,-3.0898,-3.0898,-3.0898,-3.0898,-3.0898,-3.0898,-3.0898,-3.0879,-3.0859,-3.0566,-3.0117,0.0,0.0,0.0,0.0,0.0,0.0,0.0,0.0,0.0,0.0,0.0,0.0,0.0,0.0,0.0,0.0,-2.6784,-2.6976,-2.7715,-2.7336,-2.7336,-2.7835,-2.8563,-2.9046,-2.9201,-3.0675,-3.1646,-3.2043,-3.3007,-3.36,-3.3814,-3.4848,-3.4775,-3.3747,-3.3747,-3.2928,-3.1534,-3.0836,-3.0339,-2.9994,-2.9994,-2.9994,-2.9994,-2.9994,-2.9994,-3.0047,0.0,-3.0991,-3.1819,-3.3227,-3.3476,-3.3201,-3.3201,-3.3697,-3.4483,-3.5571,-3.5379,-3.4969,-3.5667,-3.4824,-3.3618,-3.3209,-3.284,-3.2353,-3.1407,-3.1153,-3.1278,-3.1733,-3.1816,-3.1961,-3.2359,-3.2442,-3.2483,-3.2649,-3.2669,-3.2669,-3.2669,-3.2669,-3.2669,-3.2669,-3.2669,0.0,0.0,0.0,0.0,-3.2555,-3.2305,-3.196,-3.1672,-3.1325,-3.1112,-3.0898,-3.0898,-3.0898,-3.0898,-3.0898,-3.0898,-3.0898,-3.0898,-3.0898,-3.0898,-3.0898,-3.0898,-3.0898,-3.0898,-3.0898,-3.0898,-3.0898,-3.0898,-3.0898,-3.0898,-3.0898,-3.0898,-3.0898,-3.0801,-3.0586,0.0,0.0,0.0,0.0,0.0,0.0,0.0,0.0,0.0,0.0,0.0,0.0,0.0,0.0,0.0,0.0,0.0,-2.64,-2.6468,-2.64,-2.6496,-2.6757,-2.7431,-2.7835,-2.793,-2.9754,-3.0743,-3.071,-3.2061,-3.2738,-3.2768,-3.378,-3.3648,-3.265,-3.265,-3.2044,-3.0991,-3.0287,-2.9994,-2.9994,-2.9994,-2.9994,-2.9994,-2.9994,-2.9994,0.0,-3.0443,-3.0785,-3.133,-3.3476,-3.3796,-3.335,-3.4091,-3.4532,-3.5017,-3.6073,-3.5114,-3.4115,-3.6154,-3.5064,-3.349,-3.4045,-3.3614,-3.2774,-3.1835,-3.1609,-3.1733,-3.2132,-3.2235,-3.2318,-3.2607,-3.2669,-3.2669,-3.2669,-3.2669,-3.2669,-3.2669,-3.2669,-3.2669,-3.2669,-3.2669,-3.2669,0.0,0.0,0.0,-3.2555,-3.2363,-3.2133,-3.1845,-3.1498,-3.1208,-3.1054,-3.0937,-3.0898,-3.0898,-3.0898,-3.0898,-3.0898,-3.0898,-3.0898,-3.0898,-3.0898,-3.0898,-3.0898,-3.0898,-3.0898,-3.0898,-3.0898,-3.0898,-3.0898,-3.0898,-3.0898,-3.0898,-3.0898,-3.0898,-3.0859,0.0,0.0,0.0,0.0,0.0,0.0,0.0,0.0,0.0,0.0,0.0,0.0,0.0,0.0,0.0,0.0,0.0,0.0,-2.5742,-2.5965,-2.6207,-2.6496,-2.6757,-2.7044,-2.7262,-2.9073,-3.0028,-3.0057,-3.1948,-3.2887,-3.2982,-3.3078,-3.26,-3.1586,-3.1586,-3.1021,-3.0099,-3.0047,-2.9994,-2.9994,-2.9994,-2.9994,-2.9994,-2.9994,-2.9994,-3.0151,-3.1124,-3.0888,-3.0339,-3.2499,-3.3201,-3.3549,-3.5619,-3.5523,-3.4921,-3.6001,-3.4141,-3.251,-3.6137,-3.406,-3.1497,-3.4027,-3.3071,-3.1581,-3.1981,-3.2029,-3.2132,-3.2587,-3.2669,-3.2669,0.0,0.0,-3.2669,-3.2669,-3.2669,-3.2669,-3.2669,-3.2669,-3.2669,0.0,0.0,0.0,0.0,0.0,0.0,-3.2346,0.0,-3.219,-3.1845,-3.1518,-3.1364,-3.1306,-3.1113,-3.0957,-3.0957,-3.0937,-3.0918,-3.0898,-3.0898,-3.0898,-3.0898,-3.0898,-3.0898,-3.0898,-3.0898,-3.0898,-3.0898,-3.0898,-3.0898,-3.0898,-3.0898,-3.0898,-3.0898,-3.0898,-3.0898,-3.0898,0.0,0.0,0.0,0.0,0.0,0.0,0.0,0.0,0.0,0.0,0.0,0.0,0.0,0.0,0.0,0.0,0.0,0.0,-2.6014,-2.6042,-2.6207,-2.6496,-2.6757,-2.6948,-2.6996,-2.7668,-2.8057,-2.8052,-2.9186,-2.9734,-2.9814,-3.1308,-3.1891,-3.1586,-3.1586,-3.1432,-3.1146,-3.0339,-2.9994,-2.9994,-2.9994,-2.9994,-2.9994,-2.9994,-2.9994,-3.0047,-3.0287,-3.0256,-3.0339,-3.2499,-3.3201,-3.33,-3.3845,-3.3845,-3.3796,-3.4872,-3.4301,-3.3696,-3.5445,-3.4746,-3.3576,-3.3798,-3.3443,-3.2937,-3.2606,-3.2504,-3.2582,-3.2706,-3.2669,-3.2669,0.0,0.0,0.0,-3.2669,-3.2669,0.0,-3.2669,-3.2669,0.0,-3.2669,0.0,-3.2669,-3.2669,-3.2669,0.0,0.0,-3.2798,-3.2383,-3.1845,-3.1973,-3.1918,-3.1466,-3.1739,-3.1836,-3.1836,-3.1523,-3.1191,-3.0898,-3.0898,-3.0898,-3.0898,-3.0898,-3.0898,-3.0898,-3.0898,-3.0898,-3.0898,-3.0898,-3.0898,-3.0898,-3.0898,-3.0898,-3.0898,-3.0898,-3.0898,-3.0898,0.0,0.0,0.0,0.0,0.0,0.0,0.0,0.0,0.0,0.0,0.0,0.0,0.0,0.0,0.0,0.0,0.0,0.0,0.0,-2.5917,-2.611,-2.6496,-2.6544,-2.6688,-2.7071,-2.7526,-2.7657,-2.7552,-2.8698,-2.916,-2.8938,-3.0291,-3.0888,-3.0888,-3.0888,-3.0888,-3.0836,-3.0235,-2.9994,0.0,0.0,-2.9994,-2.9994,-2.9994,-2.9994,-2.9994,-2.9994,-2.9994,-3.0203,-3.1403,-3.2398,-3.3101,-3.265,-3.2499,-3.27,-3.3796,-3.3366,-3.2871,-3.4671,-3.4282,-3.3518,-3.389,-3.3578,-3.3106,-3.2778,-3.2669,-3.2669,-3.2669,-3.2669,0.0,-3.2669,-3.2669,0.0,0.0,0.0,0.0,-3.2669,-3.2669,-3.2669,0.0,-3.2669,0.0,-3.2669,-3.2913,-3.312,0.0,-3.3025,-3.281,-3.2819,-3.2592,-3.2376,-3.2216,-3.2213,-3.2229,-3.2229,-3.1934,-3.168,-3.1445,-3.125,-3.1172,-3.1152,-3.0976,-3.0898,-3.0898,0.0,-3.0898,-3.0898,-3.0898,-3.0898,-3.0898,-3.0898,-3.0898,-3.0898,-3.0898,-3.0898,-3.0898,0.0,0.0,0.0,0.0,0.0,0.0,0.0,0.0,0.0,0.0,0.0,0.0,0.0,0.0,0.0,0.0,0.0,0.0,0.0,0.0,-2.5965,-2.6448,-2.6255,-2.6476,-2.7167,-2.7741,-2.7978,-2.7793,-2.911,-2.96,-2.9228,-2.9684,-2.9932,-2.9994,-2.9994,-2.9994,-2.9994,-2.9994,-2.9994,-2.9994,-2.9994,-2.9994,-2.9994,0.0,-2.9994,-2.9994,-2.9994,-2.9994,-2.9994,-2.9994,-3.1249,-3.26,-3.1688,-3.1381,-3.1586,-3.2718,-3.1992,-3.1347,-3.3862,-3.3356,-3.2434,-3.3879,-3.3501,-3.2669,-3.2669,-3.2669,-3.2669,-3.2669,0.0,-3.2669,-3.2669,-3.2669,-3.2669,-3.2669,0.0,-3.2669,-3.2669,-3.2669,-3.2669,-3.2669,-3.2669,-3.269,-3.2809,-3.3161,-3.343,-3.3555,-3.3261,-3.3346,-3.3932,-3.3216,-3.2853,-3.3155,-3.2629,-3.2305,-3.2246,-3.2246,-3.2226,-3.2229,-3.1777,-3.1601,-3.1582,-3.1172,-3.0976,-3.0976,0.0,0.0,-3.0898,-3.0898,-3.0898,-3.0898,-3.0898,-3.0898,-3.0898,-3.0898,-3.0898,-3.0898,0.0,0.0,0.0,0.0,0.0,0.0,0.0,0.0,0.0,0.0,-2.4414,-2.4699,0.0,0.0,0.0,0.0,0.0,0.0,0.0,0.0,0.0,-2.6159,-2.6352,-2.6496,-2.664,-2.6764,-2.6921,-2.7051,-2.7744,-2.8276,-2.8752,-2.9208,-2.9622,-2.9994,-2.9994,-2.9994,-2.9994,-2.9994,-2.9994,-2.9994,-2.9994,-2.9994,-2.9994,-2.9994,0.0,0.0,-2.9994,-2.9994,-2.9994,-2.9994,-3.0256,-3.0495,-3.0339,-3.0287,-3.0579,-3.2014,-3.1912,-3.1667,-3.3323,-3.3215,-3.2623,-3.2934,-3.2841,-3.2669,-3.2669,-3.2669,0.0,0.0,-3.2669,-3.2669,-3.2669,-3.2669,-3.2669,-3.2669,-3.2669,-3.2669,-3.2669,-3.2669,-3.2669,0.0,0.0,0.0,0.0,0.0,0.0,0.0,0.0,0.0,-3.3295,-3.3457,-3.3512,-3.3371,-3.3266,-3.3047,-3.2695,-3.2695,-3.2519,-3.2229,-3.209,-3.2051,-3.2031,-3.1601,-3.1406,-3.1387,0.0,0.0,-3.0898,-3.0898,-3.0898,-3.0898,-3.0898,-3.0898,-3.0898,-3.0898,-3.0898,-3.0898,0.0,0.0,0.0,0.0,0.0,0.0,0.0,-2.3296,-2.3711,-2.4336,-2.4609,-2.5,-2.5615,-2.5693,-2.5693,0.0,0.0,0.0,0.0,0.0,0.0,0.0,0.0,0.0,0.0,-2.6352,0.0,0.0,0.0,0.0,0.0,0.0,0.0,0.0,0.0,-2.9606,-2.9764,-2.9764,-2.9889,-2.9994,-2.9994,-2.9994,0.0,0.0,0.0,0.0,0.0,-2.9994,-2.9994,-2.9994,-2.9994,-2.9994,-2.9994,-2.9994,-3.0182,-3.1148,-3.1419,-3.1574,-3.2488,-3.2748,-3.2669,-3.2669,-3.2669,-3.2669,-3.2669,0.0,0.0,0.0,-3.2669,-3.2669,-3.2669,-3.2669,0.0,-3.2669,-3.2669,-3.2669,-3.2669,-3.2669,0.0,-3.2669,0.0,0.0,0.0,0.0,0.0,0.0,0.0,0.0,-3.4044,-3.3939,-3.3704,-3.3418,-3.3418,-3.332,-3.3125,-3.3125,-3.3027,-3.2812,-3.2598,-3.25,-3.248,-3.2051,-3.1738,-3.1504,0.0,0.0,-3.0898,-3.0898,-3.0898,-3.0898,-3.0898,-3.0898,-3.0898,-3.0898,-3.0898,-3.0898,0.0,0.0,0.0,0.0,0.0,0.0,0.0,-2.3711,-2.4082,-2.4512,-2.4863,-2.5234,-2.5635,-2.5693,-2.5693,0.0,0.0,0.0,0.0,0.0,0.0,0.0,0.0,0.0,0.0,0.0,0.0,0.0,0.0,0.0,0.0,0.0,0.0,0.0,0.0,0.0,0.0,-2.9606,-2.9764,0.0,0.0,0.0,0.0,0.0,0.0,0.0,0.0,-2.9994,-2.9994,-2.9994,-2.9994,-2.9994,-2.9994,-2.9994,-3.0077,-3.0553,-3.1008,-3.1485,-3.1864,-3.2318,-3.2669,-3.2669,-3.2669,-3.2669,-3.2669,-3.2669,0.0,-3.2669,-3.2669,-3.2669,-3.2669,-3.2669,-3.2669,0.0,-3.2669,-3.2669,-3.2669,-3.2669,-3.2669,0.0,0.0,0.0,0.0,0.0,0.0,0.0,0.0,0.0,0.0,-3.4173,-3.367,-3.3418,-3.3418,-3.3418,-3.3418,-3.3418,-3.3418,-3.3418,-3.3086,-3.293,-3.291,-3.25,-3.2109,-3.1777,0.0,0.0,0.0,-3.0937,-3.0898,-3.0898,-3.0898,-3.0898,-3.0898,-3.0898,-3.0898,-3.0898,0.0,0.0,0.0,0.0,0.0,0.0,0.0,-2.4336,-2.4512,-2.4988,-2.5086,-2.5234,-2.5635,-2.5693,-2.5693,0.0,0.0,0.0,0.0,0.0,0.0,0.0,0.0,0.0,0.0,0.0,0.0,0.0,0.0,0.0,0.0,0.0,0.0,0.0,0.0,0.0,0.0,0.0,0.0,0.0,0.0,0.0,0.0,0.0,0.0,0.0,0.0,0.0,-2.9994,-2.9994,0.0,-2.9994,-2.9994,-2.9994,-3.0077,-3.0553,0.0,0.0,-3.1864,-3.2318,-3.2669,-3.2669,-3.2669,-3.2669,-3.2669,0.0,-3.2669,-3.2669,-3.2669,-3.2669,-3.2669,-3.2669,-3.2669,-3.2669,-3.2669,-3.2669,-3.2669,-3.2669,-3.2669,-3.2669,0.0,0.0,0.0,0.0,0.0,0.0,0.0,0.0,0.0,-3.3796,-3.3418,-3.3418,-3.3418,-3.3418,-3.3418,-3.3418,-3.3418,-3.3418,-3.3379,-3.3359,-3.334,-3.293,-3.2715,-3.2637,0.0,0.0,0.0,-3.1055,-3.0898,-3.0898,-3.0898,-3.0898,-3.0898,-3.0898,-3.0898,-3.0898,0.0,0.0,0.0,0.0,0.0,0.0,-2.4414,-2.4648,-2.4863,-2.5086,-2.5293,-2.5527,-2.5674,-2.5693,-2.5693,-2.5693,0.0,0.0,0.0,0.0,0.0,0.0,0.0,0.0,0.0,0.0,0.0,0.0,0.0,0.0,0.0,0.0,0.0,0.0,0.0,0.0,0.0,0.0,0.0,0.0,0.0,0.0,0.0,0.0,0.0,0.0,0.0,0.0,0.0,0.0,0.0,0.0,-2.9994,-2.9994,-3.0077,0.0,-3.1008,-3.1485,-3.1864,-3.2318,-3.2669,-3.2669,-3.2669,-3.2669,-3.2669,0.0,-3.2669,-3.2669,-3.2669,-3.2669,-3.2669,-3.2669,-3.2669,-3.2669,-3.2669,-3.2669,-3.2669,-3.2669,-3.2669,0.0,0.0,0.0,0.0,0.0,0.0,0.0,0.0,0.0,0.0,-3.367,-3.3418,-3.3418,-3.3418,-3.3418,-3.3418,-3.3418,-3.3418,-3.3418,-3.3418,-3.3418,-3.3418,-3.3242,-3.3027,-3.2773,0.0,0.0,0.0,-3.1328,-3.1113,-3.0898,-3.0898,-3.0898,-3.0898,-3.0898,-3.0898,-3.0898,0.0,0.0,0.0,0.0,0.0,-2.4758,-2.4758,-2.5078,-2.5273,-2.5273,-2.5547,-2.5693,-2.5693,-2.5693,-2.5693,-2.5693,-2.5693,0.0,0.0,0.0,0.0,0.0,0.0,0.0,0.0,0.0,0.0,0.0,0.0,0.0,0.0,0.0,0.0,0.0,0.0,0.0,0.0,0.0,0.0,0.0,0.0,0.0,0.0,0.0,0.0,0.0,0.0,0.0,0.0,0.0,0.0,-2.9994,-2.9994,-2.9994,-3.0077,-3.0553,-3.1008,-3.1485,-3.1864,-3.2318,-3.2669,-3.2669,-3.2669,-3.2669,0.0,0.0,-3.2669,-3.2669,-3.2669,-3.2669,-3.2669,-3.2669,-3.2669,-3.2669,-3.2669,-3.2669,-3.2669,-3.2669,0.0,0.0,0.0,0.0,0.0,0.0,0.0,0.0,0.0,0.0,0.0,-3.3607,-3.3418,-3.3418,-3.3418,-3.3418,-3.3418,-3.3418,-3.3418,-3.3418,-3.3418,-3.3418,-3.3418,-3.3418,-3.3262,0.0,0.0,0.0,0.0,-3.1621,-3.1348,-3.1055,-3.0937,-3.0898,-3.0898,-3.0898,-3.0898,-3.0898,0.0,0.0,0.0,0.0,0.0,0.0,-2.5674,-2.5674,-2.5674,-2.5674,-2.5693,-2.5693,-2.5693,-2.5693,-2.5693,-2.5693,-2.5693,0.0,0.0,0.0,0.0,0.0,0.0,0.0,0.0,0.0,-2.5693,-2.5693,-2.5693,-2.5957,0.0,0.0,0.0,0.0,0.0,0.0,0.0,0.0,0.0,0.0,0.0,0.0,0.0,0.0,0.0,0.0,0.0,0.0,0.0,0.0,0.0,0.0,0.0,-2.9994,-3.0077,-3.0553,-3.1008,-3.1485,-3.1864,-3.2318,-3.2669,-3.2669,-3.2669,-3.2669,0.0,0.0,-3.2669,-3.2669,-3.2669,-3.2669,-3.2669,-3.2669,-3.2669,-3.2669,-3.2669,-3.2669,-3.2669,-3.2669,0.0,0.0,0.0,0.0,0.0,0.0,0.0,0.0,0.0,0.0,0.0,0.0,-3.3418,-3.3418,-3.3418,-3.3418,-3.3418,-3.3418,-3.3418,-3.3418,-3.3418,-3.3418,-3.3418,-3.3418,0.0,0.0,0.0,0.0,0.0,-3.1875,-3.1523,-3.1465,-3.1055,-3.0898,-3.0898,-3.0898,-3.0898,-3.0898,0.0,0.0,0.0,0.0,0.0,0.0,0.0,-2.4775,-2.5186,-2.3701,-2.4775,-2.543,-2.4707,-2.5265,-2.5693,-2.5693,-2.5693,0.0,0.0,0.0,0.0,0.0,0.0,0.0,0.0,0.0,-2.5693,-2.5693,-2.5693,-2.5957,-2.6406,-2.6816,0.0,0.0,0.0,0.0,0.0,0.0,0.0,0.0,0.0,0.0,0.0,0.0,0.0,0.0,0.0,0.0,0.0,0.0,0.0,0.0,0.0,0.0,0.0,-3.0926,-3.1257,-3.1485,-3.1864,-3.2318,-3.2669,-3.2669,-3.2669,-3.2669,-3.2669,-3.2669,-3.2669,-3.2669,-3.2669,-3.2669,-3.2669,-3.2669,-3.2669,-3.2669,-3.2669,-3.2669,0.0,0.0,0.0,0.0,0.0,0.0,0.0,0.0,0.0,0.0,0.0,0.0,0.0,0.0,-3.3418,-3.3418,-3.3418,-3.3418,-3.3418,-3.3418,-3.3418,-3.3418,-3.3418,-3.3418,-3.3418,-3.3418,0.0,0.0,0.0,0.0,0.0,-3.25,-3.2051,-3.1504,-3.1367,-3.1133,-3.0898,-3.0898,-3.0898,-3.0898,0.0,0.0,0.0,0.0,0.0,0.0,0.0,-2.4264,-2.4775,-2.38,-2.4873,-2.543,-2.4756,-2.5284,-2.5528,-2.5118,-2.5479,0.0,0.0,0.0,0.0,0.0,0.0,0.0,0.0,-2.5693,-2.5693,-2.5693,-2.5693,-2.583,-2.6152,-2.6738,-2.7168,-2.7441,0.0,0.0,0.0,0.0,0.0,0.0,0.0,0.0,-2.9994,0.0,0.0,0.0,0.0,0.0,0.0,0.0,0.0,0.0,0.0,0.0,0.0,0.0,-3.1381,-3.1505,-3.2126,-3.2463,-3.2669,-3.2669,-3.2669,0.0,0.0,-3.2669,-3.2669,-3.2669,-3.2669,-3.2669,-3.2669,-3.2669,-3.2669,-3.2669,-3.2669,0.0,0.0,0.0,0.0,0.0,0.0,0.0,0.0,0.0,0.0,0.0,0.0,0.0,0.0,0.0,-3.3607,-3.3607,-3.3481,-3.3418,-3.3418,-3.3418,-3.3418,-3.3418,-3.3418,-3.3418,-3.3418,0.0,0.0,0.0,0.0,0.0,0.0,-3.2851,-3.2383,-3.1758,-3.1582,-3.1269,-3.0898,-3.0898,-3.0898,-3.0898,0.0,0.0,0.0,0.0,0.0,0.0,0.0,-2.3998,-2.4393,-2.5235,-2.5547,-2.5693,-2.5577,-2.5577,-2.5167,-2.4196,0.0,0.0,0.0,0.0,0.0,0.0,0.0,0.0,0.0,-2.5693,-2.5693,-2.5693,-2.5693,-2.5713,-2.5752,-2.6621,-2.7031,-2.709,-2.793,0.0,0.0,0.0,0.0,0.0,0.0,0.0,0.0,0.0,0.0,0.0,0.0,0.0,0.0,0.0,0.0,0.0,0.0,0.0,0.0,0.0,0.0,0.0,0.0,-3.2669,-3.2669,-3.2669,-3.2669,-3.2669,-3.2669,-3.2669,0.0,-3.2669,-3.2669,-3.2669,-3.2669,-3.2669,-3.2669,-3.2669,-3.2669,0.0,0.0,0.0,0.0,0.0,0.0,0.0,0.0,0.0,0.0,0.0,0.0,0.0,0.0,0.0,0.0,-3.3922,-3.3544,-3.3418,-3.3418,-3.3418,-3.3418,-3.3418,-3.3418,-3.3418,-3.3418,0.0,0.0,0.0,0.0,0.0,0.0,-3.3008,-3.2598,-3.2229,-3.1738,-3.1309,-3.0937,-3.0898,-3.0898,-3.0898,0.0,0.0,0.0,0.0,0.0,0.0,0.0,0.0,0.0,0.0,-2.4165,-2.5382,-2.4559,-2.451,-2.4344,0.0,0.0,0.0,0.0,0.0,0.0,0.0,0.0,0.0,-2.5693,-2.5693,-2.5693,-2.5693,-2.5693,-2.5849,-2.625,-2.6777,-2.7187,-2.7539,-2.8066,-2.8354,0.0,0.0,0.0,0.0,0.0,0.0,0.0,0.0,0.0,0.0,-2.9994,-2.9994,0.0,0.0,0.0,0.0,0.0,0.0,0.0,0.0,-3.1381,-3.1567,-3.2478,0.0,-3.2669,-3.2669,-3.2669,-3.2669,0.0,-3.2669,-3.2669,-3.2669,-3.2669,-3.2669,-3.2669,-3.2669,-3.2669,-3.2669,0.0,0.0,0.0,0.0,0.0,0.0,0.0,0.0,0.0,0.0,0.0,0.0,0.0,0.0,0.0,0.0,0.0,-3.3922,-3.3544,-3.3418,-3.3418,-3.3418,-3.3418,-3.3418,-3.3418,-3.3418,-3.3418,0.0,0.0,0.0,0.0,0.0,0.0,-3.332,-3.3027,-3.2598,-3.2187,-3.1758,-3.1328,-3.1016,-3.0898,-3.0898,0.0,0.0,0.0,0.0,0.0,0.0,0.0,0.0,0.0,0.0,0.0,0.0,0.0,0.0,0.0,0.0,0.0,0.0,0.0,0.0,0.0,0.0,0.0,-2.5693,-2.5693,-2.5693,-2.5693,-2.5693,-2.5937,-2.6152,-2.6406,-2.7031,-2.7441,-2.7728,-2.8105,-2.8301,0.0,0.0,0.0,0.0,-2.9448,0.0,0.0,0.0,0.0,0.0,-2.9994,-2.9994,0.0,-2.9994,-2.9994,-2.9994,0.0,0.0,0.0,0.0,-3.1381,-3.1567,-3.2478,-3.2669,-3.2669,-3.2669,-3.2669,-3.2669,-3.2669,-3.2669,-3.2669,-3.2669,-3.2669,-3.2669,-3.2669,-3.2669,-3.2669,0.0,-3.2669,0.0,0.0,0.0,0.0,0.0,0.0,0.0,0.0,0.0,0.0,0.0,0.0,0.0,0.0,0.0,0.0,0.0,-3.3796,-3.3544,-3.3418,-3.3418,-3.3418,-3.3418,-3.3418,-3.3418,-3.3418,0.0,0.0,0.0,0.0,0.0,-3.3418,-3.3418,-3.3184,-3.2754,-3.2344,-3.1894,-3.1465,-3.1055,-3.0898,-3.0898,0.0,0.0,0.0,0.0,0.0,0.0,0.0,0.0,0.0,0.0,0.0,0.0,0.0,0.0,0.0,0.0,0.0,0.0,0.0,0.0,0.0,0.0,0.0,-2.5528,-2.5693,-2.5693,-2.5732,-2.5791,-2.6211,-2.6465,-2.6602,-2.7324,-2.7748,-2.7826,-2.8125,-2.8301,0.0,0.0,0.0,0.0,-2.9448,0.0,0.0,0.0,0.0,0.0,0.0,0.0,0.0,-2.9994,-2.9994,-2.9994,-2.9994,0.0,0.0,0.0,0.0,0.0,-3.2478,-3.2669,-3.2669,-3.2669,-3.2669,-3.2669,-3.2669,-3.2669,-3.2669,-3.2669,-3.2669,-3.2669,-3.2669,-3.2669,0.0,0.0,0.0,0.0,0.0,0.0,0.0,0.0,0.0,0.0,0.0,0.0,0.0,0.0,0.0,0.0,0.0,0.0,0.0,0.0,-3.411,-3.3733,-3.3481,-3.3418,-3.3418,-3.3418,-3.3418,-3.3418,-3.3418,-3.3418,0.0,0.0,0.0,0.0,-3.3418,-3.3418,-3.3203,-3.2851,-3.2422,-3.1992,-3.1562,-3.1133,-3.0937,-3.0898,0.0,0.0,0.0,0.0,0.0,0.0,0.0,0.0,0.0,0.0,0.0,0.0,0.0,0.0,0.0,0.0,0.0,0.0,0.0,0.0,0.0,-2.2985,-2.385,-2.4756,-2.5693,-2.5693,-2.5869,-2.6289,-2.6348,-2.6758,-2.7532,-2.765,-2.7851,-2.8203,-2.8262,-2.8301,-2.8301,0.0,0.0,0.0,0.0,0.0,0.0,0.0,0.0,0.0,0.0,0.0,0.0,-2.9994,-2.9994,-2.9994,-2.9994,0.0,0.0,0.0,0.0,0.0,-3.2478,-3.2669,-3.2669,-3.2669,-3.2669,-3.2669,-3.2669,-3.2669,-3.2669,-3.2669,-3.2669,-3.2669,-3.2669,-3.2669,-3.2669,0.0,0.0,0.0,0.0,0.0,0.0,0.0,0.0,0.0,0.0,0.0,0.0,0.0,0.0,0.0,0.0,0.0,0.0,0.0,0.0,-3.3859,-3.3796,-3.3544,-3.3418,-3.3418,-3.3418,-3.3418,-3.3418,-3.3418,-3.3418,0.0,0.0,0.0,-3.3418,-3.3418,-3.3379,-3.3281,-3.2871,-3.2441,-3.2012,-3.1582,-3.1191,-3.0898,0.0,0.0,0.0,0.0,0.0,0.0,0.0,0.0,0.0,0.0,0.0,0.0,0.0,0.0,0.0,0.0,0.0,0.0,0.0,0.0,0.0,-2.2741,-2.33,-2.4076,-2.5182,-2.5778,-2.599,-2.5767,-2.6012,-2.6314,-2.6744,-2.7627,-2.8105,-2.8301,-2.8301,-2.8301,-2.8301,-2.8461,0.0,0.0,0.0,0.0,0.0,0.0,0.0,0.0,0.0,0.0,0.0,0.0,-2.9994,-2.9994,-2.9994,0.0,0.0,0.0,0.0,0.0,-3.2478,-3.2669,-3.2669,-3.2669,-3.2669,-3.2669,-3.2669,-3.2669,-3.2669,-3.2669,-3.2669,-3.2669,-3.2669,0.0,-3.2669,-3.2669,0.0,0.0,0.0,0.0,0.0,0.0,0.0,0.0,0.0,0.0,0.0,0.0,0.0,0.0,0.0,0.0,0.0,0.0,0.0,0.0,-3.3607,-3.3481,-3.3418,-3.3418,-3.3418,-3.3418,-3.3418,-3.3418,-3.3418,0.0,0.0,-3.3418,-3.3418,-3.3418,-3.3418,-3.3379,-3.2969,-3.2539,-3.215,-3.1426,-3.1055,-3.0898,0.0,0.0,0.0,0.0,0.0,0.0,0.0,0.0,0.0,0.0,0.0,0.0,0.0,0.0,0.0,0.0,0.0,0.0,0.0,0.0,-2.119,-2.23,-2.2614,-2.3341,-2.4458,-2.5547,-2.5735,-2.4947,-2.5607,-2.6092,-2.6523,-2.7699,-2.8301,-2.8301,-2.8301,-2.8301,-2.8301,-2.8354,-2.8601,0.0,0.0,0.0,0.0,0.0,0.0,0.0,0.0,0.0,0.0,0.0,0.0,0.0,0.0,0.0,0.0,-3.1133,-3.1443,-3.1712,-3.252,-3.2669,-3.2669,-3.2669,-3.2669,-3.2669,-3.2669,-3.2669,-3.2669,-3.2669,-3.2669,-3.2669,0.0,-3.2669,0.0,0.0,0.0,0.0,0.0,0.0,0.0,0.0,0.0,0.0,0.0,0.0,0.0,0.0,0.0,0.0,0.0,0.0,0.0,0.0,0.0,0.0,-3.3544,-3.3418,-3.3418,-3.3418,-3.3418,-3.3418,-3.3418,-3.3418,-3.3418,-3.3418,-3.3418,-3.3418,-3.3418,-3.3418,-3.3418,-3.3379,-3.3066,-3.2617,-3.207,-3.1211,-3.0898,-3.0898,0.0,0.0,0.0,0.0,0.0,0.0,0.0,0.0,0.0,0.0,0.0,0.0,0.0,0.0,0.0,0.0,0.0,0.0,0.0,0.0,-2.0288,-2.0411,-2.1356,-2.2413,-2.358,-2.4733,-2.4912,-2.4181,-2.5326,-2.6667,-2.8135,-2.8228,-2.8301,-2.8301,-2.8301,-2.8301,-2.8301,-2.8568,-2.8674,-2.8781,0.0,0.0,0.0,0.0,0.0,0.0,0.0,0.0,0.0,0.0,0.0,0.0,0.0,0.0,-3.0739,-3.1236,-3.1671,-3.205,-3.2545,-3.2669,-3.2669,-3.2669,-3.2669,-3.2669,-3.2669,-3.2669,-3.2669,-3.2669,-3.2669,-3.2669,0.0,-3.2669,0.0,0.0,0.0,0.0,0.0,0.0,0.0,0.0,0.0,0.0,0.0,0.0,0.0,0.0,0.0,0.0,0.0,0.0,0.0,0.0,0.0,0.0,-3.3859,-3.3544,-3.3418,-3.3418,-3.3418,-3.3418,-3.3418,-3.3418,-3.3418,-3.3418,-3.3418,-3.3418,-3.3418,-3.3418,-3.3418,-3.3418,-3.3379,-3.2871,-3.207,-3.1211,-3.0898,-3.0898,0.0,0.0,0.0,0.0,0.0,0.0,0.0,0.0,0.0,0.0,0.0,0.0,0.0,0.0,0.0,0.0,0.0,0.0,0.0,-2.0382,-2.027,-2.0475,-2.1603,-2.219,-2.2094,-2.3661,-2.4522,-2.4466,-2.4905,-2.5865,-2.7187,-2.7187,-2.7565,-2.8301,-2.8301,-2.8301,-2.8301,-2.8568,-2.8781,-2.8973,-2.9396,0.0,0.0,0.0,0.0,0.0,0.0,0.0,0.0,0.0,-2.9994,-2.9994,-2.9994,-3.0305,-3.0781,-3.1236,-3.1692,-3.2091,-3.2545,-3.2669,-3.2669,-3.2669,-3.2669,-3.2669,-3.2669,-3.2669,-3.2669,-3.2669,-3.2669,-3.2669,0.0,0.0,0.0,0.0,0.0,0.0,0.0,0.0,0.0,0.0,0.0,0.0,0.0,0.0,0.0,0.0,0.0,0.0,0.0,0.0,0.0,0.0,0.0,0.0,0.0,-3.3481,-3.3418,-3.3418,-3.3418,-3.3418,-3.3418,-3.3418,-3.3418,-3.3418,-3.3418,-3.3418,-3.3418,-3.3418,-3.3418,-3.3398,-3.3144,-3.2676,-3.209,-3.1504,-3.1113,-3.0898,0.0,0.0,0.0,0.0,0.0,0.0,0.0,0.0,0.0,0.0,0.0,0.0,0.0,0.0,0.0,0.0,0.0,0.0,-2.0329,-2.0431,-2.0647,-2.0867,-2.1638,-2.18,-2.1203,-2.2529,-2.3331,-2.3575,-2.3966,-2.4965,-2.6463,-2.6136,-2.6789,-2.8301,-2.7906,-2.796,-2.8281,-2.8514,-2.8727,-2.8973,-2.929,-2.9554,0.0,0.0,0.0,0.0,0.0,0.0,0.0,0.0,-2.9994,-3.0015,-3.016,-3.0532,-3.0988,-3.1443,-3.1899,-3.2277,-3.2587,-3.2669,-3.2669,-3.2669,-3.2669,-3.2669,-3.2669,-3.2669,-3.2669,-3.2669,-3.2669,-3.2669,-3.2669,0.0,0.0,0.0,0.0,0.0,0.0,0.0,0.0,0.0,0.0,0.0,0.0,0.0,0.0,0.0,0.0,0.0,0.0,0.0,0.0,0.0,0.0,0.0,0.0,-3.3418,-3.3418,-3.3418,-3.3418,-3.3418,-3.3418,-3.3418,-3.3418,-3.3418,-3.3418,-3.3418,-3.3418,-3.3418,-3.3418,-3.3379,-3.2969,-3.2539,-3.2109,-3.168,-3.125,-3.0898,0.0,0.0,0.0,0.0,0.0,0.0,0.0,0.0,0.0,0.0,0.0,0.0,0.0,0.0,0.0,0.0,0.0,0.0,-2.072,-2.1028,-2.1203,-2.1203,-2.1203,-2.1203,-2.1203,-2.1203,-2.1218,-2.1203,-2.2425,-2.4189,-2.6463,-2.5223,-2.5954,-2.8228,-2.7025,-2.7187,-2.8301,-2.8301,-2.8461,-2.8727,-2.8973,-2.9079,-2.9185,0.0,0.0,0.0,0.0,0.0,0.0,0.0,-2.9994,-3.0077,-3.0532,-3.1008,-3.1464,-3.1864,-3.2318,-3.2669,-3.2669,-3.2669,-3.2669,-3.2669,-3.2669,-3.2669,-3.2669,-3.2669,-3.2669,-3.2669,-3.2669,-3.2669,-3.2669,-3.2669,0.0,0.0,0.0,0.0,0.0,0.0,0.0,0.0,0.0,0.0,0.0,0.0,0.0,0.0,0.0,0.0,0.0,0.0,0.0,0.0,0.0,0.0,0.0,-3.3418,-3.3418,-3.3418,-3.3418,-3.3418,-3.3418,-3.3418,-3.3418,-3.3418,-3.3418,-3.3418,-3.3418,-3.3418,-3.3418,-3.3379,-3.2969,-3.2539,-3.2109,-3.168,-3.125,-3.0898,0.0,0.0,0.0,0.0,0.0,0.0,0.0,0.0,0.0,0.0,0.0,0.0,0.0,0.0,0.0,0.0,0.0,0.0,-2.1057,-2.1159,-2.1203,-2.1203,-2.1203,-2.1203,-2.1203,-2.1203,-2.1603,-2.2482,-2.2805,-2.3743,-2.5223,-2.4078,-2.4744,-2.7025,-2.6645,-2.7187,-2.8281,-2.8514,-2.8621,-2.8727,-2.8973,-2.9079,-2.9132,0.0,0.0,0.0,0.0,0.0,0.0,0.0,0.0,0.0,-3.0636,-3.1215,-3.1878,-3.1946,-3.2318,-3.2669,-3.2669,-3.2669,-3.2669,-3.2669,-3.2669,-3.2669,-3.2669,-3.2669,-3.2669,-3.2669,-3.2669,-3.2669,-3.2669,0.0,0.0,0.0,0.0,0.0,0.0,0.0,0.0,0.0,0.0,0.0,0.0,0.0,0.0,0.0,0.0,0.0,0.0,0.0,0.0,0.0,0.0,0.0,0.0,0.0,-3.3418,-3.3418,-3.3418,-3.3418,-3.3418,-3.3418,-3.3418,-3.3418,-3.3418,-3.3418,-3.3418,-3.3418,-3.3418,-3.3418,-3.3281,-3.2793,-3.2148,-3.2012,-3.1523,-3.0898,0.0,0.0,0.0,0.0,0.0,0.0,0.0,0.0,0.0,0.0,0.0,0.0,0.0,0.0,0.0,0.0,0.0,0.0,0.0,-2.1203,-2.1203,-2.1203,-2.1203,-2.1203,-2.1203,-2.1203,-2.1546,-2.2256,-2.2256,-2.2862,-2.4022,-2.2805,-2.3536,-2.579,-2.579,-2.6463,-2.7638,-2.8301,-2.8621,-2.8727,-2.8887,-2.8973,-2.9132,0.0,0.0,0.0,0.0,0.0,0.0,0.0,0.0,0.0,-3.1174,-3.1609,-3.2029,-3.2194,-3.2463,-3.2669,-3.2669,-3.2669,-3.2669,-3.2669,-3.2669,-3.2669,-3.2669,-3.2669,-3.2669,0.0,-3.2669,-3.2669,-3.2669,0.0,0.0,0.0,0.0,0.0,0.0,0.0,0.0,0.0,0.0,0.0,0.0,0.0,0.0,0.0,0.0,0.0,0.0,0.0,0.0,0.0,0.0,0.0,0.0,0.0,0.0,-3.3418,-3.3418,-3.3418,-3.3418,-3.3418,-3.3418,-3.3418,-3.3418,-3.3418,-3.3418,-3.3418,-3.3418,-3.3398,-3.3242,-3.2444,-3.1379,-3.1207,-3.073,-3.0098,0.0,0.0,0.0,0.0,0.0,0.0,0.0,0.0,0.0,0.0,-2.1028,0.0,0.0,0.0,0.0,0.0,0.0,0.0,0.0,0.0,-2.1203,-2.1203,-2.1203,-2.1203,-2.1203,-2.1203,-2.1203,-2.1203,-2.1203,-2.1759,-2.2805,-2.1702,-2.2482,-2.4727,-2.4761,-2.5514,-2.6809,-2.7949,-2.8579,-2.8793,-2.8793,-2.8953,-2.9199,-2.9465,0.0,0.0,0.0,0.0,0.0,0.0,0.0,0.0,-3.1864,-3.2008,-3.2132,-3.2545,-3.2669,-3.2669,-3.2669,-3.2669,-3.2669,-3.2669,-3.2669,-3.2669,-3.2669,-3.2669,-3.2669,-3.2669,0.0,-3.2669,0.0,0.0,0.0,0.0,0.0,0.0,0.0,0.0,0.0,0.0,0.0,0.0,0.0,0.0,0.0,0.0,0.0,0.0,0.0,0.0,0.0,0.0,0.0,0.0,0.0,0.0,0.0,0.0,-3.3418,-3.3418,-3.3418,-3.3418,-3.3418,-3.3418,-3.3418,-3.3418,-3.3418,-3.3418,-3.3418,-3.3379,-3.2825,-3.1637,-3.0137,-2.9611,-2.9148,-2.8742,0.0,0.0,0.0,0.0,0.0,0.0,0.0,0.0,0.0,0.0,0.0,0.0,0.0,0.0,0.0,0.0,0.0,0.0,0.0,0.0,-2.1203,-2.1203,-2.1203,-2.1203,-2.1203,-2.1203,-2.1203,-2.1203,-2.1203,-2.1318,-2.1603,-2.1318,-2.2482,-2.4744,-2.5108,-2.6439,-2.8407,-2.903,-2.9352,-2.9407,-2.9407,-2.9463,-2.9518,-2.9573,-2.9739,0.0,0.0,0.0,0.0,0.0,0.0,0.0,-3.1946,-3.2235,-3.2545,-3.2649,-3.2669,-3.2669,-3.2669,-3.2669,-3.2669,-3.2669,-3.2669,-3.2669,-3.2669,-3.2669,-3.2669,-3.2669,-3.2669,0.0,0.0,0.0,0.0,0.0,0.0,0.0,0.0,0.0,0.0,0.0,0.0,0.0,0.0,0.0,0.0,0.0,0.0,0.0,0.0,0.0,0.0,0.0,0.0,0.0,-3.3418,-3.3418,-3.3418,0.0,-3.3418,-3.3418,-3.3418,-3.3418,-3.3418,-3.3418,-3.3418,-3.3418,-3.3418,-3.3418,-3.3418,-3.3253,-3.1847,-3.0853,-2.9995,-2.8571,-2.7757,-2.7426,0.0,0.0,0.0,0.0,0.0,0.0,0.0,0.0,0.0,0.0,0.0,0.0,0.0,0.0,0.0,0.0,0.0,0.0,0.0,0.0,-2.1203,-2.1203,-2.1203,-2.1203,-2.1203,-2.1203,-2.1203,-2.1203,-2.1203,-2.1203,-2.1218,-2.1982,-2.3001,-2.4232,-2.5865,-2.7247,-2.8442,-2.925,-2.9626,-2.9626,-2.9626,-2.9682,-2.9793,-2.9793,-2.996,-3.0238,-3.0404,0.0,0.0,0.0,0.0,0.0,0.0,0.0,-3.2669,-3.2669,-3.2669,-3.2669,-3.2669,-3.2669,-3.2669,-3.2669,-3.2669,-3.2669,-3.2669,-3.2669,-3.2669,-3.2669,-3.2669,0.0,0.0,0.0,0.0,0.0,0.0,0.0,0.0,0.0,0.0,0.0,0.0,0.0,0.0,0.0,0.0,0.0,0.0,0.0,0.0,0.0,0.0,0.0,0.0,0.0,-3.3418,-3.3418,-3.3418,-3.3418,-3.3418,-3.3418,-3.3418,-3.3418,-3.3019,-3.2428,-3.3102,-3.3019,-3.2428,-3.3082,-3.3019,-3.2263,-3.1199,-2.9896,-2.8386,-2.7073,-2.6463,-2.6282,0.0,0.0,0.0,0.0,0.0,0.0,0.0,0.0,0.0,0.0,0.0,0.0,0.0,0.0,0.0,0.0,0.0,0.0,0.0,0.0,0.0,-2.1203,-2.1203,-2.1203,-2.1203,-2.1203,-2.1203,-2.1203,-2.1262,-2.1291,-2.1306,-2.2855,-2.363,-2.3767,-2.6611,-2.7763,-2.7648,-2.9182,-2.9672,-2.9503,-2.9729,-2.9973,-3.0142,-3.0142,-3.031,-3.0569,-3.0625,-3.0922,-3.1358,-3.1697,0.0,0.0,0.0,0.0,-3.2669,-3.2669,-3.2669,-3.2669,-3.2669,-3.2669,-3.2669,-3.2669,-3.2669,-3.2669,-3.2669,-3.2669,-3.2669,-3.2669,0.0,0.0,0.0,0.0,0.0,0.0,0.0,0.0,0.0,0.0,0.0,0.0,0.0,0.0,0.0,0.0,0.0,0.0,0.0,0.0,0.0,0.0,0.0,0.0,0.0,-3.3418,-3.3418,-3.3418,-3.3418,-3.3418,-3.3418,-3.3292,-3.3019,-3.3019,-3.2365,-3.1387,-3.2237,-3.1982,-3.1065,-3.2174,-3.1982,-3.0882,-3.0229,-2.8682,-2.6565,-2.5596,-2.5234,-2.5203,0.0,0.0,0.0,0.0,0.0,0.0,0.0,0.0,0.0,0.0,-2.1203,0.0,0.0,0.0,0.0,0.0,0.0,0.0,0.0,0.0,0.0,-2.1203,-2.1203,-2.1203,-2.1203,-2.1203,-2.1203,-2.1203,-2.1496,-2.1628,-2.1628,-2.2964,-2.3715,-2.4018,-2.6999,-2.7643,-2.6783,-2.9523,-3.0044,-2.9068,-3.0277,-3.0781,-3.0781,-3.0781,-3.0935,-3.1204,-3.1492,-3.1819,-3.2166,-3.2452,-3.2571,0.0,0.0,0.0,-3.2669,-3.2669,-3.2669,-3.2669,-3.2669,-3.2669,-3.2669,-3.2669,-3.2669,-3.2669,-3.2669,0.0,-3.2669,0.0,0.0,0.0,0.0,0.0,0.0,0.0,0.0,0.0,0.0,0.0,0.0,0.0,0.0,0.0,0.0,0.0,0.0,0.0,0.0,0.0,0.0,0.0,-3.3418,-3.3418,-3.3418,0.0,-3.3418,-3.3418,-3.3418,-3.3418,-3.3418,-3.2765,-3.1579,-3.1579,-3.1451,-3.124,-3.0225,-2.9639,-2.9509,-2.9705,-2.9639,-2.9344,-2.78,-2.7019,-2.6532,-2.486,-2.4272,-2.4257,0.0,0.0,0.0,0.0,0.0,0.0,0.0,0.0,0.0,0.0,0.0,-2.1203,0.0,0.0,0.0,0.0,0.0,0.0,0.0,0.0,0.0,-2.1203,-2.1203,-2.1203,-2.1203,-2.1393,-2.1481,-2.1481,-2.1818,-2.2052,-2.2213,-2.3554,-2.458,-2.5452,-2.695,-2.8074,-2.8917,-2.8747,-2.9253,-3.002,-2.9844,-3.002,-3.0411,0.0,0.0,0.0,0.0,0.0,-3.1576,-3.1808,-3.1923,-3.1981,-3.2153,0.0,0.0,0.0,-3.2555,-3.2669,-3.2669,-3.2669,-3.2669,-3.2669,-3.2669,-3.2669,-3.2669,-3.2669,-3.2669,0.0,0.0,0.0,0.0,0.0,0.0,0.0,0.0,0.0,0.0,0.0,0.0,0.0,0.0,0.0,0.0,0.0,0.0,0.0,0.0,0.0,0.0,-3.3418,-3.3418,-3.3418,-3.3418,0.0,-3.3418,-3.3418,-3.3019,-3.2237,-3.2237,-3.1515,-3.0095,-2.9296,-2.8969,-2.8969,-2.9117,-2.8723,-2.8065,-2.8854,-2.8723,-2.7916,-2.7176,-2.6468,-2.5722,-2.473,-2.4349,-2.4335,0.0,0.0,0.0,0.0,0.0,0.0,0.0,0.0,0.0,0.0,0.0,0.0,0.0,0.0,0.0,0.0,0.0,0.0,0.0,0.0,0.0,-2.1203,-2.1291,-2.1335,-2.1335,-2.1657,-2.1818,-2.1818,-2.214,-2.2403,-2.2623,-2.3734,-2.4916,-2.6193,-2.7065,-2.8026,-2.8879,-2.8224,-2.8522,-2.9372,-2.9057,-2.9176,-2.9726,0.0,0.0,0.0,0.0,0.0,0.0,0.0,0.0,0.0,0.0,0.0,0.0,0.0,0.0,-3.2612,-3.2612,-3.2669,-3.2669,-3.2669,-3.2669,-3.2669,0.0,0.0,0.0,0.0,0.0,0.0,0.0,0.0,0.0,0.0,0.0,0.0,0.0,0.0,0.0,0.0,0.0,0.0,0.0,0.0,0.0,0.0,0.0,0.0,-3.3418,-3.3418,-3.3418,-3.3418,-3.3418,-3.3418,-3.3418,-3.3418,-3.2702,-3.1322,-3.1322,-3.0419,-2.8657,-2.7602,-2.6886,-2.6635,-2.7684,-2.7551,-2.6686,-2.775,-2.7551,-2.6553,-2.6553,-2.5981,-2.509,-2.4855,-2.4753,-2.4657,0.0,0.0,0.0,0.0,0.0,0.0,0.0,0.0,0.0,0.0,0.0,0.0,0.0,-2.1203,-2.1203,-2.1203,0.0,0.0,0.0,0.0,0.0,-2.1203,-2.1511,0.0,-2.1672,-2.1993,-2.2154,-2.2154,-2.2462,-2.2608,-2.2637,-2.3007,-2.3884,-2.5285,-2.7709,-2.6806,-2.3837,-2.8641,-2.8641,-2.5623,-2.7966,0.0,0.0,0.0,0.0,0.0,0.0,0.0,0.0,0.0,0.0,0.0,0.0,0.0,0.0,0.0,0.0,0.0,-3.2305,-3.2498,-3.2669,-3.2669,-3.2669,-3.2669,0.0,0.0,0.0,0.0,0.0,0.0,0.0,0.0,0.0,0.0,0.0,0.0,0.0,0.0,0.0,0.0,0.0,0.0,0.0,0.0,0.0,0.0,0.0,0.0,-3.3418,-3.3418,-3.3418,-3.3418,-3.3418,-3.3418,-3.3418,-3.3418,-3.2702,-3.1322,-3.1322,-2.9882,-2.7219,-2.7153,-2.6435,-2.5187,-2.5255,-2.5255,-2.5187,-2.5255,-2.5255,-2.5187,-2.5187,-2.5187,-2.5119,-2.5105,-2.5105,-2.509,0.0,0.0,0.0,0.0,0.0,0.0,0.0,0.0,0.0,0.0,0.0,0.0,0.0,-2.1715,-2.1832,-2.1832,-2.1832,0.0,0.0,0.0,0.0,-2.1832,-2.195,-2.2008,-2.2008,-2.2315,-2.2462,-2.2462,-2.2784,-2.293,-2.2945,-2.3062,-2.3355,-2.3852,-2.4748,-2.5774,-2.6806,-2.6139,-2.6503,-2.7469,-2.6762,0.0,0.0,0.0,0.0,0.0,0.0,0.0,0.0,0.0,0.0,0.0,0.0,0.0,0.0,0.0,0.0,-3.2018,-3.2248,-3.2363,-3.2498,-3.2669,-3.2669,-3.2669,-3.2669,0.0,0.0,0.0,0.0,0.0,0.0,0.0,0.0,0.0,0.0,0.0,0.0,0.0,0.0,0.0,0.0,0.0,0.0,0.0,0.0,0.0,0.0,0.0,-3.3418,-3.3418,-3.3418,-3.3418,-3.2492,-3.1643,-3.0678,-3.0678,-3.003,-2.8657,-2.8657,-2.7602,-2.5846,-2.5846,-2.5577,-2.5119,-2.5119,-2.5119,-2.5119,-2.5119,-2.5119,-2.5119,-2.5119,-2.5119,-2.5119,-2.5119,-2.5119,-2.5119,0.0,0.0,0.0,0.0,0.0,0.0,0.0,0.0,0.0,0.0,0.0,0.0,0.0,0.0,-2.2811,-2.2811,-2.2811,-2.2647,-2.2244,-2.2184,-2.2184,-2.2184,-2.2286,-2.233,-2.233,-2.2623,-2.2784,-2.2784,-2.3003,-2.3106,-2.3106,-2.3106,-2.3106,-2.3106,-2.3106,-2.4502,-2.6866,-2.5591,-2.5774,-2.6866,0.0,0.0,-2.5745,0.0,0.0,0.0,0.0,0.0,0.0,0.0,0.0,0.0,0.0,0.0,0.0,0.0,0.0,0.0,-3.1787,0.0,0.0,0.0,-3.2076,-3.1903,-3.244,0.0,0.0,0.0,0.0,0.0,0.0,0.0,0.0,0.0,0.0,0.0,0.0,0.0,0.0,0.0,0.0,0.0,0.0,0.0,0.0,0.0,0.0,0.0,-3.3418,-3.2956,-3.2511,-3.1982,-3.1065,-3.016,-2.9182,-2.9182,-2.8543,-2.7235,-2.7153,-2.6435,-2.5119,-2.5119,-2.5119,-2.5119,-2.5119,-2.5119,-2.5119,-2.5119,-2.5119,-2.5119,-2.5119,-2.5119,-2.5119,-2.5119,-2.5119,-2.5119,0.0,0.0,0.0,0.0,0.0,0.0,0.0,0.0,0.0,-2.2184,0.0,0.0,0.0,0.0,0.0,-2.4098,-2.4098,-2.3523,-2.2333,-2.2213,-2.2213,-2.2213,0.0,0.0,-2.2637,-2.2945,-2.3106,-2.3106,-2.3106,-2.3106,-2.3106,-2.3106,-2.3106,-2.3106,-2.3106,-2.3106,-2.3355,-2.7108,-2.6624,-2.3417,0.0,-2.6172,-2.5133,0.0,0.0,0.0,-2.5407,-2.5285,0.0,-2.6476,0.0,0.0,0.0,0.0,0.0,0.0,0.0,0.0,0.0,0.0,0.0,0.0,0.0,0.0,-3.1883,0.0,0.0,0.0,0.0,0.0,0.0,0.0,0.0,0.0,0.0,0.0,0.0,0.0,0.0,0.0,0.0,0.0,0.0,0.0,0.0,0.0,0.0,-3.2969,-3.3379,-3.2027,-3.0678,-2.9182,-2.9117,-2.9117,-2.9051,-2.9051,-2.8411,-2.7169,-2.7086,-2.6368,-2.5119,-2.5119,-2.5119,-2.5119,-2.5119,-2.5119,-2.5119,-2.5119,-2.5119,-2.5119,-2.5119,-2.5119,-2.5119,-2.5119,-2.5119,-2.5119,0.0,0.0,0.0,0.0,0.0,0.0,0.0,0.0,-2.2184,0.0,0.0,0.0,-2.2506,-2.3002,-2.3749,-2.4725,-2.3932,-2.3212,-2.2857,-2.2857,-2.2857,-2.2857,-2.293,-2.2974,-2.2974,-2.3062,-2.3106,-2.3106,-2.3106,-2.3106,-2.3106,-2.3106,-2.3106,-2.3106,-2.3106,-2.3106,-2.3168,-2.427,0.0,-2.579,-2.4641,-2.4286,0.0,0.0,0.0,0.0,0.0,-2.4841,-2.4409,0.0,-2.501,-2.5317,0.0,0.0,0.0,0.0,0.0,0.0,-2.9512,0.0,0.0,0.0,0.0,0.0,0.0,0.0,0.0,0.0,0.0,0.0,0.0,0.0,0.0,0.0,0.0,0.0,0.0,0.0,0.0,0.0,0.0,0.0,0.0,0.0,0.0,0.0,0.0,-3.2851,-3.2969,-3.1877,-3.0207,-2.7816,-2.7684,-2.7219,-2.6234,-2.6234,-2.6048,-2.5644,-2.5644,-2.5457,-2.5119,-2.5119,-2.5119,-2.5119,-2.5119,-2.5119,-2.5119,-2.5119,-2.5119,-2.5119,-2.5119,-2.5119,-2.5119,-2.5119,-2.5119,-2.5119,0.0,0.0,0.0,0.0,0.0,0.0,-2.2564,-2.2564,-2.2564,0.0,0.0,0.0,-2.4328,-2.4638,-2.5071,-2.5806,-2.5194,-2.427,-2.3168,-2.3106,-2.3106,-2.3106,-2.3106,-2.3106,-2.3106,-2.3106,-2.3106,-2.3106,-2.3106,-2.3106,-2.3106,-2.3106,-2.3106,-2.3106,-2.3106,-2.3728,-2.4702,0.0,0.0,0.0,-2.5178,0.0,0.0,-2.4425,-2.4363,0.0,0.0,0.0,-2.379,-2.4348,-2.4533,0.0,0.0,0.0,0.0,0.0,0.0,0.0,0.0,0.0,0.0,0.0,0.0,0.0,-2.9394,-2.8545,0.0,0.0,0.0,0.0,0.0,0.0,0.0,0.0,0.0,0.0,0.0,0.0,0.0,0.0,0.0,0.0,0.0,0.0,0.0,0.0,-3.0352,-3.0512,-3.0275,-2.9819,-2.8592,-2.6368,-2.6301,-2.5913,-2.5119,-2.5119,-2.5119,-2.5119,-2.5119,-2.5119,-2.5119,-2.5119,-2.5119,-2.5119,-2.5119,-2.5119,-2.5119,-2.5119,-2.5119,-2.5119,-2.5119,-2.5119,-2.5119,-2.5119,-2.5119,-2.5119,0.0,0.0,0.0,-2.2681,-2.3039,-2.3293,-2.3106,-2.323,-2.3293,0.0,-2.323,-2.427,-2.6702,-2.69,-2.69,0.0,-2.6779,-2.5668,-2.3542,-2.3355,-2.3293,-2.3293,-2.3293,-2.323,-2.3106,-2.3168,-2.323,-2.323,-2.323,-2.323,-2.3293,-2.3168,-2.3168,-2.323,-2.323,0.0,-2.6537,0.0,0.0,-2.3589,-2.6581,-2.6355,0.0,0.0,-2.4857,-2.4286,-2.4286,-2.3914,-2.3479,-2.4579,-2.4949,0.0,0.0,0.0,0.0,0.0,-2.4887,0.0,0.0,0.0,0.0,0.0,0.0,0.0,-2.8367,-2.7709,-2.7366,0.0,0.0,0.0,0.0,0.0,0.0,0.0,0.0,0.0,0.0,0.0,0.0,0.0,0.0,0.0,0.0,0.0,0.0,-2.7484,-2.7535,-2.7332,-2.6727,-2.693,-2.6455,-2.5119,-2.5119,-2.5119,-2.5119,-2.5119,-2.5119,-2.5119,-2.5119,-2.5119,-2.5119,-2.5119,-2.5119,-2.5119,-2.5119,-2.5119,-2.5119,-2.5119,-2.5119,-2.5119,-2.5119,-2.5119,-2.5119,-2.5119,-2.5119,-2.5119,0.0,0.0,-2.3018,-2.3018,-2.3915,-2.4332,-2.323,-2.4038,-2.4332,-2.323,-2.4023,-2.5317,-2.684,-2.6095,-2.6095,0.0,-2.5362,-2.4332,-2.5378,-2.4949,-2.4702,-2.4702,-2.4702,-2.4209,-2.3106,-2.3604,-2.3914,-2.3914,-2.3914,-2.4177,-2.4672,-2.3604,-2.3417,-2.3914,-2.3914,-2.3914,-2.3961,0.0,0.0,-2.5101,-2.6034,0.0,-2.498,-2.5656,-2.5823,-2.57,-2.57,-2.5272,-2.4672,0.0,-2.3914,-2.3479,0.0,0.0,0.0,0.0,0.0,0.0,0.0,0.0,0.0,0.0,0.0,0.0,-2.579,-2.4871,-2.4332,0.0,0.0,0.0,0.0,0.0,0.0,0.0,0.0,0.0,0.0,0.0,0.0,0.0,0.0,0.0,0.0,0.0,-2.7039,-2.7124,-2.7398,-2.7332,-2.6727,-2.6773,-2.6289,-2.5119,-2.5119,-2.5119,-2.5119,-2.5119,-2.5119,-2.5119,-2.5119,-2.5119,-2.5119,-2.5119,-2.5119,-2.5119,-2.5119,-2.5119,-2.5119,-2.5119,-2.5119,-2.5119,-2.5119,-2.5119,-2.5119,-2.5119,-2.5119,-2.5119,0.0,-2.3106,-2.3106,-2.3106,-2.3666,-2.4085,-2.4085,-2.4085,-2.4085,-2.4085,-2.4702,-2.5729,-2.7547,-2.7004,-2.6823,0.0,0.0,0.0,0.0,-2.5501,-2.5439,-2.4656,-2.5378,-2.5256,-2.4115,-2.4425,-2.4425,-2.4115,-2.4425,-2.461,-2.461,-2.3914,-2.4224,-2.5256,-2.4471,-2.4887,-2.6244,0.0,-2.6699,-2.6956,-2.6604,0.0,-2.6639,-2.6761,-2.6756,-2.6612,-2.6238,-2.5423,-2.4525,-2.4044,-2.3606,0.0,0.0,-2.3106,-2.3106,0.0,-2.3106,-2.323,0.0,0.0,0.0,-2.4933,0.0,0.0,0.0,-2.4579,-2.4456,0.0,0.0,0.0,0.0,0.0,0.0,0.0,0.0,0.0,0.0,0.0,0.0,0.0,0.0,0.0,0.0,0.0,-2.5071,-2.5071,-2.5389,-2.5486,-2.5141,-2.5478,-2.5423,-2.487,-2.5031,-2.5119,-2.5119,-2.5119,-2.5119,-2.5119,-2.5119,-2.5119,-2.5119,-2.5119,-2.5119,-2.5119,-2.5119,-2.5119,-2.5119,-2.5119,-2.5119,-2.5119,-2.5119,-2.5119,-2.5119,-2.5119,-2.5119,-2.5119,-2.3208,-2.3208,-2.3223,-2.3281,-2.372,-2.4346,-2.5216,-2.4595,-2.4346,-2.5216,-2.5402,-2.6355,-2.8583,-2.8469,-2.8091,0.0,0.0,0.0,0.0,0.0,-2.6554,-2.5105,-2.6067,-2.6216,-2.521,-2.498,-2.4734,-2.4301,-2.4734,-2.4919,-2.4964,-2.4348,-2.501,-2.6641,-2.5317,-2.6156,-2.8504,0.0,0.0,-2.8595,0.0,-2.7293,-2.7689,-2.7706,-2.7395,-2.6886,-2.6312,-2.5236,-2.4107,-2.3971,0.0,-2.3647,-2.3384,-2.3252,0.0,0.0,0.0,0.0,0.0,0.0,0.0,0.0,0.0,-2.3355,0.0,0.0,0.0,-2.605,0.0,0.0,0.0,0.0,0.0,0.0,0.0,0.0,0.0,0.0,0.0,0.0,0.0,0.0,0.0,0.0,-2.3106,-2.3106,-2.3354,-2.353,-2.3588,-2.4159,-2.451,-2.4569,-2.4958,-2.5119,-2.5119,-2.5119,-2.5119,-2.5119,-2.5119,-2.5119,-2.5119,-2.5119,-2.5119,-2.5119,-2.5119,-2.5119,-2.5119,-2.5119,-2.5119,-2.5119,-2.5119,-2.5119,-2.5119,-2.5119,-2.5119,-2.5119,-2.3588,-2.3545,-2.3632,-2.3925,-2.5929,-2.7181,-2.6247,0.0,-2.7181,-2.6184,-2.6565,-2.7809,-3.0211,-2.9532,0.0,0.0,0.0,0.0,-2.9289,0.0,0.0,-2.8463,-2.7782,-2.6806,-2.5468,-2.4641,-2.4487,-2.498,-2.4487,-2.5501,-2.7942,-2.5317,-2.5256,-2.7349,-2.7185,-2.6537,-2.5672,0.0,-2.8559,0.0,-2.7832,-2.6851,0.0,-2.7676,-2.7314,-2.62,-2.6136,-2.5236,-2.4201,0.0,-2.4595,-2.4027,0.0,-2.3779,-2.3545,0.0,0.0,0.0,0.0,0.0,0.0,0.0,-2.3106,0.0,0.0,0.0,-2.3355,-2.3542,0.0,0.0,0.0,0.0,0.0,0.0,0.0,0.0,0.0,0.0,0.0,0.0,0.0,0.0,0.0,0.0,0.0,-2.3106,-2.3149,-2.3296,-2.3574,-2.394,-2.4276,-2.4554,-2.4958,-2.5119,-2.5119,-2.5119,-2.5119,-2.5119,-2.5119,-2.5119,-2.5119,-2.5119,-2.5119,-2.5119,-2.5119,-2.5119,-2.5119,-2.5119,-2.5119,-2.5119,-2.5119,-2.5119,-2.5119,-2.5119,-2.5119,-2.5119,-2.391,-2.3881,-2.4168,-2.5141,-2.6232,-2.7377,0.0,0.0,-2.8994,-2.7974,-2.8664,-2.9617,0.0,0.0,0.0,0.0,0.0,-2.9018,0.0,0.0,0.0,-2.8082,-2.9587,-2.9435,-2.7114,-2.7036,-2.6689,-2.5964,-2.5876,-2.625,-2.7099,-2.5823,-2.6294,-2.8044,-2.7082,0.0,-2.8805,0.0,-2.9451,0.0,0.0,0.0,0.0,-2.8229,-2.807,-2.741,-2.741,-2.6477,-2.5261,0.0,-2.494,0.0,0.0,0.0,0.0,0.0,0.0,0.0,0.0,0.0,0.0,0.0,0.0,0.0,0.0,0.0,-2.3106,0.0,0.0,0.0,0.0,0.0,0.0,0.0,0.0,0.0,0.0,0.0,0.0,0.0,0.0,0.0,0.0,0.0,0.0,0.0,0.0,-2.3164,-2.331,-2.3808,-2.4145,-2.4276,-2.4788,-2.5119,-2.5119,-2.5119,-2.5119,-2.5119,-2.5119,-2.5119,-2.5119,-2.5119,-2.5119,-2.5119,-2.5119,-2.5119,-2.5119,-2.5119,-2.5119,-2.5119,-2.5119,-2.5119,-2.5119,-2.5119,-2.5119,-2.5119,-2.4349,-2.4276,-2.469,-2.618,-2.6778,-2.766,0.0,0.0,-3.0192,-2.9232,-3.0004,0.0,-3.1907,-3.1565,0.0,0.0,-3.0987,-3.0599,0.0,0.0,-3.1478,0.0,0.0,0.0,0.0,-2.8517,-2.7882,-2.676,-2.6822,-2.6935,-2.7041,-2.661,-2.7286,-2.8745,-2.7896,-2.8646,-3.0577,0.0,-3.0284,-3.0899,-3.0311,-2.9501,-2.871,-2.8473,-2.8376,-2.8329,-2.8329,-2.7451,-2.6404,-2.6355,-2.5749,0.0,-2.4737,0.0,0.0,0.0,0.0,0.0,-2.3793,0.0,0.0,0.0,0.0,0.0,0.0,0.0,0.0,0.0,0.0,0.0,0.0,0.0,0.0,0.0,0.0,0.0,0.0,0.0,0.0,0.0,0.0,0.0,0.0,0.0,0.0,0.0,0.0,0.0,-2.3106,-2.3647,-2.3984,-2.4086,-2.4627,-2.5031,-2.5119,-2.5119,-2.5119,-2.5119,-2.5119,-2.5119,-2.5119,-2.5119,-2.5119,-2.5119,-2.5119,-2.5119,-2.5119,-2.5119,-2.5119,-2.5119,-2.5119,-2.5119,-2.5119,-2.5119,-2.5119,-2.5119,-2.509,-2.4841,-2.5107,-2.6792,-2.8163,-2.9148,0.0,0.0,0.0,0.0,0.0,0.0,0.0,0.0,0.0,0.0,0.0,-3.3698,-3.3085,0.0,-3.267,0.0,0.0,-2.9137,0.0,0.0,-2.6567,-2.7187,-2.6567,-2.7377,-2.943,-2.7866,-2.7991,-2.9617,-3.0544,-2.9945,-2.8438,-3.0678,-3.1095,-3.0284,-2.96,-2.9521,-2.9629,0.0,-2.765,-2.8329,-2.8329,0.0,0.0,-2.7981,-2.7235,0.0,0.0,0.0,0.0,0.0,0.0,0.0,0.0,0.0,0.0,-2.4057,0.0,0.0,0.0,0.0,-2.3106,0.0,0.0,0.0,0.0,0.0,0.0,0.0,0.0,0.0,0.0,0.0,0.0,0.0,0.0,0.0,0.0,0.0,0.0,0.0,0.0,0.0,-2.3106,-2.3427,-2.3764,-2.4071,-2.4408,-2.4797,-2.5119,-2.5119,-2.5119,-2.5119,-2.5119,-2.5119,-2.5119,-2.5119,-2.5119,-2.5119,-2.5119,-2.5119,-2.5119,-2.5119,-2.5119,-2.5119,-2.5119,-2.5119,-2.5119,-2.5119,-2.5119,-2.5119,-2.7816,-2.7719,-2.7802,-2.8378,-2.8854,0.0,0.0,-3.2399,0.0,0.0,-3.3314,0.0,0.0,-3.4635,-3.46,0.0,0.0,-3.4358,-3.412,-3.4346,0.0,0.0,0.0,-3.2637,0.0,0.0,0.0,0.0,-2.9073,-2.8887,-2.9635,-2.9075,-2.9137,-2.9715,-3.0007,-3.0358,0.0,0.0,0.0,0.0,0.0,-2.9915,-3.0139,0.0,0.0,-2.9716,-2.9716,-2.9243,0.0,-2.8086,-2.7264,-2.6473,-2.6176,-2.5569,-2.5025,-2.5479,-2.5204,0.0,0.0,0.0,-2.4349,-2.413,0.0,0.0,0.0,0.0,0.0,0.0,0.0,0.0,0.0,0.0,0.0,0.0,0.0,0.0,0.0,0.0,0.0,0.0,0.0,0.0,0.0,0.0,0.0,0.0,0.0,0.0,0.0,-2.3413,-2.3749,-2.4071,-2.4393,-2.473,-2.5119,-2.5119,-2.5119,-2.5119,-2.5119,-2.5119,-2.5119,-2.5119,-2.5119,-2.5119,-2.5119,-2.5119,-2.5119,-2.5119,-2.5119,-2.5119,-2.5119,-2.5119,-2.5119,-2.5119,-2.5119,-2.5119,-2.9641,-2.9641,-2.9688,-2.9887,-3.0479,0.0,0.0,0.0,0.0,0.0,-3.5077,0.0,-3.5666,0.0,-3.5666,0.0,-3.5554,-3.5392,-3.5392,-3.5364,0.0,-3.376,-3.4266,0.0,0.0,0.0,0.0,0.0,0.0,-2.9942,-3.0633,-2.9879,-2.9752,-3.0068,-3.0068,-3.0402,-3.0929,-3.0737,-3.0631,0.0,0.0,-3.0309,0.0,0.0,-3.0361,-3.0429,0.0,-2.9952,-2.9303,-2.8851,-2.802,-2.7168,-2.6935,-2.6322,-2.5703,-2.5824,-2.5531,-2.5075,-2.487,-2.4811,0.0,0.0,-2.4349,0.0,-2.4262,0.0,0.0,0.0,0.0,0.0,0.0,0.0,0.0,0.0,0.0,0.0,0.0,-2.3106,0.0,0.0,0.0,0.0,0.0,0.0,0.0,0.0,0.0,0.0,0.0,0.0,-2.3618,-2.4071,-2.4291,-2.4613,-2.5119,-2.5119,-2.5119,-2.5119,-2.5119,-2.5119,-2.5119,-2.5119,-2.5119,-2.5119,-2.5119,-2.5119,-2.5119,-2.5119,-2.5119,-2.5119,-2.5119,-2.5119,-2.5119,-2.5119,-2.5119,-2.5119,-3.0717,-3.0717,0.0,0.0,-3.2956,0.0,0.0,0.0,-3.4989,0.0,-3.5054,-3.6026,-3.635,-3.6415,-3.6544,-3.6802,-3.6846,-3.6825,-3.6825,-3.5945,0.0,0.0,-3.4275,-3.3502,-3.3938,0.0,0.0,0.0,0.0,-3.039,-3.2384,-3.0325,-2.9887,-3.0861,-3.0797,0.0,-2.9547,-3.0817,-3.0813,-2.9984,-3.0326,-3.0686,-3.1046,-3.1046,0.0,-3.048,-3.048,-3.0002,-2.9437,-3.0122,-2.9421,-2.8249,-2.8164,-2.7445,-2.6512,-2.5756,-2.533,-2.5149,-2.5149,-2.5134,-2.5119,-2.5119,0.0,0.0,0.0,0.0,-2.4101,0.0,0.0,0.0,0.0,0.0,0.0,0.0,0.0,0.0,0.0,0.0,0.0,0.0,0.0,0.0,0.0,0.0,0.0,0.0,0.0,0.0,0.0,0.0,0.0,-2.4057,-2.4086,-2.4393,-2.5119,-2.5119,-2.5119,-2.5119,-2.5119,-2.5119,-2.5119,-2.5119,-2.5119,-2.5119,-2.5119,-2.5119,-2.5119,-2.5119,-2.5119,-2.5119,-2.5119,-2.5119,-2.5119,-2.5119,-2.5119,-2.5119,-3.3615,-3.3615,-3.3822,0.0,-3.4863,-3.5007,0.0,0.0,0.0,0.0,-3.7131,-3.7641,-3.7707,-3.7687,-3.7773,-3.7839,-3.7508,0.0,0.0,0.0,0.0,-3.544,-3.5699,-3.5529,-3.4893,-3.4043,0.0,-3.5159,0.0,0.0,-3.2384,-3.1037,-3.0972,-3.1937,-3.1166,-3.12,-3.1883,-3.076,-3.0476,-3.0737,-3.0823,-3.1097,0.0,0.0,-3.1354,-3.1268,-3.1268,-3.0778,-3.0008,-2.9412,-2.8981,-2.8513,-2.7617,-2.6852,-2.6235,-2.6583,-2.6067,-2.5403,-2.5403,-2.5242,-2.5119,-2.5119,-2.5061,-2.5002,0.0,0.0,0.0,0.0,0.0,0.0,0.0,0.0,0.0,0.0,0.0,0.0,0.0,0.0,0.0,0.0,0.0,0.0,0.0,0.0,0.0,0.0,0.0,0.0,0.0,0.0,0.0,-2.4057,-2.4086,-2.4393,-2.5119,-2.5119,-2.5119,-2.5119,-2.5119,-2.5119,-2.5119,-2.5119,-2.5119,-2.5119,-2.5119,-2.5119,-2.5119,-2.5119,-2.5119,-2.5119,-2.5119,-2.5119,-2.5119,-2.5119,-2.5119,-2.5119,-3.5273,-3.543,0.0,-3.6103,0.0,0.0,-3.6613,-3.6316,0.0,-3.753,-3.7841,0.0,-3.8003,-3.85,-3.8771,-3.8771,-3.8051,0.0,-3.7354,0.0,0.0,-3.5508,-3.651,-3.6473,-3.523,-3.4518,0.0,-3.4963,0.0,0.0,-3.2849,-3.1695,-3.1498,-3.2218,-3.1432,-3.1361,-3.1775,-3.0765,-3.072,-3.1251,-3.1251,0.0,0.0,-3.163,-3.1347,-3.1135,-3.1489,-3.0852,-2.9894,-2.9612,-2.9051,-2.8395,-2.7768,-2.7191,-2.6717,-2.6788,-2.6339,-2.574,-2.574,-2.5608,-2.5447,-2.5301,-2.5257,-2.5227,-2.5163,-2.4987,-2.4855,0.0,0.0,0.0,0.0,0.0,0.0,0.0,0.0,0.0,0.0,0.0,0.0,0.0,0.0,0.0,0.0,0.0,0.0,0.0,0.0,0.0,0.0,0.0,0.0,-2.4057,-2.4086,-2.4393,-2.5119,-2.5119,-2.5119,-2.5119,-2.5119,-2.5119,-2.5119,-2.5119,-2.5119,-2.5119,-2.5119,-2.5119,-2.5119,-2.5119,-2.5119,-2.5119,-2.5119,-2.5119,-2.5119,-2.5119,-2.5119,-2.5119,-3.626,-3.6573,0.0,0.0,0.0,0.0,0.0,-3.6297,0.0,-3.7768,0.0,-3.7597,-3.7808,-3.8526,-3.9101,-3.926,0.0,-3.7509,-3.7292,-3.7114,-3.6553,-3.5673,-3.6616,-3.6613,-3.5291,-3.4098,0.0,0.0,0.0,0.0,-3.2999,-3.1765,-3.1361,-3.1698,-3.1311,0.0,0.0,-3.0856,-3.1268,-3.163,-3.163,-3.163,-3.163,-3.163,-3.1206,-3.0622,-3.1347,-3.0638,-2.9513,-3.0053,-2.9338,-2.8202,-2.8,-2.7787,-2.7417,-2.6774,-2.6339,-2.6076,-2.6076,-2.6047,-2.5944,-2.5666,-2.5564,-2.5461,-2.5183,-2.5163,-2.5119,-2.5119,-2.4899,0.0,0.0,0.0,0.0,0.0,0.0,0.0,0.0,0.0,0.0,0.0,0.0,0.0,0.0,0.0,0.0,0.0,0.0,0.0,0.0,0.0,0.0,0.0,-2.4086,0.0,-2.5119,0.0,-2.5119,-2.5119,-2.5119,-2.5119,-2.5119,-2.5119,-2.5119,-2.5119,-2.5119,-2.5119,-2.5119,-2.5119,-2.5119,-2.5119,-2.5119,-2.5119,-2.5119,-2.5119,-2.5119,-2.5119,-3.742,0.0,0.0,0.0,0.0,-3.7112,-3.7268,-3.7305,-3.7728,-3.9032,-3.7527,-3.6682,-3.7667,-3.7105,-3.7035,-3.8037,-3.7035,0.0,0.0,0.0,0.0,-3.4571,-3.5312,-3.5659,-3.5375,-3.3687,-3.3403,0.0,0.0,0.0,-3.0361,-2.9218,-2.9234,-3.0038,-2.9165,0.0,-3.0023,-3.1092,0.0,-3.163,-3.163,-3.163,-3.163,-3.163,-3.1489,-3.1418,-3.1559,-3.0993,-3.0124,-2.964,-2.9298,-2.8866,-2.7565,-2.7172,-2.7041,-2.6983,-2.6676,-2.6413,-2.6413,-2.6222,-2.6003,-2.5944,-2.5725,-2.552,-2.5461,-2.5242,-2.5119,-2.5119,-2.5075,-2.5031,-2.5031,0.0,0.0,0.0,0.0,0.0,0.0,0.0,0.0,0.0,0.0,0.0,0.0,0.0,0.0,0.0,0.0,0.0,0.0,0.0,0.0,0.0,0.0,0.0,0.0,0.0,0.0,-2.5119,-2.5119,-2.5119,-2.5119,-2.5119,-2.5119,-2.5119,-2.5119,-2.5119,-2.5119,-2.5119,-2.5119,-2.5119,-2.5119,-2.5119,-2.5119,-2.5119,-2.5119,-2.5119,-3.7496,0.0,0.0,0.0,0.0,0.0,0.0,-3.8262,0.0,-3.9212,-3.8339,-3.7623,-3.7551,-3.7623,-3.7623,-3.7551,-3.6469,-3.594,-3.6293,-3.5789,-3.512,-3.4324,-3.5216,0.0,-3.4821,-3.383,-3.3312,-3.3345,0.0,0.0,-3.0073,-2.9514,-2.9584,-3.0073,-2.995,-3.0276,0.0,0.0,0.0,-3.185,-3.185,-3.197,-3.2141,-3.2141,-3.2141,-3.2141,-3.2141,-3.1926,-3.1426,-3.0255,-2.9354,-2.8578,-2.7783,-2.7274,-2.6983,-2.6983,-2.6881,-2.6749,-2.6749,-2.6647,-2.6486,-2.631,-2.6149,-2.5988,-2.5827,-2.5535,-2.5301,-2.5301,-2.5169,-2.5119,-2.5119,-2.4855,0.0,0.0,0.0,0.0,0.0,0.0,0.0,0.0,0.0,0.0,0.0,0.0,0.0,0.0,0.0,0.0,0.0,0.0,0.0,0.0,0.0,0.0,0.0,0.0,0.0,-2.5119,-2.5119,-2.5119,-2.5119,-2.5119,-2.5119,-2.5119,-2.5119,-2.5119,-2.5119,-2.5119,-2.5119,-2.5119,-2.5119,-2.5119,-2.5119,-2.5119,-2.5119,-2.5119,0.0,-3.7546,0.0,0.0,-3.803,0.0,-3.7805,-3.8243,-3.8826,-3.9044,-3.8681,-3.8024,-3.7144,-3.7585,-3.7731,-3.707,-3.5903,-3.5163,-3.5136,-3.4841,-3.4551,-3.4231,-3.4993,-3.51,-3.445,-3.3858,-3.3161,0.0,0.0,0.0,0.0,-2.9799,0.0,0.0,0.0,0.0,0.0,0.0,-3.197,-3.2244,-3.2244,-3.2415,-3.2689,-3.2689,-3.2689,-3.2689,-3.2689,-3.2689,-3.2514,-3.127,-2.9945,-2.8656,-2.8232,-2.771,-2.7202,-2.7056,-2.6983,-2.6983,-2.6983,-2.6983,-2.6925,-2.6676,-2.6559,-2.6442,-2.6179,-2.5871,-2.5637,-2.5637,-2.5374,-2.5207,-2.5134,-2.4914,0.0,0.0,0.0,0.0,0.0,0.0,0.0,0.0,0.0,0.0,0.0,0.0,0.0,0.0,0.0,0.0,0.0,0.0,0.0,0.0,0.0,0.0,-2.5119,0.0,-2.5119,0.0,-2.5119,-2.5119,-2.5119,-2.5119,-2.5119,-2.5119,-2.5119,-2.5119,-2.5119,-2.5119,-2.5119,-2.5119,-2.5119,-2.5119,-2.5119,-2.5119,-2.5119,-2.5119,0.0,0.0,0.0,0.0,0.0,0.0,0.0,-3.6386,-3.7951,-3.8971,-3.7291,-3.5903,-3.5754,-3.4875,-3.4724,-3.568,-3.4649,-3.4406,-3.5476,-3.4521,-3.3919,-3.3885,-3.369,-3.3944,-3.4809,-3.3468,-3.2895,0.0,0.0,0.0,0.0,0.0,0.0,0.0,0.0,0.0,0.0,-3.2295,-3.2604,-3.2638,-3.2638,-3.2655,-3.2689,-3.2689,-3.2689,-3.2689,-3.2689,-3.2689,-3.2672,-3.2531,-3.1694,-3.0421,-2.8671,-2.8057,-2.7855,-2.7202,-2.6983,-2.6983,-2.6983,-2.6983,-2.6983,-2.6954,-2.672,-2.65,-2.6457,-2.6208,-2.5974,-2.5974,-2.571,-2.5403,-2.511,-2.5105,-2.5075,0.0,0.0,0.0,0.0,0.0,0.0,0.0,0.0,0.0,0.0,0.0,0.0,0.0,0.0,0.0,0.0,0.0,0.0,0.0,0.0,-2.473,-2.5119,-2.5119,0.0,-2.5119,-2.5119,-2.5119,-2.5119,-2.5119,-2.5119,-2.5119,-2.5119,-2.5119,-2.5119,-2.5119,-2.5119,-2.5119,-2.5119,-2.5119,-2.5119,-2.5119,-2.5119,-2.5119,0.0,0.0,0.0,0.0,0.0,0.0,0.0,-3.6405,-3.7291,-3.707,-3.6775,-3.6405,-3.568,-3.5157,-3.4799,-3.4574,-3.4064,-3.3988,-3.4499,-3.4064,-3.3761,-3.3761,-3.37,-3.3839,-3.4197,-3.3443,-3.3106,0.0,0.0,0.0,0.0,0.0,0.0,0.0,0.0,-3.2115,-3.225,-3.2543,-3.2826,-3.3032,-3.3032,-3.3169,-3.3374,-3.3374,-3.3374,-3.3374,-3.3374,-3.3374,-3.334,-3.3117,-3.2261,-3.121,-3.0478,-2.9409,-2.8435,-2.8142,-2.7569,-2.6983,-2.6983,-2.6983,-2.6983,-2.6983,-2.6896,-2.6793,-2.6793,-2.6544,-2.631,-2.631,-2.59,-2.5491,-2.5359,-2.5183,-2.5119,0.0,0.0,0.0,0.0,0.0,0.0,0.0,0.0,0.0,0.0,0.0,0.0,0.0,0.0,0.0,0.0,0.0,0.0,-2.4554,0.0,-2.4987,-2.5119,-2.5119,-2.5119,-2.5119,-2.5119,-2.5119,-2.5119,-2.5119,-2.5119,-2.5119,-2.5119,-2.5119,-2.5119,-2.5119,-2.5119,-2.5119,-2.5119,-2.5119,-2.5119,-2.5119,-2.5119,-2.5119,-3.8097,0.0,-3.5662,0.0,-3.6108,-3.6052,-3.5231,-3.5829,-3.6052,-3.5157,-3.5829,-3.6052,-3.5157,-3.5082,-3.4724,-3.3837,-3.3761,-3.3761,-3.3761,-3.3761,-3.3761,-3.3761,-3.3761,0.0,-3.3761,-3.358,-3.3443,-3.3443,-3.2308,0.0,0.0,0.0,0.0,0.0,-3.2566,-3.2912,-3.3032,-3.3032,-3.3186,-3.3443,-3.3443,-3.3597,-3.3761,-3.3761,-3.3761,-3.3761,-3.3761,-3.3761,-3.3802,-3.3528,-3.2733,-3.1886,-3.1671,-3.0451,-2.9124,-2.8796,-2.7952,-2.7115,-2.7013,-2.6983,-2.6983,-2.6983,-2.6983,-2.6983,-2.6983,-2.6808,-2.6617,-2.653,-2.6135,-2.5783,-2.5696,-2.5418,-2.5198,0.0,0.0,0.0,0.0,0.0,0.0,0.0,-2.4423,-2.4262,-2.4364,0.0,0.0,0.0,0.0,0.0,0.0,0.0,0.0,0.0,0.0,0.0,0.0,0.0,-2.5119,-2.5119,-2.5119,-2.5119,-2.5119,-2.5119,-2.5119,-2.5119,-2.5119,-2.5119,-2.5119,-2.5119,-2.5119,-2.5119,-2.5119,-2.5119,-2.5119,-2.5119,-2.5119,-2.5119,-3.4932,-3.3727,-3.2909,-3.3685,-3.3837,-3.3837,-3.3837,-3.3837,-3.3837,-3.3837,-3.3837,-3.3837,-3.3837,-3.3837,-3.3837,-3.3761,-3.3761,-3.3761,-3.3761,-3.3761,-3.3761,0.0,0.0,-3.3761,-3.3761,-3.3837,-3.3761,-3.3761,0.0,0.0,-3.2101,0.0,-3.1787,-3.2118,-3.2957,-3.3477,-3.382,-3.382,-3.3761,-3.3761,-3.3761,-3.3837,-3.3761,-3.3761,-3.3761,-3.3761,-3.3761,-3.3761,-3.3761,-3.3837,-3.3289,-3.2456,-3.1837,-3.0998,-3.0087,-2.902,-2.8117,-2.7393,-2.7086,-2.6983,-2.6983,-2.6983,-2.6983,-2.6983,-2.6983,-2.6983,-2.6896,-2.6574,-2.65,-2.6398,-2.6061,-2.574,-2.552,-2.552,0.0,0.0,0.0,0.0,0.0,0.0,-2.4826,-2.4686,-2.5075,0.0,0.0,0.0,0.0,0.0,0.0,0.0,0.0,-2.5105,-2.5119,0.0,-2.5119,-2.5119,-2.5119,-2.5119,-2.5119,-2.5119,-2.5119,-2.5119,-2.5119,-2.5119,-2.5119,-2.5119,-2.5119,-2.5119,-2.5119,-2.5119,-2.5119,-2.5119,-2.5119,-2.5119,-2.5119,-2.5119,-3.6405,-3.4932,-3.3744,-3.4875,-3.4348,-3.3761,-3.3761,-3.3761,-3.3761,-3.3761,-3.3761,-3.3761,-3.3761,-3.3761,-3.3761,0.0,-3.3761,-3.3761,0.0,-3.3761,-3.3761,-3.3761,-3.3761,-3.3761,-3.3761,-3.3761,-3.3761,-3.3761,0.0,0.0,0.0,-3.3153,-3.317,-3.3272,-3.3515,-3.3734,-3.3761,-3.3761,-3.3761,-3.3761,-3.3761,-3.3761,-3.3761,-3.3761,-3.3761,-3.3761,-3.3761,-3.3761,-3.3761,-3.3761,-3.3609,-3.3255,-3.2491,-3.1566,-3.0664,-3.0328,-2.9452,-2.8462,-2.7556,-2.732,-2.7276,-2.7042,-2.6983,-2.6983,-2.6983,-2.6983,-2.6969,-2.6852,-2.6661,-2.6471,-2.6369,-2.6076,-2.5783,-2.5564,0.0,0.0,0.0,0.0,0.0,0.0,-2.5031,-2.5017,0.0,-2.4943,0.0,0.0,0.0,0.0,0.0,0.0,0.0,0.0,-2.5119,0.0,-2.5119,-2.5119,-2.5119,-2.5119,-2.5119,-2.5119,-2.5119,-2.5119,-2.5119,-2.5119,-2.5119,-2.5119,-2.5119,-2.5119,-2.5119,-2.5119,-2.5119,-2.5119,-2.5119,-2.5119,-2.5119,-2.5119,-3.6433,-3.5316,-3.4495,-3.524,-3.4707,-3.4265,-3.4265,-3.4265,-3.4265,-3.4265,-3.4145,-3.4042,-3.4042,-3.3922,0.0,-3.3761,-3.3761,-3.3761,-3.3761,-3.3761,-3.3761,-3.3761,-3.3761,-3.3761,-3.3761,0.0,0.0,-3.3761,-3.3761,-3.3761,-3.3761,-3.3761,-3.3761,-3.3761,-3.3761,-3.3609,-3.3382,-3.3685,-3.3609,-3.3382,-3.3685,-3.3761,-3.3761,-3.3761,-3.3761,-3.3761,-3.3761,-3.3761,-3.3761,-3.3761,-3.3609,-3.3289,-3.3137,-3.2152,-3.1029,-3.0978,-3.0169,-2.9169,-2.8402,-2.7866,-2.7422,-2.7232,-2.7086,-2.6983,-2.6983,-2.6983,-2.6983,-2.6983,-2.6822,-2.6691,-2.6691,-2.6413,-2.6135,-2.593,0.0,-2.5608,0.0,0.0,0.0,0.0,0.0,0.0,0.0,-2.5119,0.0,0.0,0.0,0.0,0.0,0.0,0.0,-2.5119,-2.5119,0.0,-2.5119,-2.5119,-2.5119,-2.5119,-2.5119,-2.5119,-2.5119,-2.5119,-2.5119,-2.5119,-2.5119,-2.5119,-2.5119,-2.5119,-2.5119,-2.5119,-2.5119,-2.5119,-2.5119,-2.5119,-2.5119,-2.5119,-3.5357,-3.5045,0.0,0.0,-3.4889,0.0,-3.4889,-3.4984,-3.4984,-3.4984,-3.4659,-3.4419,-3.4419,-3.4094,-3.3795,-3.3795,0.0,0.0,0.0,-3.3761,-3.3761,-3.3761,-3.3761,0.0,-3.3761,-3.3761,-3.3761,-3.3761,-3.3761,-3.3761,-3.3761,-3.3761,-3.3761,-3.3761,-3.3761,-3.3365,-3.2757,-3.3458,-3.3382,-3.2757,-3.3534,-3.3761,-3.3761,-3.3761,-3.3761,-3.3685,-3.3685,-3.3685,-3.3609,-3.3685,-3.3213,-3.2757,-3.3458,-3.2773,-3.1485,-3.115,-3.0432,-2.9747,-2.9334,-2.8432,-2.7599,-2.757,-2.7232,-2.6983,-2.6983,-2.6983,-2.6983,-2.6983,-2.6983,-2.6983,-2.6983,-2.6749,-2.653,-2.65,-2.6252,-2.593,-2.5608,0.0,0.0,0.0,0.0,0.0,0.0,-2.5134,-2.5119,0.0,0.0,0.0,0.0,0.0,0.0,-2.5119,-2.5119,-2.5119,-2.5119,-2.5119,-2.5119,-2.5119,-2.5119,-2.5119,-2.5119,-2.5119,-2.5119,-2.5119,-2.5119,-2.5119,-2.5119,-2.5119,-2.5119,-2.5119,-2.5119,-2.5119,-2.5119,-2.5119,-2.5119,-2.5119,0.0,0.0,-3.5072,-3.4087,-3.393,-3.393,-3.393,-3.4575,-3.4984,-3.4984,-3.4898,-3.4847,-3.4847,-3.4487,-3.4265,-3.4265,-3.4008,-3.3761,-3.3761,-3.3761,-3.3761,-3.3761,-3.3761,-3.3761,-3.3761,-3.3761,-3.3761,-3.3761,-3.3761,-3.3761,-3.3761,-3.3761,-3.3761,-3.3761,-3.3761,-3.3685,-3.3534,-3.3685,-3.3685,-3.3534,-3.3685,-3.3761,-3.3761,-3.3761,-3.3458,-3.2909,-3.2909,-3.2452,-3.2069,-3.2681,-3.2757,-3.2604,-3.2833,-3.3061,-3.3137,-3.2429,-3.1634,-3.0806,-2.9838,-2.9382,-2.8913,-2.7747,-2.7232,-2.6983,-2.6983,-2.6983,-2.6983,-2.6983,-2.6983,-2.6983,-2.6983,-2.6925,-2.6793,-2.6544,-2.6442,-2.6266,-2.5944,0.0,0.0,0.0,-2.5564,-2.5418,-2.5418,-2.5198,-2.5119,0.0,0.0,0.0,0.0,0.0,-2.5119,-2.5119,-2.5119,-2.5119,-2.5119,-2.5119,-2.5119,-2.5119,-2.5119,-2.5119,-2.5119,-2.5119,-2.5119,-2.5119,-2.5119,-2.5119,-2.5119,-2.5119,-2.5119,-2.5119,-2.5119,-2.5119,-2.5119,-2.5119,-2.5119,-2.5119,-3.7865,-3.6595,-3.5491,-3.4811,-3.4429,-3.4109,-3.4109,-3.4605,-3.5083,-3.5481,-3.501,-3.4829,-3.5224,-3.4881,-3.459,-3.4402,-3.4059,-3.3761,-3.3761,-3.3761,-3.3761,-3.3761,-3.3761,-3.3761,-3.3761,-3.3761,-3.3761,-3.3761,-3.3761,-3.3761,-3.3761,-3.3761,-3.3761,-3.3761,-3.3761,-3.3609,-3.3289,-3.3609,-3.3609,-3.3289,-3.3685,-3.3761,-3.3761,-3.3761,-3.3289,-3.2588,-3.2588,-3.2069,-3.1472,-3.1916,-3.2299,-3.2588,-3.2588,-3.2909,-3.3137,-3.2757,-3.2069,-3.1194,-3.0146,-2.9533,-2.8925,-2.7892,-2.7452,-2.7217,-2.7217,-2.71,-2.6983,-2.6983,-2.6983,-2.6983,-2.6983,-2.6983,-2.6939,-2.6749,-2.672,-2.6617,-2.6281,-2.6237,0.0,-2.6032,-2.5857,-2.5754,-2.5754,-2.5593,-2.5491,-2.5491,0.0,0.0,-2.5491,-2.5491,-2.5359,-2.5134,-2.5119,-2.5119,-2.5119,-2.5119,-2.5119,-2.5119,-2.5119,-2.5119,-2.5119,-2.5119,-2.5119,-2.5119,-2.5119,-2.5119,-2.5119,-2.5119,-2.5119,-2.5119,-2.5119,-2.5119,-2.5119,-2.5119,-2.5119,-2.5119,-3.9235,-3.7711,-3.6494,-3.6351,-3.548,-3.4783,-3.4848,-3.4702,-3.4865,-3.5595,-3.4745,-3.4385,-3.5105,-3.5021,-3.4759,-3.4435,-3.4086,-3.3829,-3.3761,-3.3761,-3.3761,-3.3761,-3.3761,-3.3761,-3.3609,-3.3609,-3.3685,-3.3761,-3.3761,-3.3761,-3.3761,-3.3761,-3.3761,-3.3761,-3.3761,-3.3458,-3.2833,-3.3534,-3.3365,-3.2833,-3.3534,-3.3761,-3.3761,-3.3685,-3.3137,-3.2375,-3.2283,-3.1686,-3.1071,-3.1148,-3.1686,-3.2206,-3.2375,-3.2452,-3.2375,-3.2283,-3.1763,-3.1071,-3.0284,-2.9284,-2.8297,-2.802,-2.7788,-2.7539,-2.7495,-2.7261,-2.7056,-2.6998,-2.6983,-2.6983,-2.6983,-2.6983,-2.6983,-2.6983,-2.6983,-2.6896,-2.6617,0.0,-2.6471,-2.6193,-2.612,-2.6091,-2.6091,-2.6047,-2.6018,-2.6018,-2.6018,0.0,0.0,-2.6018,-2.5769,-2.5227,-2.5266,-2.5266,-2.5266,-2.5266,-2.5266,-2.5266,-2.5266,-2.5266,-2.5266,-2.5266,-2.5266,-2.5198,-2.5154,-2.5125,-2.5193,-2.5149,-2.5119,-2.5119,-2.5119,-2.5119,-2.5119,-2.5119,-2.5119,-2.5119,-4.0783,-3.9905,-3.8845,-3.7816,-3.6011,-3.4815,-3.5187,-3.4327,-3.3772,-3.387,-3.3724,-3.3692,-3.3773,-3.4113,-3.4283,-3.4216,-3.4304,-3.4162,-3.3778,-3.3761,-3.3761,-3.3761,-3.3761,-3.3458,-3.2833,-3.2833,-3.3137,-3.3761,-3.3761,-3.3761,-3.3761,-3.3761,-3.3761,-3.3761,-3.3761,-3.3761,-3.3609,-3.3761,-3.3761,-3.3609,-3.3761,-3.3761,-3.3761,-3.3061,-3.2299,-3.1456,-3.0747,-2.9974,-2.9353,-3.0052,-3.0361,-3.0593,-3.1379,-3.1625,-3.1456,-3.067,-3.0361,-3.0284,-3.0129,-2.9284,-2.8432,-2.8373,-2.8049,-2.7803,-2.7539,-2.7437,-2.732,-2.7042,-2.6983,-2.6983,-2.6983,-2.6983,-2.6983,-2.6983,-2.6983,-2.6969,0.0,0.0,-2.6896,-2.6852,-2.6603,-2.6427,-2.6427,-2.6179,-2.6018,-2.6018,-2.6018,-2.6018,-2.6018,-2.6018,-2.5974,-2.5871,-2.5871,-2.5871,-2.5871,-2.5871,-2.5871,-2.5871,-2.5871,-2.5871,-2.5871,-2.5871,-2.5871,-2.5857,-2.5579,-2.5461,-2.5432,-2.5169,-2.5119,-2.5119,-2.5119,-2.5119,-2.5119,-2.5119,-2.5119,-2.5119,-4.0646,-3.9119,-3.7755,-3.7896,-3.5753,-3.4083,-3.4311,-3.3429,-3.2952,-3.3444,-3.3034,-3.2952,-3.3444,-3.3709,-3.3953,-3.4158,-3.4242,-3.4362,-3.447,-3.4059,-3.3761,-3.3761,-3.3761,-3.3458,-3.2588,-3.2588,-3.2604,-3.2544,-3.2544,-3.2544,-3.2544,-3.2544,-3.2773,-3.3137,-3.3137,-3.3365,-3.3761,-3.3761,-3.3761,-3.3761,-3.3761,-3.3761,-3.3685,-3.2909,-3.2069,-3.1318,-3.0438,-2.9586,-2.8964,-2.9353,-2.9741,-3.0129,-3.0608,-3.0994,-3.1241,-3.0361,-2.9819,-2.9431,-2.9431,-2.9094,-2.8681,-2.8681,-2.8447,-2.8169,-2.8022,-2.773,-2.7437,-2.7276,-2.7115,-2.6983,-2.6983,-2.6983,-2.6983,-2.6983,-2.6983,0.0,0.0,-2.6983,-2.6983,-2.6983,-2.6852,-2.6764,-2.6764,-2.6632,-2.6544,-2.6544,-2.6544,-2.6544,-2.6544,-2.6544,-2.6544,-2.6544,-2.6193,-2.6018,-2.6018,-2.6018,-2.6018,-2.6018,-2.6018,-2.6018,-2.6018,-2.6018,-2.6018,-2.6003,-2.5857,-2.5798,-2.5783,-2.5637,-2.5579,-2.5564,-2.5388,-2.5315,-2.5286,-2.5125,-2.5119,-2.5119,-3.9943,-3.8585,-3.7374,-3.8073,-3.6155,-3.4409,-3.4001,-3.2854,-3.2293,-3.2788,-3.2211,-3.2046,-3.2788,-3.3034,-3.3333,-3.3726,-3.387,-3.4186,-3.4806,-3.4162,-3.3831,-3.3898,-3.3509,-3.2926,-3.2299,-3.213,-3.184,-3.1395,-3.1395,-3.1395,-3.1395,-3.1395,-3.1686,-3.2299,-3.2299,-3.2681,-3.323,-3.323,-3.323,-3.323,-3.323,-3.323,-3.3154,-3.2299,-3.1609,-3.0994,-3.0129,-2.9431,-2.8886,-2.8886,-2.9275,-2.9819,-2.9819,-3.0299,-3.0686,-3.0052,-2.9353,-2.8886,-2.8886,-2.8886,-2.8886,-2.8886,-2.871,-2.852,-2.8461,-2.8052,-2.7671,-2.7598,-2.7335,-2.71,-2.71,-2.7042,-2.6983,-2.6983,0.0,0.0,0.0,-2.6983,-2.6983,-2.6983,-2.6983,-2.6983,-2.6983,-2.6983,-2.6983,-2.6983,-2.6983,-2.6983,-2.6983,-2.6983,-2.6983,-2.6983,-2.65,-2.6237,-2.6237,-2.6237,-2.6237,-2.6237,-2.6237,-2.6237,-2.6237,-2.6237,-2.6237,-2.6237,-2.6164,-2.6135,-2.612,-2.6047,-2.6018,-2.5988,-2.574,-2.5637,-2.5608,-2.5374,-2.5286,-2.5286,-3.9156,-4.0099,-4.0393,-3.9314,-3.8249,-3.702,-3.5413,-3.3413,-3.1798,-3.1067,-3.09,-3.09,-3.0984,-3.1715,-3.2196,-3.2263,-3.272,-3.3323,-3.4189,-3.3826,-3.3854,-3.4368,-3.2556,-3.1549,-3.1472,-3.0686,-3.0686,-3.1395,-3.1395,-3.1395,-3.1395,-3.1395,-3.1472,-3.1472,-3.1472,-3.1549,-3.1549,-3.1549,-3.1549,-3.1549,-3.1549,-3.1549,-3.1472,-3.0593,-3.0284,-3.0052,-2.9275,-2.8964,-2.8886,-2.8886,-2.8964,-2.8964,-2.8964,-2.9042,-2.9042,-2.9042,-2.8964,-2.8886,-2.8886,-2.8886,-2.8886,-2.8886,-2.8871,-2.8783,-2.8505,-2.8403,-2.8286,-2.7903,-2.7656,-2.7437,-2.7437,-2.7188,-2.6983,-2.6983,0.0,0.0,-2.6983,-2.6983,-2.6983,-2.6983,-2.6983,-2.6983,-2.6983,-2.6983,-2.6983,-2.6983,-2.6983,-2.6983,-2.6983,-2.6983,-2.6983,-2.6983,-2.6939,-2.6925,-2.6925,-2.6925,-2.6925,-2.6925,-2.6925,-2.6925,-2.6925,-2.6925,-2.6925,-2.6896,-2.6603,-2.6471,-2.6442,-2.6149,-2.6018,-2.6018,-2.5988,-2.5974,-2.5974,-2.5959,-2.5944,-2.5944,-3.8206,-3.8206,-3.8365,-3.9471,-3.7135,-3.5187,-3.5251,-3.3003,-3.115,-3.0817,-3.0817,-3.0817,-3.0817,-3.1067,-3.1467,-3.2046,-3.2253,-3.2764,-3.3742,-3.342,-3.3285,-3.3647,-3.2187,-3.1148,-3.0608,-3.0284,-3.0052,-2.9834,-2.9834,-2.9834,-2.9834,-2.9834,-3.0144,-3.0608,-3.0608,-3.0917,-3.1395,-3.1395,-3.1395,-3.1395,-3.1395,-3.1395,-3.1318,-3.0438,-3.0129,-2.9974,-2.9197,-2.8886,-2.8886,-2.8886,-2.8886,-2.8886,-2.8886,-2.8886,-2.8886,-2.8886,-2.8886,-2.8886,-2.8886,-2.8886,-2.8886,-2.8886,-2.8886,-2.8856,-2.8739,-2.8578,-2.8326,-2.8209,-2.7993,-2.7773,-2.7773,-2.751,-2.7291,-2.7291,0.0,-2.6983,-2.6983,-2.6983,-2.6983,-2.6983,-2.6983,-2.6983,-2.6983,-2.6983,-2.6983,-2.6983,-2.6983,-2.6983,-2.6983,-2.6983,-2.6983,-2.6983,-2.6983,-2.6983,-2.6983,-2.6983,-2.6983,-2.6983,-2.6983,-2.6983,-2.6983,-2.6983,-2.6983,-2.6983,-2.6866,-2.6808,-2.6793,-2.6676,-2.6617,-2.6603,-2.6398,-2.631,-2.6296,-2.6091,-2.6018,-2.6018,-3.7347,-3.7115,-3.7108,-3.8444,-3.6351,-3.4571,-3.4701,-3.2772,-3.115,-3.0817,-3.0817,-3.0817,-3.0817,-3.0817,-3.1067,-3.1632,-3.1715,-3.2046,-3.3034,-3.272,-3.2474,-3.2404,-3.1603,-3.0717,-2.9741,-2.9741,-2.9431,-2.8886,-2.8886,-2.8886,-2.8886,-2.8886,-2.9197,-2.9741,-2.9741,-3.0052,-3.0608,-3.0608,-3.0608,-3.0608,-3.0608,-3.0608,-3.0531,-2.9974,-2.9741,-2.9664,-2.9119,-2.8886,-2.8886,-2.8886,-2.8886,-2.8886,-2.8886,-2.8886,-2.8886,-2.8886,-2.8886,-2.8886,-2.8886,-2.8886,-2.8886,-2.8886,-2.8886,-2.8886,-2.8886,-2.8725,-2.8578,-2.8578,-2.833,-2.8034,-2.8034,-2.7847,-2.7627,-2.7627,-2.7349,-2.7144,-2.7144,-2.7056,-2.6983,-2.6983,-2.6983,-2.6983,-2.6983,-2.6983,-2.6983,-2.6983,-2.6983,-2.6983,-2.6983,-2.6983,-2.6983,-2.6983,-2.6983,-2.6983,-2.6983,-2.6983,-2.6983,-2.6983,-2.6983,-2.6983,-2.6983,-2.6983,-2.6983,-2.6983,-2.6983,-2.6983,-2.6983,-2.6983,-2.6983,-2.6969,-2.6749,-2.6661,-2.6632,-2.6413,-2.6325,-2.6325,-3.6628,-3.7354,-3.757,-3.6322,-3.6448,-3.5931,-3.3854,-3.2705,-3.1798,-3.09,-3.0817,-3.0817,-3.0817,-3.0817,-3.0817,-3.0817,-3.0817,-3.115,-3.2046,-3.1823,-3.135,-3.06,-3.0569,-3.0088,-2.89,-2.8886,-2.8886,-2.8886,-2.8886,-2.8886,-2.8886,-2.8886,-2.8886,-2.8886,-2.8886,-2.8886,-2.8886,-2.8886,-2.8886,-2.8886,-2.8886,-2.8886,-2.8886,-2.8886,-2.8886,-2.8886,-2.8886,-2.8886,-2.8886,-2.8886,-2.8886,-2.8886,-2.8886,-2.8886,-2.8886,-2.8886,-2.8886,-2.8886,-2.8886,-2.8886,-2.8886,-2.8886,-2.8886,-2.8886,-2.8886,-2.8886,-2.8886,-2.8886,-2.8651,-2.837,-2.837,-2.8093,-2.7874,-2.7874,-2.7686,-2.7481,-2.7481,-2.7203,-2.6998,-2.6998,-2.6998,-2.6998,-2.6983,-2.6983,-2.6983,-2.6983,-2.6983,-2.6983,-2.6983,-2.6983,-2.6983,-2.6983,-2.6983,-2.6983,-2.6983,-2.6983,-2.6983,-2.6983,-2.6983,-2.6983,-2.6983,-2.6983,-2.6983,-2.6983,-2.6983,-2.6983,-2.6983,-2.6983,-2.6983,-2.6983,-2.6983,-2.6983,-2.6983,-2.6983,-2.6983,-2.6983,-3.6843,-3.6852,-3.6922,-3.6563,-3.5383,-3.4327,-3.3887,-3.2361,-3.1067,-3.0817,-3.0817,-3.0817,-3.0817,-3.0817,-3.0817,-3.0817,-3.0817,-3.09,-3.115,-3.1144,-3.0906,-3.0476,-3.0017,-2.9562,-2.9237,-2.9003,-2.8886,-2.8886,-2.8886,-2.8886,-2.8886,-2.8886,-2.8886,-2.8886,-2.8886,-2.8886,-2.8886,-2.8886,-2.8886,-2.8886,-2.8886,-2.8886,-2.8886,-2.8886,-2.8886,-2.8886,-2.8886,-2.8886,-2.8886,-2.8886,-2.8886,-2.8886,-2.8886,-2.8886,-2.8886,-2.8886,-2.8886,-2.8886,-2.8886,-2.8886,-2.8886,-2.8886,-2.8886,-2.8886,-2.8886,-2.8886,-2.8886,-2.8886,-2.8812,-2.8754,-2.8754,-2.8505,-2.8209,-2.8209,-2.8022,-2.7803,-2.7803,-2.773,-2.7583,-2.7364,-2.7335,-2.7247,-2.7013,-2.6983,-2.6983,-2.6983,-2.6983,-2.6983,-2.6983,-2.6983,-2.6983,-2.6983,-2.6983,-2.6983,-2.6983,-2.6983,-2.6983,-2.6983,-2.6983,-2.6983,-2.6983,-2.6983,-2.6983,-2.6983,-2.6983,-2.6983,-2.6983,-2.6983,-2.6983,-2.6983,-2.6983,-2.6983,-2.6983,-2.6983,-2.6983,-2.6983,-3.7356,-3.6833,-3.6624,-3.6627,-3.5646,-3.4571,-3.3903,-3.2839,-3.1783,-3.09,-3.0817,-3.0817,-3.0817,-3.0817,-3.0817,-3.0817,-3.0817,-3.0817,-3.0817,-3.0817,-3.0744,-3.0554,-3.0042,-2.9647,-2.9383,-2.9061,-2.8886,-2.8886,-2.8886,-2.8886,-2.8886,-2.8886,-2.8886,-2.8886,-2.8886,-2.8886,-2.8886,-2.8886,-2.8886,-2.8886,-2.8886,-2.8886,-2.8886,-2.8886,-2.8886,-2.8886,-2.8886,-2.8886,-2.8886,-2.8886,-2.8886,-2.8886,-2.8886,-2.8886,-2.8886,-2.8886,-2.8886,-2.8886,-2.8886,-2.8886,-2.8886,-2.8886,-2.8886,-2.8886,-2.8886,-2.8886,-2.8886,-2.8886,-2.8886,-2.8886,-2.8886,-2.8739,-2.8622,-2.8622,-2.8344,-2.8063,-2.8063,-2.7961,-2.7801,-2.7686,-2.7656,-2.7583,-2.7393,-2.7364,-2.732,-2.7188,-2.7188,-2.713,-2.6998,-2.6983,-2.6983,-2.6983,-2.6983,-2.6983,-2.6983,-2.6983,-2.6983,-2.6983,-2.6983,-2.6983,-2.6983,-2.6983,-2.6983,-2.6983,-2.6983,-2.6983,-2.6983,-2.6983,-2.6983,-2.6983,-2.6983,-2.6983,-2.6983,-2.6983,-2.6983,-2.6983,-3.8095,-3.7176,-3.658,-3.6464,-3.6529,-3.5867,-3.369,-3.3658,-3.3069,-3.1067,-3.0817,-3.0817,-3.0817,-3.0817,-3.0817,-3.0817,-3.0817,-3.0817,-3.0817,-3.0817,-3.0817,-3.0817,-3.0525,-3.0071,-2.9471,-2.912,-2.8915,-2.8886,-2.8886,-2.8886,-2.8886,-2.8886,-2.8886,-2.8886,-2.8886,-2.8886,-2.8886,-2.8886,-2.8886,-2.8886,-2.8886,-2.8886,-2.8886,-2.8886,-2.8886,-2.8886,-2.8886,-2.8886,-2.8886,-2.8886,-2.8886,-2.8886,-2.8886,-2.8886,-2.8886,-2.8886,-2.8886,-2.8886,-2.8886,-2.8886,-2.8886,-2.8886,-2.8886,-2.8886,-2.8886,-2.8886,-2.8886,-2.8886,-2.8886,-2.8886,-2.8886,-2.8886,-2.8886,-2.8886,-2.8651,-2.8476,-2.8476,-2.8151,-2.7947,-2.7917,-2.7917,-2.7903,-2.7874,-2.7874,-2.7832,-2.7539,-2.7525,-2.7393,-2.7086,-2.7071,-2.7071,-2.7071,-2.7071,-2.7056,-2.7027,-2.7027,-2.7013,-2.6983,-2.6983,-2.6983,-2.6983,-2.6983,-2.6983,-2.6983,-2.6983,-2.6983,-2.6983,-2.6983,-2.6983,-2.6983,-2.6983,-2.6983,-2.6983,-2.6983,-2.6983,-2.6983,-3.8316,-3.7398,-3.6739,-3.5758,-3.5424,-3.4604,-3.2705,-3.2443,-3.2113,-3.0984,-3.0817,-3.0817,-3.0817,-3.0817,-3.0817,-3.0817,-3.0817,-3.0817,-3.0817,-3.0817,-3.0817,-3.0817,-3.0525,-3.0372,-3.0225,-2.9573,-2.9149,-2.8886,-2.8886,-2.8886,-2.8886,-2.8886,-2.8886,-2.8886,-2.8886,-2.8886,-2.8886,-2.8886,-2.8886,-2.8886,-2.8886,-2.8886,-2.8886,-2.8886,-2.8886,-2.8886,-2.8886,-2.8886,-2.8886,-2.8886,-2.8886,-2.8886,-2.8886,-2.8886,-2.8886,-2.8886,-2.8886,-2.8886,-2.8886,-2.8886,-2.8886,-2.8886,-2.8886,-2.8886,-2.8886,-2.8886,-2.8886,-2.8886,-2.8886,-2.8886,-2.8886,-2.8886,-2.8886,-2.8886,-2.8842,-2.8798,-2.8798,-2.8725,-2.8593,-2.8282,-2.8253,-2.8151,-2.7903,-2.7874,-2.7844,-2.7847,-2.7847,-2.7817,-2.7744,-2.7669,-2.7669,-2.7669,-2.7669,-2.7627,-2.7378,-2.7378,-2.7247,-2.6983,-2.6983,-2.6983,-2.6983,-2.6983,-2.6983,-2.6983,-2.6983,-2.6983,-2.6983,-2.6983,-2.6983,-2.6983,-2.6983,-2.6983,-2.6983,-2.6983,-2.6983,-2.6983,-3.9405,-3.8145,-3.7096,-3.5808,-3.6167,-3.552,-3.2556,-3.2936,-3.2921,-3.1067,-3.0817,-3.0817,-3.0817,-3.0817,-3.0817,-3.0817,-3.0817,-3.0817,-3.0817,-3.0817,-3.0817,-3.0817,-3.0671,-3.051,-3.0431,-3.0093,-2.9603,-2.912,-2.8973,-2.8886,-2.8886,-2.8886,-2.8886,-2.8886,-2.8886,-2.8886,-2.8886,-2.8886,-2.8886,-2.8886,-2.8886,-2.8886,-2.8886,-2.8886,-2.8886,-2.8886,-2.8886,-2.8886,-2.8886,-2.8886,-2.8886,-2.8886,-2.8886,-2.8886,-2.8886,-2.8886,-2.8886,-2.8886,-2.8886,-2.8886,-2.8886,-2.8886,-2.8886,-2.8886,-2.8886,-2.8886,-2.8886,-2.8886,-2.8886,-2.8886,-2.8886,-2.8886,-2.8886,-2.8886,-2.8886,-2.8886,-2.8886,-2.8886,-2.8827,-2.8666,-2.8651,-2.8593,-2.8417,-2.8403,-2.8344,-2.8122,-2.8107,-2.8034,-2.7888,-2.7874,-2.7874,-2.7874,-2.7874,-2.7801,-2.77,-2.77,-2.7613,-2.7452,-2.7144,-2.6983,-2.6983,-2.6983,-2.6983,-2.6983,-2.6983,-2.6983,-2.6983,-2.6983,-2.6983,-2.6983,-2.6983,-2.6983,-2.6983,-2.6983,-2.6983,-2.6983,-4.0584,-3.893,-3.747,-3.6342,-3.7279,-3.6945,-3.3328,-3.4066,-3.405,-3.155,-3.0984,-3.0817,-3.0817,-3.0817,-3.0817,-3.0817,-3.0817,-3.0817,-3.0817,-3.0817,-3.0817,-3.0817,-3.0817,-3.07,-3.0437,-3.046,-3.0027,-2.9383,-2.9105,-2.8944,-2.8886,-2.8886,-2.8886,-2.8886,-2.8886,-2.8886,-2.8886,-2.8886,-2.8886,-2.8886,-2.8886,-2.8886,-2.8886,-2.8886,-2.8886,-2.8886,-2.8886,-2.8886,-2.8886,-2.8886,-2.8886,-2.8886,-2.8886,-2.8886,-2.8886,-2.8886,-2.8886,-2.8886,-2.8886,-2.8886,-2.8886,-2.8886,-2.8886,-2.8886,-2.8886,-2.8886,-2.8886,-2.8886,-2.8886,-2.8886,-2.8886,-2.8886,-2.8886,-2.8886,-2.8886,-2.8886,-2.8886,-2.8886,-2.8886,-2.8886,-2.8886,-2.8886,-2.8886,-2.8886,-2.8783,-2.8534,-2.852,-2.8403,-2.8125,-2.8034,-2.8034,-2.8034,-2.8034,-2.8005,-2.7961,-2.7961,-2.7932,-2.7874,-2.7408,-2.713,-2.7071,-2.7013,-2.6983,-2.6983,-2.6983,-2.6983,-2.6983,-2.6983,-2.6983,-2.6983,-2.6983,-2.6983,-2.6983,-2.6983,-2.6983,-2.6983,-4.0584,-3.893,-3.7638,-3.7112,-3.6967,-3.6572,-3.5612,-3.449,-3.3608,-3.3101,-3.1715,-3.0817,-3.0817,-3.0817,-3.0817,-3.0817,-3.0817,-3.0817,-3.0817,-3.0817,-3.0817,-3.0817,-3.0817,-3.0803,-3.0759,-3.0495,-3.0027,-2.9383,-2.9325,-2.9164,-2.8886,-2.8886,-2.8886,-2.8886,-2.8886,-2.8886,-2.8886,-2.8886,-2.8886,-2.8886,-2.8886,-2.8886,-2.8886,-2.8886,-2.8886,-2.8886,-2.8886,-2.8886,-2.8886,-2.8886,-2.8886,-2.8886,-2.8886,-2.8886,-2.8886,-2.8886,-2.8886,-2.8886,-2.8886,-2.8886,-2.8886,-2.8886,-2.8886,-2.8886,-2.8886,-2.8886,-2.8886,-2.8886,-2.8886,-2.8886,-2.8886,-2.8886,-2.8886,-2.8886,-2.8886,-2.8886,-2.8886,-2.8886,-2.8886,-2.8886,-2.8886,-2.8886,-2.8886,-2.8886,-2.8871,-2.8827,-2.8827,-2.8812,-2.8769,-2.8769,-2.8769,-2.8769,-2.8769,-2.8637,-2.8373,-2.8297,-2.8151,-2.7874,-2.7786,-2.7671,-2.7393,-2.7115,-2.6983,-2.6983,-2.6983,-2.6983,-2.6983,-2.6983,-2.6983,-2.6983,-2.6983,-2.6983,-2.6983,-2.6983,-2.6983,-2.6983,-4.1677,-4.0186,-3.8691,-3.7065,-3.686,-3.6321,-3.4455,-3.3818,-3.3116,-3.2046,-3.1316,-3.0817,-3.0817,-3.0817,-3.0817,-3.0817,-3.0817,-3.0817,-3.0817,-3.0817,-3.0817,-3.0817,-3.0817,-3.0817,-3.0817,-3.0685,-3.0393,-2.9925,-2.9559,-2.931,-2.9164,-2.8973,-2.8886,-2.8886,-2.8886,-2.8886,-2.8886,-2.8886,-2.8886,-2.8886,-2.8886,-2.8886,-2.8886,-2.8886,-2.8886,-2.8886,-2.8886,-2.8886,-2.8886,-2.8886,-2.8886,-2.8886,-2.8886,-2.8886,-2.8886,-2.8886,-2.8886,-2.8886,-2.8886,-2.8886,-2.8886,-2.8886,-2.8886,-2.8886,-2.8886,-2.8886,-2.8886,-2.8886,-2.8886,-2.8886,-2.8886,-2.8886,-2.8886,-2.8886,-2.8886,-2.8886,-2.8886,-2.8886,-2.8886,-2.8886,-2.8886,-2.8886,-2.8886,-2.8886,-2.8886,-2.8886,-2.8886,-2.8886,-2.8886,-2.8886,-2.8886,-2.8886,-2.8886,-2.8827,-2.8695,-2.8695,-2.8622,-2.8476,-2.83,-2.8052,-2.7744,-2.7598,-2.7437,-2.7261,-2.7261,-2.7159,-2.6983,-2.6983,-2.6983,-2.6983,-2.6983,-2.6983,-2.6983,-2.6983,-2.6983,-2.6983]},{"header":{"parameterUnit":"m.s-1","parameterCategory":1,"la1":30.6,"la2":28.766,"lo1":-90.7593,"lo2":-88.6598,"dy":0.0162,"dx":0.0183,"nx":116,"ny":114,"refTime":"2023-04-19T06:00:00:Z","depth":0,"parameterNumber":3,"parameterNumberName":"V-component_of_WINDS"},"data":[0.0,0.0,0.0,0.0,0.0,0.0,0.0,0.0,0.0,0.0,0.0,0.0,0.0,0.0,0.0,0.0,0.0,0.0,0.0,0.0,0.0,0.0,0.0,0.0,0.0,0.0,0.0,0.0,0.0,0.0,0.0,0.0,0.0,0.0,0.0,0.0,0.0,0.0,0.0,0.0,0.0,0.0,0.0,0.0,0.0,0.0,0.0,0.0,0.0,0.0,0.0,0.0,0.0,0.0,0.0,0.0,0.0,0.0,0.0,0.0,0.0,0.0,0.0,0.0,0.0,0.0,0.0,0.0,0.0,0.0,0.0,0.0,0.0,0.0,0.0,0.0,0.0,0.0,0.0,0.0,0.0,0.0,0.0,0.0,0.0,0.0,0.0,0.0,0.0,0.0,0.0,0.0,0.0,0.0,0.0,0.0,0.0,0.0,0.0,0.0,0.0,0.0,0.0,0.0,0.0,0.0,0.0,0.0,0.0,0.0,0.0,0.0,0.0,0.0,0.0,0.0,0.0,0.0,0.0,0.0,0.0,0.0,0.0,0.0,0.0,0.0,0.0,0.0,0.0,0.0,0.0,0.0,0.0,0.0,0.0,0.0,0.0,0.0,0.0,0.0,0.0,0.0,0.0,0.0,0.0,0.0,0.0,0.0,0.0,0.0,0.0,0.0,0.0,0.0,0.0,0.0,0.0,0.0,0.0,0.0,0.0,0.0,0.0,0.0,0.0,0.0,0.0,0.0,0.0,0.0,0.0,0.0,0.0,0.0,0.0,0.0,0.0,0.0,0.0,0.0,0.0,0.0,0.0,0.0,0.0,0.0,0.0,0.0,0.0,0.0,0.0,0.0,0.0,0.0,0.0,0.0,0.0,0.0,0.0,0.0,0.0,0.0,0.0,0.0,0.0,0.0,0.0,0.0,0.0,0.0,0.0,0.0,0.0,0.0,0.0,0.0,0.0,0.0,0.0,0.0,0.0,0.0,0.0,0.0,0.0,0.0,0.0,0.0,0.0,0.0,0.0,0.0,0.0,0.0,0.0,0.0,0.0,0.0,0.0,0.0,0.0,0.0,0.0,0.0,0.0,0.0,0.0,0.0,0.0,0.0,0.0,0.0,0.0,0.0,0.0,0.0,0.0,0.0,0.0,0.0,0.0,0.0,0.0,0.0,0.0,0.0,0.0,0.0,0.0,0.0,0.0,0.0,0.0,0.0,0.0,0.0,0.0,0.0,0.0,0.0,0.0,0.0,0.0,0.0,0.0,0.0,0.0,0.0,0.0,0.0,0.0,0.0,0.0,0.0,0.0,0.0,0.0,0.0,0.0,0.0,0.0,0.0,0.0,0.0,0.0,0.0,0.0,0.0,0.0,0.0,0.0,0.0,0.0,0.0,0.0,0.0,0.0,0.0,0.0,0.0,0.0,0.0,0.0,0.0,0.0,0.0,0.0,0.0,0.0,0.0,0.0,0.0,0.0,0.0,0.0,0.0,0.0,0.0,0.0,0.0,0.0,0.0,0.0,0.0,0.0,0.0,0.0,0.0,0.0,0.0,0.0,0.0,0.0,0.0,0.0,0.0,0.0,0.0,0.0,0.0,0.0,0.0,0.0,0.0,0.0,0.0,0.0,0.0,0.0,0.0,0.0,0.0,0.0,0.0,0.0,0.0,0.0,0.0,0.0,0.0,0.0,0.0,0.0,0.0,0.0,0.0,0.0,0.0,0.0,0.0,0.0,0.0,0.0,0.0,0.0,0.0,0.0,0.0,0.0,0.0,0.0,0.0,0.0,0.0,0.0,0.0,0.0,0.0,0.0,0.0,0.0,0.0,0.0,0.0,0.0,0.0,0.0,0.0,0.0,0.0,0.0,0.0,0.0,0.0,0.0,0.0,0.0,0.0,0.0,0.0,0.0,0.0,0.0,0.0,0.0,0.0,0.0,0.0,0.0,0.0,0.0,0.0,0.0,0.0,0.0,0.0,0.0,0.0,0.0,0.0,0.0,0.0,0.0,0.0,0.0,0.0,0.0,0.0,0.0,0.0,0.0,0.0,0.0,0.0,0.0,0.0,0.0,0.0,0.0,0.0,0.0,0.0,0.0,0.0,0.0,0.0,0.0,0.0,0.0,0.0,0.0,0.0,0.0,0.0,0.0,0.0,0.0,0.0,0.0,0.0,0.0,0.0,0.0,0.0,0.0,0.0,0.0,0.0,0.0,0.0,0.0,0.0,0.0,0.0,0.0,0.0,0.0,0.0,0.0,0.0,0.0,0.0,0.0,0.0,0.0,0.0,0.0,0.0,0.0,0.0,0.0,0.0,0.0,0.0,0.0,0.0,0.0,0.0,0.0,0.0,0.0,0.0,0.0,0.0,0.0,0.0,0.0,0.0,0.0,0.0,0.0,0.0,0.0,0.0,0.0,0.0,0.0,0.0,0.0,0.0,0.0,0.0,0.0,0.0,0.0,0.0,0.0,0.0,0.0,0.0,0.0,0.0,0.0,0.0,0.0,0.0,0.0,0.0,0.0,0.0,0.0,0.0,0.0,0.0,0.0,0.0,0.0,0.0,0.0,0.0,0.0,0.0,0.0,0.0,0.0,0.0,0.0,0.0,0.0,0.0,0.0,0.0,0.0,0.0,0.0,0.0,0.0,0.0,0.0,0.0,0.0,0.0,0.0,0.0,0.0,0.0,0.0,0.0,0.0,0.0,0.0,0.0,0.0,0.0,0.0,0.0,0.0,0.0,0.0,0.0,0.0,0.0,0.0,0.0,0.0,0.0,0.0,0.0,0.0,0.0,0.0,0.0,0.0,0.0,0.0,0.0,0.0,0.0,0.0,0.0,0.0,0.0,0.0,0.0,0.0,0.0,0.0,0.0,0.0,0.0,0.0,0.0,0.0,0.0,0.0,0.0,0.0,0.0,0.0,0.0,0.0,0.0,0.0,0.0,0.0,0.0,0.0,0.0,0.0,0.0,0.0,0.0,0.0,0.0,0.0,0.0,0.0,0.0,0.0,0.0,0.0,0.0,0.0,0.0,0.0,0.0,0.0,0.0,0.0,0.0,0.0,0.0,0.0,0.0,0.0,0.0,0.0,0.0,0.0,0.0,0.0,0.0,0.0,0.0,0.0,0.0,0.0,0.0,0.0,0.0,0.0,0.0,0.0,0.0,0.0,0.0,0.0,0.0,0.0,0.0,0.0,0.0,0.0,0.0,0.0,0.0,0.0,0.0,0.0,0.0,0.0,0.0,0.0,0.0,0.0,0.0,0.0,0.0,0.0,0.0,0.0,0.0,0.0,0.0,0.0,0.0,0.0,0.0,0.0,0.0,0.0,0.0,0.0,0.0,0.0,0.0,0.0,0.0,0.0,0.0,0.0,0.0,0.0,0.0,0.0,0.0,0.0,0.0,0.0,0.0,0.0,0.0,0.0,0.0,0.0,0.0,0.0,0.0,0.0,0.0,0.0,0.0,0.0,0.0,0.0,0.0,0.0,0.0,0.0,0.0,0.0,0.0,0.0,0.0,0.0,0.0,0.0,0.0,0.0,0.0,0.0,0.0,0.0,0.0,0.0,0.0,0.0,0.0,0.0,0.0,0.0,0.0,0.0,0.0,0.0,0.0,0.0,0.0,0.0,0.0,0.0,0.0,0.0,0.0,0.0,0.0,0.0,0.0,0.0,0.0,0.0,0.0,0.0,0.0,0.0,0.0,0.0,0.0,0.0,0.0,0.0,0.0,0.0,0.0,0.0,0.0,0.0,0.0,0.0,0.0,0.0,0.0,0.0,0.0,0.0,0.0,0.0,0.0,0.0,0.0,0.0,0.0,0.0,0.0,0.0,0.0,0.0,0.0,0.0,0.0,0.0,0.0,0.0,0.0,0.0,0.0,0.0,0.0,0.0,0.0,0.0,0.0,0.0,0.0,0.0,0.0,0.0,0.0,0.0,0.0,0.0,0.0,0.0,0.0,0.0,0.0,0.0,0.0,0.0,0.0,0.0,0.0,0.0,0.0,0.0,0.0,0.0,0.0,0.0,0.0,0.0,0.0,0.0,0.0,0.0,0.0,0.0,0.0,0.0,0.0,0.0,0.0,0.0,0.0,0.0,0.0,0.0,0.0,0.0,0.0,0.0,0.0,0.0,0.0,0.0,0.0,0.0,0.0,0.0,0.0,0.0,0.0,0.0,0.0,0.0,0.0,0.0,0.0,0.0,0.0,0.0,0.0,0.0,0.0,0.0,0.0,0.0,0.0,0.0,0.0,0.0,0.0,0.0,0.0,0.0,0.0,0.0,0.0,0.0,0.0,0.0,0.0,0.0,0.0,0.0,0.0,0.0,0.0,0.0,0.0,0.0,0.0,0.0,0.0,0.0,0.0,0.0,0.0,0.0,0.0,0.0,0.0,0.0,0.0,0.0,0.0,0.0,0.0,0.0,0.0,0.0,0.0,0.0,0.0,0.0,0.0,0.0,0.0,0.0,0.0,0.0,0.0,0.0,0.0,0.0,0.0,0.0,0.0,0.0,0.0,0.0,0.0,0.0,0.0,0.0,0.0,0.0,0.0,0.0,0.0,0.0,0.0,0.0,0.0,0.0,0.0,0.0,0.0,0.0,0.0,0.0,0.0,0.0,0.0,0.0,0.0,0.0,0.0,0.0,0.0,0.0,0.0,0.0,0.0,0.0,0.0,0.0,0.0,0.0,0.0,0.0,0.0,0.0,0.0,0.0,0.0,0.0,0.0,0.0,0.0,0.0,0.0,0.0,0.0,0.0,0.0,0.0,0.0,0.0,0.0,0.0,0.0,0.0,0.0,0.0,0.0,0.0,0.0,0.0,0.0,0.0,0.0,0.0,0.0,0.0,0.0,0.0,0.0,0.0,0.0,0.0,0.0,0.0,0.0,0.0,0.0,0.0,0.0,0.0,0.0,0.0,0.0,0.0,0.0,0.0,0.0,0.0,0.0,0.0,0.0,0.0,0.0,0.0,0.0,0.0,0.0,0.0,0.0,0.0,0.0,0.0,0.0,0.0,0.0,0.0,0.0,0.0,0.0,0.0,0.0,0.0,0.0,0.0,0.0,0.0,0.0,0.0,0.0,0.0,0.0,0.0,0.0,0.0,0.0,0.0,0.0,0.0,0.0,0.0,0.0,0.0,0.0,0.0,0.0,0.0,0.0,0.0,0.0,0.0,0.0,0.0,0.0,0.0,0.0,0.0,0.0,0.0,0.0,0.0,0.0,0.0,0.0,0.0,0.0,0.0,0.0,0.0,0.0,0.0,0.0,0.0,0.0,0.0,0.0,0.0,0.0,0.0,0.0,0.0,0.0,0.0,0.0,0.0,0.0,0.0,0.0,0.0,0.0,0.0,0.0,0.0,0.0,0.0,0.0,0.0,0.0,0.0,0.0,0.0,0.0,0.0,0.0,0.0,0.0,0.0,0.0,0.0,0.0,0.0,0.0,0.0,0.0,0.0,0.0,0.0,0.0,0.0,0.0,0.0,0.0,0.0,0.0,0.0,0.0,0.0,0.0,0.0,0.0,0.0,0.0,0.0,0.0,0.0,0.0,0.0,0.0,0.0,0.0,0.0,0.0,0.0,0.0,0.0,0.0,0.0,0.0,0.0,0.0,0.0,0.0,0.0,0.0,0.0,0.0,0.0,0.0,0.0,0.0,0.0,0.0,0.0,0.0,0.0,0.0,0.0,0.0,0.0,0.0,0.0,0.0,0.0,0.0,0.0,0.0,0.0,0.0,0.0,0.0,0.0,0.0,0.0,0.0,0.0,0.0,0.0,0.0,0.0,0.0,0.0,0.0,0.0,0.0,0.0,0.0,0.0,0.0,0.0,0.0,0.0,0.0,0.0,0.0,0.0,0.0,0.0,0.0,0.0,0.0,0.0,0.0,0.0,0.0,0.0,0.0,0.0,0.0,0.0,0.0,0.0,0.0,0.0,0.0,0.0,0.0,0.0,0.0,0.0,0.0,0.0,0.0,0.0,0.0,0.0,0.0,0.0,0.0,0.0,0.0,0.0,0.0,0.0,0.0,0.0,0.0,0.0,0.0,0.0,0.0,0.0,0.0,0.0,0.0,0.0,0.0,0.0,0.0,0.0,0.0,0.0,0.0,3.57,0.0,0.0,0.0,0.0,0.0,0.0,0.0,0.0,0.0,0.0,0.0,0.0,0.0,0.0,0.0,0.0,0.0,0.0,0.0,0.0,0.0,0.0,0.0,0.0,0.0,0.0,0.0,0.0,0.0,0.0,0.0,0.0,0.0,0.0,0.0,0.0,0.0,0.0,0.0,3.7489,3.7489,3.7787,3.8295,3.7691,3.6197,0.0,0.0,0.0,0.0,0.0,0.0,0.0,0.0,0.0,0.0,0.0,0.0,0.0,0.0,0.0,0.0,0.0,0.0,0.0,0.0,0.0,0.0,0.0,0.0,0.0,0.0,0.0,0.0,0.0,0.0,0.0,0.0,0.0,0.0,0.0,0.0,0.0,0.0,0.0,0.0,0.0,0.0,0.0,0.0,0.0,0.0,0.0,0.0,0.0,0.0,0.0,0.0,0.0,0.0,0.0,0.0,0.0,0.0,0.0,0.0,0.0,0.0,0.0,0.0,0.0,0.0,0.0,0.0,0.0,0.0,0.0,3.5487,0.0,0.0,0.0,0.0,0.0,0.0,0.0,0.0,0.0,0.0,0.0,0.0,0.0,0.0,0.0,0.0,0.0,0.0,0.0,0.0,0.0,0.0,0.0,0.0,3.6951,3.6843,3.7059,0.0,0.0,0.0,0.0,0.0,0.0,0.0,0.0,3.7762,3.8137,3.8967,3.9135,3.9513,4.0087,3.9461,3.8136,3.6205,3.607,0.0,0.0,0.0,0.0,0.0,0.0,0.0,0.0,0.0,0.0,0.0,0.0,0.0,0.0,0.0,0.0,0.0,0.0,0.0,0.0,0.0,0.0,0.0,0.0,0.0,0.0,0.0,0.0,0.0,0.0,0.0,0.0,0.0,0.0,0.0,0.0,0.0,0.0,0.0,0.0,0.0,0.0,0.0,0.0,0.0,0.0,0.0,0.0,0.0,0.0,0.0,0.0,0.0,0.0,0.0,0.0,0.0,0.0,0.0,0.0,0.0,0.0,0.0,0.0,0.0,3.4633,3.5036,3.53,3.5404,3.5428,3.5746,3.6262,0.0,0.0,0.0,0.0,0.0,0.0,0.0,0.0,0.0,0.0,0.0,0.0,0.0,0.0,0.0,0.0,0.0,0.0,0.0,0.0,0.0,0.0,3.6979,3.7219,3.6306,3.7255,3.7989,0.0,0.0,0.0,0.0,0.0,0.0,3.7818,3.907,3.9451,3.891,3.9096,3.9513,4.0087,3.9348,3.891,3.8698,3.8066,3.7719,3.7618,0.0,0.0,0.0,0.0,0.0,0.0,0.0,0.0,0.0,0.0,0.0,0.0,0.0,0.0,0.0,0.0,0.0,0.0,0.0,0.0,0.0,0.0,0.0,0.0,0.0,0.0,0.0,0.0,0.0,0.0,0.0,0.0,0.0,0.0,0.0,0.0,0.0,0.0,0.0,0.0,0.0,3.5866,3.5975,0.0,0.0,0.0,0.0,0.0,0.0,0.0,0.0,0.0,0.0,0.0,0.0,0.0,0.0,3.6235,3.6695,3.692,3.692,3.7278,3.7445,3.7469,3.7634,3.7727,3.775,3.7877,0.0,3.6318,3.622,0.0,0.0,0.0,0.0,0.0,0.0,0.0,0.0,0.0,0.0,0.0,0.0,0.0,0.0,0.0,0.0,0.0,0.0,0.0,0.0,0.0,3.6837,3.7134,3.6837,3.7267,3.7681,3.8041,0.0,0.0,0.0,0.0,3.8746,3.8485,3.8841,3.9033,3.9033,3.9736,4.002,3.9935,3.924,3.8897,3.8947,3.828,3.8241,3.8622,3.8544,0.0,0.0,0.0,0.0,0.0,0.0,0.0,0.0,0.0,0.0,0.0,0.0,0.0,0.0,0.0,0.0,0.0,0.0,0.0,0.0,0.0,0.0,0.0,0.0,0.0,0.0,0.0,0.0,0.0,0.0,0.0,0.0,0.0,0.0,0.0,0.0,0.0,0.0,0.0,3.6333,3.6525,3.7001,3.6734,3.6449,0.0,0.0,0.0,0.0,0.0,0.0,0.0,0.0,0.0,3.6244,3.6321,3.6662,3.727,3.7526,3.7648,3.7648,3.7541,3.7532,3.7605,3.7619,3.7691,3.7831,3.8161,3.7946,3.7396,3.755,3.7594,3.756,0.0,0.0,0.0,0.0,0.0,0.0,0.0,0.0,0.0,0.0,0.0,0.0,0.0,0.0,0.0,0.0,0.0,0.0,3.636,3.6769,3.7074,3.7086,3.7057,3.7328,3.7987,3.7846,0.0,0.0,3.8547,3.8711,3.8587,3.8396,3.8642,3.9283,3.9962,4.0114,3.9779,3.9093,3.878,3.8802,3.8465,3.8592,3.9076,3.8964,3.9042,3.9192,0.0,0.0,0.0,0.0,0.0,0.0,0.0,0.0,0.0,0.0,0.0,0.0,0.0,0.0,0.0,0.0,0.0,0.0,0.0,0.0,0.0,0.0,0.0,0.0,0.0,0.0,0.0,0.0,0.0,0.0,0.0,0.0,0.0,0.0,0.0,0.0,0.0,3.71,3.728,3.7855,3.755,3.7245,0.0,0.0,0.0,0.0,0.0,0.0,3.7069,3.673,3.692,3.7828,3.7886,3.8229,3.9039,3.9039,3.9039,3.9039,3.8631,3.8471,3.8581,3.8539,3.8589,3.8757,3.9117,3.9286,3.9242,3.8746,3.855,3.8481,3.7974,3.7789,0.0,3.7111,3.6904,3.6904,0.0,0.0,0.0,0.0,0.0,0.0,0.0,0.0,0.0,0.0,0.0,3.7869,3.6384,3.7024,3.7203,3.6352,3.6662,3.7247,3.8058,3.7272,3.7319,3.852,3.8614,3.8253,3.7481,3.8185,3.8965,3.9749,3.9251,3.9283,3.9779,3.8997,3.8677,3.884,3.922,3.9159,3.8718,3.8712,3.9176,3.985,3.9817,0.0,0.0,0.0,0.0,0.0,0.0,0.0,0.0,0.0,0.0,0.0,0.0,0.0,0.0,0.0,0.0,0.0,0.0,0.0,0.0,0.0,0.0,0.0,0.0,0.0,0.0,0.0,0.0,0.0,0.0,0.0,0.0,0.0,0.0,0.0,0.0,0.0,0.0,3.7922,3.7898,0.0,0.0,0.0,0.0,3.6385,3.6332,3.6516,3.7069,3.7069,3.7953,3.9893,3.9927,4.0629,4.2049,4.2083,4.2083,4.2083,4.2057,4.2023,4.2057,4.2057,4.2023,4.2083,4.2215,4.2294,4.2056,3.9497,3.8414,3.8414,3.8515,3.8525,3.8525,3.8491,3.8456,3.8456,0.0,0.0,0.0,0.0,0.0,0.0,0.0,0.0,0.0,3.839,3.7833,3.7265,3.6723,3.6477,3.629,3.61,3.6101,3.6439,3.7143,3.7269,3.7543,3.8016,3.8744,3.9039,3.8903,3.9497,3.9773,3.9739,3.9874,3.9807,3.9535,3.9256,3.891,3.8523,3.8693,3.867,3.8557,3.9609,3.9956,3.9866,4.0307,4.0515,0.0,0.0,0.0,0.0,0.0,0.0,0.0,0.0,0.0,0.0,0.0,0.0,0.0,0.0,0.0,0.0,0.0,0.0,0.0,0.0,0.0,0.0,0.0,0.0,0.0,0.0,0.0,0.0,0.0,0.0,0.0,0.0,0.0,0.0,0.0,0.0,0.0,3.9242,3.9715,0.0,0.0,4.0169,4.0359,4.0167,4.0167,4.022,4.0438,4.0438,4.0785,4.1474,4.1534,4.1745,4.2286,4.2286,4.2523,4.3031,4.3031,4.3031,4.3031,4.3031,4.276,4.2286,4.2339,4.2366,4.2298,4.1427,4.0812,4.0456,4.0062,3.9604,3.9077,3.8608,3.8414,3.8334,0.0,0.0,0.0,0.0,0.0,0.0,0.0,0.0,3.9135,3.8947,3.7822,3.7027,3.6845,3.6133,3.5718,3.5878,3.5931,3.6255,3.698,3.7621,3.8047,3.8236,3.897,3.946,3.9625,3.995,3.995,3.9589,4.0163,4.0213,3.9738,3.9978,3.9828,3.9409,3.9409,3.9305,3.9154,4.0451,4.048,3.9747,4.0451,4.0748,4.0725,0.0,0.0,0.0,0.0,0.0,0.0,0.0,0.0,0.0,0.0,0.0,0.0,0.0,0.0,0.0,0.0,0.0,0.0,0.0,0.0,0.0,0.0,0.0,0.0,0.0,0.0,0.0,0.0,0.0,0.0,0.0,0.0,0.0,0.0,0.0,4.029,4.079,4.1271,4.1576,4.1576,4.2016,4.2388,4.2658,4.2658,4.2794,4.3031,4.3091,4.3166,4.3436,4.3436,4.3572,4.3809,4.3809,4.4045,4.4553,4.4553,4.4553,4.4553,4.4553,4.4282,4.3809,4.3809,4.3809,4.3836,4.3891,4.3593,4.2856,4.18,4.1003,4.0476,4.0011,3.9782,3.9734,0.0,0.0,0.0,0.0,0.0,0.0,0.0,3.9781,3.9468,3.8898,3.7998,3.7205,3.6784,3.6005,3.5617,3.5718,3.6217,3.6843,3.7673,3.8137,3.8691,3.9379,3.9373,3.9373,3.9373,3.9403,3.9439,3.9439,4.0098,4.0427,4.0457,4.1085,4.1422,4.1422,4.1422,4.1025,4.0464,4.1138,4.0668,3.9596,4.0328,4.0746,4.0922,0.0,0.0,0.0,0.0,0.0,0.0,0.0,0.0,0.0,0.0,0.0,0.0,0.0,0.0,0.0,0.0,0.0,0.0,0.0,0.0,0.0,0.0,0.0,0.0,0.0,0.0,0.0,0.0,0.0,0.0,0.0,0.0,0.0,4.2286,4.2286,4.2286,4.2286,4.232,4.2354,4.2354,4.2388,4.2726,4.3443,4.3511,4.3842,4.4649,4.4682,4.4993,4.5703,4.5771,4.6109,4.6819,4.6853,4.6887,4.6887,4.6887,4.6887,4.6853,4.6853,4.6819,4.6786,4.6786,4.6786,4.6786,4.6786,4.638,4.5563,4.353,4.2748,4.2714,4.268,4.268,4.268,0.0,0.0,0.0,0.0,0.0,0.0,0.0,3.9375,3.9109,3.9408,3.825,3.7383,3.7354,3.7064,3.6704,3.634,3.681,3.7469,3.8162,3.8337,3.8691,3.9379,3.9373,3.9373,3.9373,3.9888,4.0127,4.0127,4.0786,4.1115,4.1115,4.1294,4.1422,4.1422,4.1422,4.1294,4.1153,4.131,4.0928,4.0222,4.096,4.1578,4.2057,0.0,0.0,0.0,0.0,0.0,0.0,0.0,0.0,0.0,0.0,0.0,0.0,0.0,0.0,0.0,0.0,0.0,0.0,0.0,0.0,0.0,0.0,0.0,0.0,0.0,0.0,0.0,0.0,0.0,0.0,0.0,0.0,4.3599,4.2455,4.2286,4.2286,4.2286,4.3295,4.3972,4.3972,4.4953,4.5635,4.5838,4.5872,4.5974,4.6177,4.6177,4.6278,4.6481,4.7022,4.7365,4.7597,4.8139,4.8646,4.9187,4.9187,4.8917,4.8409,4.8409,4.78,4.6786,4.6786,4.6786,4.6786,4.6786,4.6684,4.6341,4.4754,4.3763,4.3139,4.2736,4.2524,4.2524,0.0,0.0,0.0,0.0,0.0,0.0,0.0,3.9487,3.9269,3.9494,3.8339,3.7599,3.7884,3.7404,3.6968,3.687,3.7464,3.7973,3.8362,3.8661,3.899,3.9409,3.9373,3.9523,3.9828,4.0217,4.0546,4.0816,4.1512,4.1841,4.1841,4.2073,4.2192,4.2192,4.2192,4.2043,4.1841,4.2153,4.1873,4.1286,4.2092,4.227,4.2173,4.2282,4.263,4.3016,4.2588,4.2513,4.2627,4.2655,0.0,0.0,0.0,0.0,0.0,0.0,0.0,0.0,0.0,0.0,0.0,0.0,0.0,0.0,0.0,0.0,0.0,0.0,0.0,0.0,0.0,0.0,0.0,0.0,4.4884,4.4658,4.4086,4.3771,4.3698,4.4002,4.484,4.5443,4.55,4.6278,4.7056,4.7665,4.7699,4.8003,4.8612,4.8646,4.8646,4.8646,4.9086,4.9258,4.9258,4.9729,5.0135,5.0574,5.0574,5.0338,4.9932,4.9932,4.9458,0.0,4.8646,4.8646,4.8612,4.8308,4.8173,0.0,0.0,0.0,0.0,0.0,4.4292,4.4258,0.0,0.0,0.0,0.0,0.0,0.0,0.0,3.9807,3.9755,3.9388,3.8423,3.7964,3.8547,3.7491,3.7004,3.7635,3.8192,3.8512,3.8512,3.908,3.9373,3.9373,3.9463,3.9798,4.0397,4.0546,4.0905,4.1542,4.2201,4.25,4.253,4.306,4.329,4.329,4.329,4.3,4.2539,4.3198,4.3107,4.2602,4.3388,4.285,4.1783,4.3088,4.3575,4.3539,4.3747,4.3747,4.3658,4.3952,0.0,0.0,0.0,0.0,0.0,0.0,0.0,0.0,0.0,0.0,0.0,0.0,0.0,0.0,0.0,0.0,0.0,0.0,0.0,0.0,0.0,0.0,0.0,0.0,4.5395,4.5607,4.641,4.6096,4.5946,4.6447,4.6649,4.6874,4.7022,4.7192,4.7804,4.9154,4.9224,4.9799,5.1117,0.0,0.0,0.0,0.0,5.132,5.132,5.1388,5.1455,5.1455,5.1455,5.1388,5.132,5.132,5.1285,5.1185,5.1185,5.1185,5.1151,5.0473,5.0202,4.9999,4.78,4.6853,4.6786,4.6786,4.6786,0.0,0.0,0.0,0.0,0.0,0.0,0.0,0.0,3.9884,3.9858,3.9781,3.9061,3.8884,3.9682,3.8809,3.8475,3.9188,3.9204,3.923,3.923,3.9313,3.9373,3.9373,3.9918,4.0277,4.0397,4.1482,4.2081,4.2201,4.2821,4.315,4.315,4.323,4.329,4.329,4.329,4.323,4.315,4.3277,4.3312,4.3347,4.4078,4.3576,4.238,4.3267,4.3261,4.2865,4.3479,4.3628,4.3628,4.3687,4.3687,4.3658,4.3658,4.3809,0.0,0.0,0.0,0.0,0.0,0.0,0.0,0.0,0.0,0.0,0.0,0.0,0.0,0.0,0.0,0.0,0.0,0.0,0.0,4.6106,4.6106,4.6544,4.7881,4.7979,4.7538,4.6585,4.7713,4.8548,4.8578,4.9535,5.0379,5.0745,5.0683,5.0784,5.1185,5.1185,0.0,5.1185,5.1792,5.2097,5.2097,5.2739,5.3078,5.3078,0.0,0.0,5.2097,5.2097,5.1758,5.1185,5.1185,5.1185,5.1217,5.1048,5.1014,5.0777,4.8578,4.7327,4.6786,4.6786,4.6786,4.6786,0.0,0.0,0.0,0.0,0.0,0.0,0.0,3.9961,3.9935,3.9737,3.9466,3.9547,4.0177,3.9534,3.9316,4.0062,3.9667,3.9373,3.9373,3.9373,3.9373,3.9373,4.0038,4.0546,4.0876,4.1901,4.256,4.2851,4.314,4.329,4.329,4.329,4.329,4.3329,4.3732,4.3654,4.3369,4.4555,4.4408,4.3526,4.5088,4.4386,4.2597,4.3719,4.3713,4.3134,4.3088,4.3113,4.3113,4.3113,4.3325,4.3598,4.3598,4.3923,4.4218,0.0,0.0,0.0,0.0,0.0,0.0,0.0,0.0,0.0,0.0,0.0,0.0,0.0,0.0,4.6588,0.0,0.0,4.6729,4.7189,4.7193,4.7663,4.916,4.9392,4.9256,4.8679,4.9441,4.9976,4.988,5.0584,5.1256,5.1628,5.1661,5.1863,5.2334,5.2367,5.2367,5.2367,5.2706,5.2909,5.2909,5.3315,5.3518,5.3518,5.3518,5.3281,5.2909,5.2909,5.2706,5.2367,5.2367,5.2367,5.2334,5.1928,5.1555,5.1083,4.9968,4.912,4.8409,4.8037,4.7902,4.7834,0.0,0.0,0.0,0.0,0.0,0.0,0.0,0.0,3.9935,3.9633,3.9737,4.0066,4.0616,4.0135,3.9977,4.0451,4.0091,3.9666,3.9409,3.9517,3.9553,3.9409,4.0038,4.0696,4.1422,4.2081,4.2671,4.329,4.329,4.329,4.329,4.329,4.329,4.3329,4.3966,4.4004,4.3654,4.5556,4.5447,4.4128,4.606,4.5461,4.3593,4.4691,4.4553,4.3622,4.3169,4.3101,4.3226,4.3226,4.36,4.4029,4.4029,4.4456,4.4764,4.4009,4.4656,0.0,0.0,0.0,0.0,0.0,0.0,0.0,0.0,0.0,4.6588,4.6462,4.6897,4.7132,4.6699,4.7003,4.7602,4.8463,4.8497,4.8895,5.0254,5.0557,5.0726,5.1028,5.1161,5.1127,5.0928,5.1294,5.173,5.2236,5.2337,5.2707,5.3382,5.3484,5.3518,5.3518,5.3518,5.3518,5.3518,5.3518,5.3518,5.3518,5.3518,5.3518,5.3518,5.3518,5.3518,5.3518,5.3518,5.3518,5.345,5.2807,5.2198,5.1657,5.1488,5.1048,5.0405,4.9526,4.9221,4.912,0.0,0.0,0.0,0.0,0.0,0.0,0.0,0.0,0.0,3.9833,3.996,4.0497,4.1627,4.1214,4.0735,4.0519,4.0959,4.0721,3.9481,4.0021,4.0091,3.9409,4.0038,4.0696,4.1422,4.2081,4.2671,4.329,4.329,4.329,4.329,4.329,4.329,4.329,4.3409,4.3771,4.4358,4.4662,4.541,4.6413,4.6692,4.7035,4.7308,4.6812,4.5375,4.369,4.42,4.4852,4.5456,4.5456,4.5487,4.5549,4.5549,4.5616,4.5524,4.4724,4.4593,4.4721,4.4652,4.5637,4.6711,4.6747,4.7272,4.7635,0.0,0.0,4.7866,4.793,4.7932,4.8067,4.8663,4.8796,4.9094,4.9856,4.9955,5.0254,5.1223,5.1357,5.1658,5.2324,5.2134,5.19,5.1698,5.2301,5.2737,5.2804,5.2804,5.2941,5.3213,5.3382,5.3518,5.3518,5.3518,5.3518,5.3518,5.3518,5.3518,5.3518,5.3518,5.3518,5.3518,5.3518,5.3518,5.3518,5.3518,5.3518,5.3484,5.3416,5.3315,5.3179,5.2469,5.2131,5.1894,5.0473,4.9965,4.9864,0.0,0.0,0.0,0.0,0.0,0.0,0.0,0.0,0.0,0.0,4.0635,4.1361,4.186,4.1993,4.1789,4.1129,4.1327,4.126,4.0684,4.0891,4.0925,4.065,4.0878,4.1115,4.1389,4.207,4.253,4.2761,4.315,4.329,4.329,4.329,4.3566,4.4043,4.4472,4.4887,4.5258,4.6163,4.641,4.6234,4.7134,4.7168,4.6657,4.6776,4.628,4.5346,4.4377,4.4226,0.0,4.4525,4.4789,4.5177,4.5656,4.5762,4.557,4.4802,4.4883,4.5228,4.5231,4.5978,4.6831,4.6844,4.7075,4.7372,4.7603,4.7867,4.8133,4.8597,4.8663,4.8862,4.9624,4.9756,4.9988,0.0,5.0817,5.1116,5.1916,5.2016,5.2115,5.2447,5.2427,5.233,5.2156,5.2597,5.2834,5.2729,5.2938,5.311,5.3179,5.3382,5.3518,5.3518,5.3518,5.3518,5.3518,5.3518,5.3518,5.3518,5.3518,5.3518,5.3518,5.3518,5.3518,5.3518,5.3518,5.3518,5.3518,5.3518,5.3518,5.3484,5.3145,5.301,5.2807,5.1319,5.0744,5.0642,0.0,0.0,0.0,0.0,0.0,0.0,0.0,0.0,0.0,0.0,0.0,4.211,4.2512,4.2874,4.2771,4.1981,4.2078,4.2013,4.1657,4.1787,4.1787,4.1559,4.1463,4.1527,4.1713,4.1973,4.2296,4.2689,4.2938,4.311,4.329,4.329,4.3732,4.451,4.511,4.5624,4.6092,4.7202,4.7168,4.641,4.7538,4.7303,4.6375,4.6931,4.7101,4.6903,4.512,4.4493,4.4493,4.4493,4.4665,4.5039,4.5603,4.573,4.5539,4.4795,4.4924,4.5369,4.5369,4.606,4.6828,4.6828,4.6965,4.7336,4.8101,4.8299,4.8531,4.926,4.9425,4.9624,5.0386,5.0518,5.075,5.1481,5.1614,5.1812,5.2343,5.2409,5.2409,5.2409,5.248,5.2516,5.2409,5.2624,5.2764,5.2589,5.2903,5.3144,5.3179,5.3382,5.3518,5.3518,5.3518,5.3518,5.3518,5.3518,5.3518,5.3518,5.3518,5.3518,5.3518,5.3518,5.3518,5.3518,5.3518,5.3518,5.3518,5.3518,5.3518,5.3518,5.3518,5.3518,5.3382,5.2266,5.1691,5.142,0.0,0.0,0.0,0.0,0.0,0.0,0.0,0.0,0.0,0.0,0.0,0.0,0.0,4.4006,4.3625,4.3015,4.3505,4.3295,4.2078,4.2458,4.2458,4.1723,4.1558,4.1806,4.2435,4.1779,4.2068,4.3383,4.2727,4.2731,4.329,4.329,4.3732,4.451,4.451,4.5374,4.6793,4.6828,4.727,4.7935,4.7968,4.7968,4.7935,4.7968,4.7968,4.7836,4.7001,4.6696,4.6696,4.6696,4.624,4.567,4.5706,4.567,4.5556,4.4743,4.4548,4.4548,4.4548,4.5629,4.6828,4.6828,4.7371,4.8167,4.8895,4.9094,4.9293,5.0021,5.0187,5.0386,5.1149,5.1282,5.1514,5.2277,5.2376,5.2376,5.2409,5.2409,5.2409,5.2409,5.2409,5.2409,0.0,5.2551,5.2589,5.2589,5.2799,5.3007,5.3179,5.3382,5.3518,5.3518,5.3518,5.3518,5.3518,5.3518,5.3518,5.3518,5.3518,5.3518,5.3518,5.3518,5.3518,5.3518,5.3518,5.3518,5.3518,5.3518,5.3518,5.3518,5.3518,5.3518,5.3484,5.345,5.2942,5.2164,0.0,0.0,0.0,0.0,0.0,0.0,0.0,0.0,0.0,0.0,0.0,0.0,0.0,0.0,0.0,0.0,4.3923,4.3805,4.3295,4.3535,4.3535,4.3171,4.2647,4.2461,4.2686,4.2317,4.2379,4.2813,4.3505,4.3987,4.4167,4.4105,4.451,4.5295,4.5295,4.5845,4.6862,4.7371,4.7737,4.8001,4.8001,4.8001,4.8001,4.8001,4.8001,4.7968,0.0,4.727,4.6622,4.5629,4.5447,4.5697,4.5697,4.5332,4.4737,4.3927,4.4082,4.4358,4.3849,4.4472,4.5536,4.6557,4.7009,4.7629,4.9419,4.9856,5.0055,5.0783,5.0916,5.1148,5.1912,5.2045,5.2111,5.2376,5.2409,5.2409,5.2409,5.2409,5.2409,5.2409,5.2409,0.0,0.0,0.0,0.0,5.248,5.2589,5.2799,5.2972,5.3179,5.3348,5.3518,5.3518,5.3518,5.3518,5.3518,5.3518,5.3518,5.3518,5.3518,5.3518,5.3518,5.3518,5.3518,5.3518,5.3518,5.3518,5.3518,5.3518,5.3518,5.3518,5.3518,5.3518,5.3518,5.3348,5.2976,0.0,0.0,0.0,0.0,0.0,0.0,0.0,0.0,0.0,0.0,0.0,0.0,0.0,0.0,0.0,0.0,0.0,4.4155,4.416,4.4155,4.4097,4.3985,4.3476,4.3171,4.3111,4.2493,4.2509,4.3253,4.3626,4.4243,4.4997,4.4929,4.5369,4.6092,4.6092,4.6515,4.727,4.777,4.8001,4.8001,4.8001,4.8001,4.8001,4.8001,4.8001,0.0,4.7671,4.7404,4.6999,4.5447,4.5258,4.5588,4.5036,4.4699,4.432,4.3566,4.4243,4.5067,4.3956,4.488,4.6307,4.6966,4.7563,4.8476,5.0212,5.0585,5.0783,5.1547,5.1713,5.1846,5.231,5.2409,5.2409,5.2409,5.2409,5.2409,5.2409,5.2409,5.2409,5.2409,5.2409,5.2409,0.0,0.0,0.0,5.248,5.2553,5.2694,5.2868,5.3076,5.3247,5.3382,5.345,5.3518,5.3518,5.3518,5.3518,5.3518,5.3518,5.3518,5.3518,5.3518,5.3518,5.3518,5.3518,5.3518,5.3518,5.3518,5.3518,5.3518,5.3518,5.3518,5.3518,5.3518,5.3518,5.345,0.0,0.0,0.0,0.0,0.0,0.0,0.0,0.0,0.0,0.0,0.0,0.0,0.0,0.0,0.0,0.0,0.0,0.0,4.4587,4.4412,4.427,4.4097,4.3985,4.3809,4.3628,4.2301,4.2587,4.4561,4.3273,4.3742,4.571,4.5737,4.6127,4.6828,4.6828,4.7203,4.7935,4.7968,4.8001,4.8001,4.8001,4.8001,4.8001,4.8001,4.8001,4.7902,4.7135,4.7337,4.7737,4.6198,4.5697,4.5442,4.3888,4.3966,4.4396,4.3576,4.4999,4.6429,4.4825,4.6665,4.8851,4.8036,4.903,5.0418,5.1181,5.1382,5.1547,5.2277,5.2409,5.2409,0.0,0.0,5.2409,5.2409,5.2409,5.2409,5.2409,5.2409,5.2409,0.0,0.0,0.0,0.0,0.0,0.0,5.2655,0.0,5.2659,5.2868,5.3109,5.3246,5.328,5.3484,5.3619,5.3619,5.3585,5.3551,5.3518,5.3518,5.3518,5.3518,5.3518,5.3518,5.3518,5.3518,5.3518,5.3518,5.3518,5.3518,5.3518,5.3518,5.3518,5.3518,5.3518,5.3518,5.3518,0.0,0.0,0.0,0.0,0.0,0.0,0.0,0.0,0.0,0.0,0.0,0.0,0.0,0.0,0.0,0.0,0.0,0.0,4.4384,4.4321,4.427,4.4097,4.3985,4.3868,4.3839,4.3325,4.3307,4.3822,4.4623,4.5245,4.5799,4.6308,4.662,4.6828,4.6828,4.6931,4.7168,4.7737,4.8001,4.8001,4.8001,4.8001,4.8001,4.8001,4.8001,4.7968,4.777,4.7836,4.7737,4.6198,4.5697,4.5624,4.5221,4.5221,4.5258,4.4434,4.5416,4.6592,4.5573,4.6743,4.84,4.9291,4.9815,5.0478,5.1803,5.2144,5.2142,5.234,5.2409,5.2409,0.0,0.0,0.0,5.2409,5.2409,0.0,5.2409,5.2409,0.0,5.2409,0.0,5.2409,5.2409,5.2409,0.0,0.0,5.2743,5.2587,5.2868,5.3475,5.3917,5.4227,5.4836,5.5141,5.5141,5.46,5.4025,5.3518,5.3518,5.3518,5.3518,5.3518,5.3518,5.3518,5.3518,5.3518,5.3518,5.3518,5.3518,5.3518,5.3518,5.3518,5.3518,5.3518,5.3518,5.3518,0.0,0.0,0.0,0.0,0.0,0.0,0.0,0.0,0.0,0.0,0.0,0.0,0.0,0.0,0.0,0.0,0.0,0.0,0.0,4.444,4.4327,4.4097,4.4068,4.3981,4.3747,4.3416,4.3517,4.4092,4.4939,4.5663,4.6311,4.698,4.7337,4.7337,4.7337,4.7337,4.7371,4.7803,4.8001,0.0,0.0,4.8001,4.8001,4.8001,4.8001,4.8001,4.8001,4.8001,4.7869,4.6997,4.6269,4.5769,4.6092,4.6198,4.6056,4.5258,4.6348,4.7605,4.6749,4.7951,4.9576,5.0362,5.0851,5.1346,5.2203,5.2409,5.2409,5.2409,5.2409,0.0,5.2409,5.2409,0.0,0.0,0.0,0.0,5.2409,5.2409,5.2409,0.0,5.2409,0.0,5.2409,5.2672,5.3003,0.0,5.3108,5.3149,5.3556,5.4242,5.469,5.4829,5.5375,5.5681,5.5681,5.531,5.4871,5.4465,5.4126,5.3991,5.3957,5.3653,5.3518,5.3518,0.0,5.3518,5.3518,5.3518,5.3518,5.3518,5.3518,5.3518,5.3518,5.3518,5.3518,5.3518,0.0,0.0,0.0,0.0,0.0,0.0,0.0,0.0,0.0,0.0,0.0,0.0,0.0,0.0,0.0,0.0,0.0,0.0,0.0,0.0,4.4412,4.4126,4.4241,4.4064,4.3687,4.3232,4.3497,4.4586,4.4719,4.5472,4.6775,4.7504,4.7901,4.8001,4.8001,4.8001,4.8001,4.8001,4.8001,4.8001,4.8001,4.8001,4.8001,0.0,4.8001,4.8001,4.8001,4.8001,4.8001,4.8001,4.71,4.6127,4.6759,4.6965,4.6828,4.6187,4.7543,4.9087,4.8248,4.9685,5.1404,5.1308,5.1835,5.2409,5.2409,5.2409,5.2409,5.2409,0.0,5.2409,5.2409,5.2409,5.2409,5.2409,0.0,5.2409,5.2409,5.2409,5.2409,5.2409,5.2409,5.2442,5.2506,5.3069,5.35,5.3699,5.3881,5.415,5.4568,5.5144,5.5497,5.5453,5.581,5.5953,5.5852,5.5852,5.5818,5.5681,5.504,5.4735,5.4702,5.3991,5.3653,5.3653,0.0,0.0,5.3518,5.3518,5.3518,5.3518,5.3518,5.3518,5.3518,5.3518,5.3518,5.3518,0.0,0.0,0.0,0.0,0.0,0.0,0.0,0.0,0.0,0.0,4.2286,4.2888,0.0,0.0,0.0,0.0,0.0,0.0,0.0,0.0,0.0,4.4298,4.4184,4.4097,4.401,4.3889,4.3931,4.4035,4.4616,4.5251,4.6013,4.6742,4.7404,4.8001,4.8001,4.8001,4.8001,4.8001,4.8001,4.8001,4.8001,4.8001,4.8001,4.8001,0.0,0.0,4.8001,4.8001,4.8001,4.8001,4.7836,4.7638,4.7737,4.777,4.7769,4.7575,4.8674,4.9948,4.9754,5.0903,5.2208,5.2197,5.2302,5.2409,5.2409,5.2409,0.0,0.0,5.2409,5.2409,5.2409,5.2409,5.2409,5.2409,5.2409,5.2409,5.2409,5.2409,5.2409,0.0,0.0,0.0,0.0,0.0,0.0,0.0,0.0,0.0,5.5004,5.5682,5.6469,5.7367,5.7473,5.7239,5.663,5.663,5.6325,5.5681,5.5581,5.5513,5.548,5.4735,5.4397,5.4363,0.0,0.0,5.3518,5.3518,5.3518,5.3518,5.3518,5.3518,5.3518,5.3518,5.3518,5.3518,0.0,0.0,0.0,0.0,0.0,0.0,0.0,4.0451,4.1068,4.2151,4.2625,4.3301,4.4479,4.4615,4.4615,0.0,0.0,0.0,0.0,0.0,0.0,0.0,0.0,0.0,0.0,4.4184,0.0,0.0,0.0,0.0,0.0,0.0,0.0,0.0,0.0,4.8195,4.8098,4.8098,4.8066,4.8001,4.8001,4.8001,0.0,0.0,0.0,0.0,0.0,4.8001,4.8001,4.8001,4.8001,4.8001,4.8001,4.8001,4.8068,4.8425,4.9319,5.0284,5.0629,5.1529,5.2409,5.2409,5.2409,5.2409,5.2409,0.0,0.0,0.0,5.2409,5.2409,5.2409,5.2409,0.0,5.2409,5.2409,5.2409,5.2409,5.2409,0.0,5.2409,0.0,0.0,0.0,0.0,0.0,0.0,0.0,0.0,5.6103,5.6623,5.7217,5.7881,5.7881,5.7712,5.7374,5.7374,5.7205,5.6833,5.6461,5.6292,5.6258,5.5513,5.4972,5.4566,0.0,0.0,5.3518,5.3518,5.3518,5.3518,5.3518,5.3518,5.3518,5.3518,5.3518,5.3518,0.0,0.0,0.0,0.0,0.0,0.0,0.0,4.1068,4.1711,4.2455,4.3064,4.3707,4.4513,4.4615,4.4615,0.0,0.0,0.0,0.0,0.0,0.0,0.0,0.0,0.0,0.0,0.0,0.0,0.0,0.0,0.0,0.0,0.0,0.0,0.0,0.0,0.0,0.0,4.8195,4.8098,0.0,0.0,0.0,0.0,0.0,0.0,0.0,0.0,4.8001,4.8001,4.8001,4.8001,4.8001,4.8001,4.8001,4.8133,4.8895,4.9624,5.0386,5.1116,5.1846,5.2409,5.2409,5.2409,5.2409,5.2409,5.2409,0.0,5.2409,5.2409,5.2409,5.2409,5.2409,5.2409,0.0,5.2409,5.2409,5.2409,5.2409,5.2409,0.0,0.0,0.0,0.0,0.0,0.0,0.0,0.0,0.0,0.0,5.7439,5.7735,5.7881,5.7881,5.7881,5.7881,5.7881,5.7881,5.7881,5.7306,5.7036,5.7002,5.6292,5.5615,5.504,0.0,0.0,0.0,5.3585,5.3518,5.3518,5.3518,5.3518,5.3518,5.3518,5.3518,5.3518,0.0,0.0,0.0,0.0,0.0,0.0,0.0,4.2151,4.2455,4.3172,4.3341,4.3707,4.4513,4.4615,4.4615,0.0,0.0,0.0,0.0,0.0,0.0,0.0,0.0,0.0,0.0,0.0,0.0,0.0,0.0,0.0,0.0,0.0,0.0,0.0,0.0,0.0,0.0,0.0,0.0,0.0,0.0,0.0,0.0,0.0,0.0,0.0,0.0,0.0,4.8001,4.8001,0.0,4.8001,4.8001,4.8001,4.8133,4.8895,0.0,0.0,5.1116,5.1846,5.2409,5.2409,5.2409,5.2409,5.2409,0.0,5.2409,5.2409,5.2409,5.2409,5.2409,5.2409,5.2409,5.2409,5.2409,5.2409,5.2409,5.2409,5.2409,5.2409,0.0,0.0,0.0,0.0,0.0,0.0,0.0,0.0,0.0,5.7662,5.7881,5.7881,5.7881,5.7881,5.7881,5.7881,5.7881,5.7881,5.7814,5.778,5.7746,5.7036,5.6664,5.6528,0.0,0.0,0.0,5.3788,5.3518,5.3518,5.3518,5.3518,5.3518,5.3518,5.3518,5.3518,0.0,0.0,0.0,0.0,0.0,0.0,4.2286,4.2692,4.3064,4.3341,4.3809,4.4215,4.4581,4.4615,4.4615,4.4615,0.0,0.0,0.0,0.0,0.0,0.0,0.0,0.0,0.0,0.0,0.0,0.0,0.0,0.0,0.0,0.0,0.0,0.0,0.0,0.0,0.0,0.0,0.0,0.0,0.0,0.0,0.0,0.0,0.0,0.0,0.0,0.0,0.0,0.0,0.0,0.0,4.8001,4.8001,4.8133,0.0,4.9624,5.0386,5.1116,5.1846,5.2409,5.2409,5.2409,5.2409,5.2409,0.0,5.2409,5.2409,5.2409,5.2409,5.2409,5.2409,5.2409,5.2409,5.2409,5.2409,5.2409,5.2409,5.2409,0.0,0.0,0.0,0.0,0.0,0.0,0.0,0.0,0.0,0.0,5.7735,5.7881,5.7881,5.7881,5.7881,5.7881,5.7881,5.7881,5.7881,5.7881,5.7881,5.7881,5.7577,5.7205,5.6765,0.0,0.0,0.0,5.4262,5.389,5.3518,5.3518,5.3518,5.3518,5.3518,5.3518,5.3518,0.0,0.0,0.0,0.0,0.0,4.299,4.299,4.3436,4.3775,4.3775,4.4248,4.4615,4.4615,4.4615,4.4615,4.4615,4.4615,0.0,0.0,0.0,0.0,0.0,0.0,0.0,0.0,0.0,0.0,0.0,0.0,0.0,0.0,0.0,0.0,0.0,0.0,0.0,0.0,0.0,0.0,0.0,0.0,0.0,0.0,0.0,0.0,0.0,0.0,0.0,0.0,0.0,0.0,4.8001,4.8001,4.8001,4.8133,4.8895,4.9624,5.0386,5.1116,5.1846,5.2409,5.2409,5.2409,5.2409,0.0,0.0,5.2409,5.2409,5.2409,5.2409,5.2409,5.2409,5.2409,5.2409,5.2409,5.2409,5.2409,5.2409,0.0,0.0,0.0,0.0,0.0,0.0,0.0,0.0,0.0,0.0,0.0,5.7772,5.7881,5.7881,5.7881,5.7881,5.7881,5.7881,5.7881,5.7881,5.7881,5.7881,5.7881,5.7881,5.7611,0.0,0.0,0.0,0.0,5.4769,5.4296,5.3788,5.3585,5.3518,5.3518,5.3518,5.3518,5.3518,0.0,0.0,0.0,0.0,0.0,0.0,4.4581,4.4581,4.4581,4.4581,4.4615,4.4615,4.4615,4.4615,4.4615,4.4615,4.4615,0.0,0.0,0.0,0.0,0.0,0.0,0.0,0.0,0.0,4.4615,4.4615,4.4615,4.4959,0.0,0.0,0.0,0.0,0.0,0.0,0.0,0.0,0.0,0.0,0.0,0.0,0.0,0.0,0.0,0.0,0.0,0.0,0.0,0.0,0.0,0.0,0.0,4.8001,4.8133,4.8895,4.9624,5.0386,5.1116,5.1846,5.2409,5.2409,5.2409,5.2409,0.0,0.0,5.2409,5.2409,5.2409,5.2409,5.2409,5.2409,5.2409,5.2409,5.2409,5.2409,5.2409,5.2409,0.0,0.0,0.0,0.0,0.0,0.0,0.0,0.0,0.0,0.0,0.0,0.0,5.7881,5.7881,5.7881,5.7881,5.7881,5.7881,5.7881,5.7881,5.7881,5.7881,5.7881,5.7881,0.0,0.0,0.0,0.0,0.0,5.5209,5.46,5.4499,5.3788,5.3518,5.3518,5.3518,5.3518,5.3518,0.0,0.0,0.0,0.0,0.0,0.0,0.0,4.5042,4.4858,4.5528,4.5042,4.472,4.5035,4.4769,4.4615,4.4615,4.4615,0.0,0.0,0.0,0.0,0.0,0.0,0.0,0.0,0.0,4.4615,4.4615,4.4615,4.4959,4.5737,4.6447,0.0,0.0,0.0,0.0,0.0,0.0,0.0,0.0,0.0,0.0,0.0,0.0,0.0,0.0,0.0,0.0,0.0,0.0,0.0,0.0,0.0,0.0,0.0,4.9491,5.0021,5.0386,5.1116,5.1846,5.2409,5.2409,5.2409,5.2409,5.2409,5.2409,5.2409,5.2409,5.2409,5.2409,5.2409,5.2409,5.2409,5.2409,5.2409,5.2409,0.0,0.0,0.0,0.0,0.0,0.0,0.0,0.0,0.0,0.0,0.0,0.0,0.0,0.0,5.7881,5.7881,5.7881,5.7881,5.7881,5.7881,5.7881,5.7881,5.7881,5.7881,5.7881,5.7881,0.0,0.0,0.0,0.0,0.0,5.6292,5.5513,5.4566,5.4329,5.3923,5.3518,5.3518,5.3518,5.3518,0.0,0.0,0.0,0.0,0.0,0.0,0.0,4.5275,4.5042,4.5477,4.4988,4.472,4.5008,4.4803,4.4665,4.4852,4.4692,0.0,0.0,0.0,0.0,0.0,0.0,0.0,0.0,4.4615,4.4615,4.4615,4.4615,4.4852,4.5297,4.6312,4.7056,4.753,0.0,0.0,0.0,0.0,0.0,0.0,0.0,0.0,4.8001,0.0,0.0,0.0,0.0,0.0,0.0,0.0,0.0,0.0,0.0,0.0,0.0,0.0,5.022,5.0419,5.1413,5.2078,5.2409,5.2409,5.2409,0.0,0.0,5.2409,5.2409,5.2409,5.2409,5.2409,5.2409,5.2409,5.2409,5.2409,5.2409,0.0,0.0,0.0,0.0,0.0,0.0,0.0,0.0,0.0,0.0,0.0,0.0,0.0,0.0,0.0,5.7772,5.7772,5.7845,5.7881,5.7881,5.7881,5.7881,5.7881,5.7881,5.7881,5.7881,0.0,0.0,0.0,0.0,0.0,0.0,5.69,5.6089,5.5006,5.4702,5.416,5.3518,5.3518,5.3518,5.3518,0.0,0.0,0.0,0.0,0.0,0.0,0.0,4.5372,4.5161,4.4831,4.4699,4.4615,4.4637,4.4637,4.4824,4.5267,0.0,0.0,0.0,0.0,0.0,0.0,0.0,0.0,0.0,4.4615,4.4615,4.4615,4.4615,4.4649,4.4716,4.6109,4.6819,4.6921,4.8376,0.0,0.0,0.0,0.0,0.0,0.0,0.0,0.0,0.0,0.0,0.0,0.0,0.0,0.0,0.0,0.0,0.0,0.0,0.0,0.0,0.0,0.0,0.0,0.0,5.2409,5.2409,5.2409,5.2409,5.2409,5.2409,5.2409,0.0,5.2409,5.2409,5.2409,5.2409,5.2409,5.2409,5.2409,5.2409,0.0,0.0,0.0,0.0,0.0,0.0,0.0,0.0,0.0,0.0,0.0,0.0,0.0,0.0,0.0,0.0,5.7588,5.7808,5.7881,5.7881,5.7881,5.7881,5.7881,5.7881,5.7881,5.7881,0.0,0.0,0.0,0.0,0.0,0.0,5.7171,5.6461,5.5681,5.4972,5.4228,5.3585,5.3518,5.3518,5.3518,0.0,0.0,0.0,0.0,0.0,0.0,0.0,0.0,0.0,0.0,4.5328,4.4748,4.5115,4.5142,4.5188,0.0,0.0,0.0,0.0,0.0,0.0,0.0,0.0,0.0,4.4615,4.4615,4.4615,4.4615,4.4615,4.4886,4.5466,4.638,4.709,4.7699,4.8612,4.8987,0.0,0.0,0.0,0.0,0.0,0.0,0.0,0.0,0.0,0.0,4.8001,4.8001,0.0,0.0,0.0,0.0,0.0,0.0,0.0,0.0,5.022,5.0518,5.1976,0.0,5.2409,5.2409,5.2409,5.2409,0.0,5.2409,5.2409,5.2409,5.2409,5.2409,5.2409,5.2409,5.2409,5.2409,0.0,0.0,0.0,0.0,0.0,0.0,0.0,0.0,0.0,0.0,0.0,0.0,0.0,0.0,0.0,0.0,0.0,5.7588,5.7808,5.7881,5.7881,5.7881,5.7881,5.7881,5.7881,5.7881,5.7881,0.0,0.0,0.0,0.0,0.0,0.0,5.7712,5.7205,5.6461,5.575,5.5006,5.4262,5.3721,5.3518,5.3518,0.0,0.0,0.0,0.0,0.0,0.0,0.0,0.0,0.0,0.0,0.0,0.0,0.0,0.0,0.0,0.0,0.0,0.0,0.0,0.0,0.0,0.0,0.0,4.4615,4.4615,4.4615,4.4615,4.4615,4.4925,4.5297,4.5737,4.6819,4.753,4.7906,4.868,4.9018,0.0,0.0,0.0,0.0,4.8292,0.0,0.0,0.0,0.0,0.0,4.8001,4.8001,0.0,4.8001,4.8001,4.8001,0.0,0.0,0.0,0.0,5.022,5.0518,5.1976,5.2409,5.2409,5.2409,5.2409,5.2409,5.2409,5.2409,5.2409,5.2409,5.2409,5.2409,5.2409,5.2409,5.2409,0.0,5.2409,0.0,0.0,0.0,0.0,0.0,0.0,0.0,0.0,0.0,0.0,0.0,0.0,0.0,0.0,0.0,0.0,0.0,5.7662,5.7808,5.7881,5.7881,5.7881,5.7881,5.7881,5.7881,5.7881,0.0,0.0,0.0,0.0,0.0,5.7881,5.7881,5.7476,5.6731,5.6021,5.5243,5.4499,5.3788,5.3518,5.3518,0.0,0.0,0.0,0.0,0.0,0.0,0.0,0.0,0.0,0.0,0.0,0.0,0.0,0.0,0.0,0.0,0.0,0.0,0.0,0.0,0.0,0.0,0.0,4.4665,4.4615,4.4615,4.4682,4.4784,4.5399,4.5838,4.6075,4.7327,4.7939,4.8075,4.8714,4.9018,0.0,0.0,0.0,0.0,4.8292,0.0,0.0,0.0,0.0,0.0,0.0,0.0,0.0,4.8001,4.8001,4.8001,4.8001,0.0,0.0,0.0,0.0,0.0,5.1976,5.2409,5.2409,5.2409,5.2409,5.2409,5.2409,5.2409,5.2409,5.2409,5.2409,5.2409,5.2409,5.2409,0.0,0.0,0.0,0.0,0.0,0.0,0.0,0.0,0.0,0.0,0.0,0.0,0.0,0.0,0.0,0.0,0.0,0.0,0.0,0.0,5.7476,5.7698,5.7845,5.7881,5.7881,5.7881,5.7881,5.7881,5.7881,5.7881,0.0,0.0,0.0,0.0,5.7881,5.7881,5.7509,5.69,5.6156,5.5412,5.4668,5.3923,5.3585,5.3518,0.0,0.0,0.0,0.0,0.0,0.0,0.0,0.0,0.0,0.0,0.0,0.0,0.0,0.0,0.0,0.0,0.0,0.0,0.0,0.0,0.0,4.585,4.5451,4.5008,4.4615,4.4615,4.4919,4.5534,4.5635,4.6346,4.7567,4.777,4.824,4.8849,4.8951,4.9018,4.9018,0.0,0.0,0.0,0.0,0.0,0.0,0.0,0.0,0.0,0.0,0.0,0.0,4.8001,4.8001,4.8001,4.8001,0.0,0.0,0.0,0.0,0.0,5.1976,5.2409,5.2409,5.2409,5.2409,5.2409,5.2409,5.2409,5.2409,5.2409,5.2409,5.2409,5.2409,5.2409,5.2409,0.0,0.0,0.0,0.0,0.0,0.0,0.0,0.0,0.0,0.0,0.0,0.0,0.0,0.0,0.0,0.0,0.0,0.0,0.0,0.0,5.7625,5.7662,5.7808,5.7881,5.7881,5.7881,5.7881,5.7881,5.7881,5.7881,0.0,0.0,0.0,5.7881,5.7881,5.7814,5.7645,5.6934,5.619,5.5446,5.4702,5.4025,5.3518,0.0,0.0,0.0,0.0,0.0,0.0,0.0,0.0,0.0,0.0,0.0,0.0,0.0,0.0,0.0,0.0,0.0,0.0,0.0,0.0,0.0,4.6755,4.6479,4.6126,4.5665,4.5331,4.5705,4.6725,4.717,4.7717,4.8372,4.8459,4.868,4.9018,4.9018,4.9018,4.9018,4.8925,0.0,0.0,0.0,0.0,0.0,0.0,0.0,0.0,0.0,0.0,0.0,0.0,4.8001,4.8001,4.8001,0.0,0.0,0.0,0.0,0.0,5.1976,5.2409,5.2409,5.2409,5.2409,5.2409,5.2409,5.2409,5.2409,5.2409,5.2409,5.2409,5.2409,0.0,5.2409,5.2409,0.0,0.0,0.0,0.0,0.0,0.0,0.0,0.0,0.0,0.0,0.0,0.0,0.0,0.0,0.0,0.0,0.0,0.0,0.0,0.0,5.7772,5.7845,5.7881,5.7881,5.7881,5.7881,5.7881,5.7881,5.7881,0.0,0.0,5.7881,5.7881,5.7881,5.7881,5.7814,5.7103,5.6359,5.5546,5.4431,5.3788,5.3518,0.0,0.0,0.0,0.0,0.0,0.0,0.0,0.0,0.0,0.0,0.0,0.0,0.0,0.0,0.0,0.0,0.0,0.0,0.0,0.0,4.7734,4.7959,4.7812,4.7462,4.6984,4.6445,4.6788,4.805,4.8543,4.8816,4.885,4.8957,4.9018,4.9018,4.9018,4.9018,4.9018,4.8987,4.8798,0.0,0.0,0.0,0.0,0.0,0.0,0.0,0.0,0.0,0.0,0.0,0.0,0.0,0.0,0.0,0.0,4.9823,5.032,5.075,5.2042,5.2409,5.2409,5.2409,5.2409,5.2409,5.2409,5.2409,5.2409,5.2409,5.2409,5.2409,0.0,5.2409,0.0,0.0,0.0,0.0,0.0,0.0,0.0,0.0,0.0,0.0,0.0,0.0,0.0,0.0,0.0,0.0,0.0,0.0,0.0,0.0,0.0,0.0,5.7808,5.7881,5.7881,5.7881,5.7881,5.7881,5.7881,5.7881,5.7881,5.7881,5.7881,5.7881,5.7881,5.7881,5.7881,5.7814,5.7273,5.6494,5.5547,5.4059,5.3518,5.3518,0.0,0.0,0.0,0.0,0.0,0.0,0.0,0.0,0.0,0.0,0.0,0.0,0.0,0.0,0.0,0.0,0.0,0.0,0.0,0.0,4.9901,4.9892,4.941,4.8897,4.8345,4.7765,4.8112,4.9442,4.9042,4.886,4.8978,4.9015,4.9018,4.9018,4.9018,4.9018,4.9018,4.8863,4.8801,4.8738,0.0,0.0,0.0,0.0,0.0,0.0,0.0,0.0,0.0,0.0,0.0,0.0,0.0,0.0,4.9193,4.9988,5.0684,5.1415,5.221,5.2409,5.2409,5.2409,5.2409,5.2409,5.2409,5.2409,5.2409,5.2409,5.2409,5.2409,0.0,5.2409,0.0,0.0,0.0,0.0,0.0,0.0,0.0,0.0,0.0,0.0,0.0,0.0,0.0,0.0,0.0,0.0,0.0,0.0,0.0,0.0,0.0,0.0,5.7625,5.7808,5.7881,5.7881,5.7881,5.7881,5.7881,5.7881,5.7881,5.7881,5.7881,5.7881,5.7881,5.7881,5.7881,5.7881,5.7814,5.6934,5.5547,5.4059,5.3518,5.3518,0.0,0.0,0.0,0.0,0.0,0.0,0.0,0.0,0.0,0.0,0.0,0.0,0.0,0.0,0.0,0.0,0.0,0.0,0.0,4.982,5.0329,5.0836,5.0282,5.0282,5.0964,4.9607,4.9318,5.0303,5.0087,4.9819,4.9555,4.9555,4.9346,4.9018,4.9018,4.9018,4.9018,4.8863,4.8738,4.8578,4.8324,0.0,0.0,0.0,0.0,0.0,0.0,0.0,0.0,0.0,4.8001,4.8001,4.8001,4.8498,4.926,4.9988,5.0717,5.1481,5.221,5.2409,5.2409,5.2409,5.2409,5.2409,5.2409,5.2409,5.2409,5.2409,5.2409,5.2409,0.0,0.0,0.0,0.0,0.0,0.0,0.0,0.0,0.0,0.0,0.0,0.0,0.0,0.0,0.0,0.0,0.0,0.0,0.0,0.0,0.0,0.0,0.0,0.0,0.0,5.7845,5.7881,5.7881,5.7881,5.7881,5.7881,5.7881,5.7881,5.7881,5.7881,5.7881,5.7881,5.7881,5.7881,5.7848,5.7408,5.6596,5.5581,5.4566,5.389,5.3518,0.0,0.0,0.0,0.0,0.0,0.0,0.0,0.0,0.0,0.0,0.0,0.0,0.0,0.0,0.0,0.0,0.0,0.0,5.0474,5.0728,5.1104,5.1647,5.1286,5.1514,5.248,5.12,5.0754,5.1286,5.1105,5.0624,4.9902,5.0074,4.9727,4.9018,4.9199,4.9168,4.8984,4.8894,4.8769,4.8578,4.8388,4.8227,0.0,0.0,0.0,0.0,0.0,0.0,0.0,0.0,4.8001,4.8034,4.8266,4.8862,4.9591,5.032,5.1048,5.1779,5.2277,5.2409,5.2409,5.2409,5.2409,5.2409,5.2409,5.2409,5.2409,5.2409,5.2409,5.2409,5.2409,0.0,0.0,0.0,0.0,0.0,0.0,0.0,0.0,0.0,0.0,0.0,0.0,0.0,0.0,0.0,0.0,0.0,0.0,0.0,0.0,0.0,0.0,0.0,0.0,5.7881,5.7881,5.7881,5.7881,5.7881,5.7881,5.7881,5.7881,5.7881,5.7881,5.7881,5.7881,5.7881,5.7881,5.7814,5.7103,5.6359,5.5615,5.4871,5.4126,5.3518,0.0,0.0,0.0,0.0,0.0,0.0,0.0,0.0,0.0,0.0,0.0,0.0,0.0,0.0,0.0,0.0,0.0,0.0,5.1285,5.2045,5.248,5.248,5.248,5.248,5.248,5.248,5.2516,5.248,5.1884,5.0999,4.9902,5.0452,5.0124,4.9015,4.9644,4.9555,4.9018,4.9018,4.8925,4.8769,4.8578,4.8515,4.8452,0.0,0.0,0.0,0.0,0.0,0.0,0.0,4.8001,4.8133,4.8862,4.9624,5.0353,5.1116,5.1846,5.2409,5.2409,5.2409,5.2409,5.2409,5.2409,5.2409,5.2409,5.2409,5.2409,5.2409,5.2409,5.2409,5.2409,5.2409,0.0,0.0,0.0,0.0,0.0,0.0,0.0,0.0,0.0,0.0,0.0,0.0,0.0,0.0,0.0,0.0,0.0,0.0,0.0,0.0,0.0,0.0,0.0,5.7881,5.7881,5.7881,5.7881,5.7881,5.7881,5.7881,5.7881,5.7881,5.7881,5.7881,5.7881,5.7881,5.7881,5.7814,5.7103,5.6359,5.5615,5.4871,5.4126,5.3518,0.0,0.0,0.0,0.0,0.0,0.0,0.0,0.0,0.0,0.0,0.0,0.0,0.0,0.0,0.0,0.0,0.0,0.0,5.2118,5.2371,5.248,5.248,5.248,5.248,5.248,5.248,5.2317,5.186,5.1676,5.1209,5.0452,5.1052,5.0733,4.9644,4.9849,4.9555,4.8984,4.8894,4.8832,4.8769,4.8578,4.8515,4.8483,0.0,0.0,0.0,0.0,0.0,0.0,0.0,0.0,0.0,4.9028,4.9955,5.1015,5.1249,5.1846,5.2409,5.2409,5.2409,5.2409,5.2409,5.2409,5.2409,5.2409,5.2409,5.2409,5.2409,5.2409,5.2409,5.2409,0.0,0.0,0.0,0.0,0.0,0.0,0.0,0.0,0.0,0.0,0.0,0.0,0.0,0.0,0.0,0.0,0.0,0.0,0.0,0.0,0.0,0.0,0.0,0.0,0.0,5.7881,5.7881,5.7881,5.7881,5.7881,5.7881,5.7881,5.7881,5.7881,5.7881,5.7881,5.7881,5.7881,5.7881,5.7645,5.6799,5.5683,5.5446,5.46,5.3518,0.0,0.0,0.0,0.0,0.0,0.0,0.0,0.0,0.0,0.0,0.0,0.0,0.0,0.0,0.0,0.0,0.0,0.0,0.0,5.248,5.248,5.248,5.248,5.248,5.248,5.248,5.234,5.1957,5.1957,5.1651,5.1078,5.1676,5.1347,5.0209,5.0209,4.9902,4.935,4.9018,4.8832,4.8769,4.8675,4.8578,4.8483,0.0,0.0,0.0,0.0,0.0,0.0,0.0,0.0,0.0,4.9889,5.0585,5.1382,5.1647,5.2078,5.2409,5.2409,5.2409,5.2409,5.2409,5.2409,5.2409,5.2409,5.2409,5.2409,0.0,5.2409,5.2409,5.2409,0.0,0.0,0.0,0.0,0.0,0.0,0.0,0.0,0.0,0.0,0.0,0.0,0.0,0.0,0.0,0.0,0.0,0.0,0.0,0.0,0.0,0.0,0.0,0.0,0.0,0.0,5.7881,5.7881,5.7881,5.7881,5.7881,5.7881,5.7881,5.7881,5.7881,5.7881,5.7881,5.7881,5.7848,5.7577,5.6909,5.603,5.5724,5.4872,5.3882,0.0,0.0,0.0,0.0,0.0,0.0,0.0,0.0,0.0,0.0,5.2045,0.0,0.0,0.0,0.0,0.0,0.0,0.0,0.0,0.0,5.248,5.248,5.248,5.248,5.248,5.248,5.248,5.248,5.248,5.2209,5.1676,5.2233,5.186,5.0697,5.0768,5.0481,4.9894,4.9399,4.9128,4.9003,4.9003,4.8908,4.8716,4.8556,0.0,0.0,0.0,0.0,0.0,0.0,0.0,0.0,5.1116,5.1348,5.1547,5.221,5.2409,5.2409,5.2409,5.2409,5.2409,5.2409,5.2409,5.2409,5.2409,5.2409,5.2409,5.2409,0.0,5.2409,0.0,0.0,0.0,0.0,0.0,0.0,0.0,0.0,0.0,0.0,0.0,0.0,0.0,0.0,0.0,0.0,0.0,0.0,0.0,0.0,0.0,0.0,0.0,0.0,0.0,0.0,0.0,0.0,5.7881,5.7881,5.7881,5.7881,5.7881,5.7881,5.7881,5.7881,5.7881,5.7881,5.7881,5.7814,5.7141,5.6781,5.6531,5.5837,5.511,5.4485,0.0,0.0,0.0,0.0,0.0,0.0,0.0,0.0,0.0,0.0,0.0,0.0,0.0,0.0,0.0,0.0,0.0,0.0,0.0,0.0,5.248,5.248,5.248,5.248,5.248,5.248,5.248,5.248,5.248,5.2434,5.2317,5.2434,5.186,5.0733,5.1337,5.1061,5.0082,5.0536,5.0712,5.068,5.068,5.0647,5.0615,5.0583,5.0486,0.0,0.0,0.0,0.0,0.0,0.0,0.0,5.1249,5.1713,5.221,5.2376,5.2409,5.2409,5.2409,5.2409,5.2409,5.2409,5.2409,5.2409,5.2409,5.2409,5.2409,5.2409,5.2409,0.0,0.0,0.0,0.0,0.0,0.0,0.0,0.0,0.0,0.0,0.0,0.0,0.0,0.0,0.0,0.0,0.0,0.0,0.0,0.0,0.0,0.0,0.0,0.0,0.0,5.7881,5.7881,5.7881,0.0,5.7881,5.7881,5.7881,5.7881,5.7881,5.7881,5.7881,5.7881,5.7881,5.7881,5.7881,5.7887,5.7602,5.7122,5.6562,5.6377,5.5824,5.5159,0.0,0.0,0.0,0.0,0.0,0.0,0.0,0.0,0.0,0.0,0.0,0.0,0.0,0.0,0.0,0.0,0.0,0.0,0.0,0.0,5.248,5.248,5.248,5.248,5.248,5.248,5.248,5.248,5.248,5.248,5.2516,5.2582,5.2273,5.167,5.1878,5.1652,5.1049,5.1176,5.1185,5.1185,5.1185,5.1153,5.1088,5.1088,5.099,5.0826,5.0726,0.0,0.0,0.0,0.0,0.0,0.0,0.0,5.2409,5.2409,5.2409,5.2409,5.2409,5.2409,5.2409,5.2409,5.2409,5.2409,5.2409,5.2409,5.2409,5.2409,5.2409,0.0,0.0,0.0,0.0,0.0,0.0,0.0,0.0,0.0,0.0,0.0,0.0,0.0,0.0,0.0,0.0,0.0,0.0,0.0,0.0,0.0,0.0,0.0,0.0,0.0,5.7881,5.7881,5.7881,5.7881,5.7881,5.7881,5.7881,5.7881,5.8065,5.8352,5.8063,5.8065,5.8352,5.8029,5.8065,5.8354,5.7912,5.7892,5.8039,5.7241,5.675,5.6361,0.0,0.0,0.0,0.0,0.0,0.0,0.0,0.0,0.0,0.0,0.0,0.0,0.0,0.0,0.0,0.0,0.0,0.0,0.0,0.0,0.0,5.248,5.248,5.248,5.248,5.248,5.248,5.248,5.2625,5.2697,5.2733,5.272,5.2763,5.2915,5.2509,5.2352,5.2412,5.1843,5.1654,5.1751,5.1622,5.1525,5.1427,5.1427,5.1328,5.1128,5.1095,5.1463,5.1931,5.1724,0.0,0.0,0.0,0.0,5.2409,5.2409,5.2409,5.2409,5.2409,5.2409,5.2409,5.2409,5.2409,5.2409,5.2409,5.2409,5.2409,5.2409,0.0,0.0,0.0,0.0,0.0,0.0,0.0,0.0,0.0,0.0,0.0,0.0,0.0,0.0,0.0,0.0,0.0,0.0,0.0,0.0,0.0,0.0,0.0,0.0,0.0,5.7881,5.7881,5.7881,5.7881,5.7881,5.7881,5.7954,5.8065,5.8065,5.8388,5.8875,5.8458,5.8598,5.9045,5.8493,5.8598,5.9009,5.838,5.8808,5.9666,5.8343,5.7862,5.779,0.0,0.0,0.0,0.0,0.0,0.0,0.0,0.0,0.0,0.0,5.248,0.0,0.0,0.0,0.0,0.0,0.0,0.0,0.0,0.0,0.0,5.248,5.248,5.248,5.248,5.248,5.248,5.248,5.3204,5.353,5.353,5.2971,5.311,5.3787,5.3276,5.3385,5.3865,5.3398,5.351,5.3957,5.3378,5.318,5.318,5.318,5.3045,5.2842,5.2671,5.2565,5.2491,5.2314,5.2378,0.0,0.0,0.0,5.2409,5.2409,5.2409,5.2409,5.2409,5.2409,5.2409,5.2409,5.2409,5.2409,5.2409,0.0,5.2409,0.0,0.0,0.0,0.0,0.0,0.0,0.0,0.0,0.0,0.0,0.0,0.0,0.0,0.0,0.0,0.0,0.0,0.0,0.0,0.0,0.0,0.0,0.0,5.7881,5.7881,5.7881,0.0,5.7881,5.7881,5.7881,5.7881,5.7881,5.8209,5.8772,5.8772,5.8841,5.8909,5.948,5.9774,5.9838,5.9741,5.9774,5.9832,5.9618,5.9633,5.9766,5.9466,5.9328,5.9292,0.0,0.0,0.0,0.0,0.0,0.0,0.0,0.0,0.0,0.0,0.0,5.248,0.0,0.0,0.0,0.0,0.0,0.0,0.0,0.0,0.0,5.248,5.248,5.248,5.248,5.2951,5.3168,5.3168,5.4001,5.4581,5.4979,5.4333,5.4091,5.4118,5.4349,5.4217,5.3817,5.435,5.4301,5.3881,5.3979,5.3881,5.3751,0.0,0.0,0.0,0.0,0.0,5.3075,5.2937,5.2867,5.2832,5.2727,0.0,0.0,0.0,5.248,5.2409,5.2409,5.2409,5.2409,5.2409,5.2409,5.2409,5.2409,5.2409,5.2409,0.0,0.0,0.0,0.0,0.0,0.0,0.0,0.0,0.0,0.0,0.0,0.0,0.0,0.0,0.0,0.0,0.0,0.0,0.0,0.0,0.0,0.0,5.7881,5.7881,5.7881,5.7881,0.0,5.7881,5.7881,5.8065,5.8458,5.8458,5.8806,5.9546,5.9899,6.0058,6.0058,6.003,6.0219,6.0529,6.0156,6.0219,6.0555,6.0505,6.069,6.0968,6.0449,6.0267,6.0231,0.0,0.0,0.0,0.0,0.0,0.0,0.0,0.0,0.0,0.0,0.0,0.0,0.0,0.0,0.0,0.0,0.0,0.0,0.0,0.0,0.0,5.248,5.2697,5.2806,5.2806,5.3603,5.4001,5.4001,5.4798,5.545,5.5993,5.5744,5.5311,5.4761,5.5033,5.4857,5.4457,5.4799,5.4645,5.4237,5.4362,5.4299,5.4044,0.0,0.0,0.0,0.0,0.0,0.0,0.0,0.0,0.0,0.0,0.0,0.0,0.0,0.0,5.2445,5.2445,5.2409,5.2409,5.2409,5.2409,5.2409,0.0,0.0,0.0,0.0,0.0,0.0,0.0,0.0,0.0,0.0,0.0,0.0,0.0,0.0,0.0,0.0,0.0,0.0,0.0,0.0,0.0,0.0,0.0,0.0,5.7881,5.7881,5.7881,5.7881,5.7881,5.7881,5.7881,5.7881,5.8244,5.8909,5.8909,5.938,6.0251,6.0741,6.1104,6.1257,6.0747,6.0807,6.1192,6.0717,6.0807,6.125,6.125,6.1579,6.1906,6.1326,6.1073,6.1027,0.0,0.0,0.0,0.0,0.0,0.0,0.0,0.0,0.0,0.0,0.0,0.0,0.0,5.248,5.248,5.248,0.0,0.0,0.0,0.0,0.0,5.248,5.3241,0.0,5.3639,5.4436,5.4834,5.4834,5.5595,5.5957,5.6029,5.6765,5.6783,5.613,5.4974,5.542,5.6845,5.4582,5.4582,5.6063,5.4887,0.0,0.0,0.0,0.0,0.0,0.0,0.0,0.0,0.0,0.0,0.0,0.0,0.0,0.0,0.0,0.0,0.0,5.2589,5.2516,5.2409,5.2409,5.2409,5.2409,0.0,0.0,0.0,0.0,0.0,0.0,0.0,0.0,0.0,0.0,0.0,0.0,0.0,0.0,0.0,0.0,0.0,0.0,0.0,0.0,0.0,0.0,0.0,0.0,5.7881,5.7881,5.7881,5.7881,5.7881,5.7881,5.7881,5.7881,5.8244,5.8909,5.8909,5.9609,6.0956,6.0986,6.1343,6.195,6.1923,6.1923,6.195,6.1923,6.1923,6.195,6.195,6.195,6.1978,6.1942,6.1942,6.1906,0.0,0.0,0.0,0.0,0.0,0.0,0.0,0.0,0.0,0.0,0.0,0.0,0.0,5.3748,5.4037,5.4037,5.4037,0.0,0.0,0.0,0.0,5.4037,5.4327,5.4472,5.4472,5.5233,5.5595,5.5595,5.6391,5.6754,5.679,5.708,5.7087,5.6881,5.6412,5.5907,5.542,5.5738,5.5565,5.5094,5.5484,0.0,0.0,0.0,0.0,0.0,0.0,0.0,0.0,0.0,0.0,0.0,0.0,0.0,0.0,0.0,0.0,5.2764,5.2624,5.2553,5.2516,5.2409,5.2409,5.2409,5.2409,0.0,0.0,0.0,0.0,0.0,0.0,0.0,0.0,0.0,0.0,0.0,0.0,0.0,0.0,0.0,0.0,0.0,0.0,0.0,0.0,0.0,0.0,0.0,5.7881,5.7881,5.7881,5.7881,5.8317,5.8737,5.9247,5.9247,5.9578,6.0251,6.0251,6.0741,6.1636,6.1636,6.1748,6.1978,6.1978,6.1978,6.1978,6.1978,6.1978,6.1978,6.1978,6.1978,6.1978,6.1978,6.1978,6.1978,0.0,0.0,0.0,0.0,0.0,0.0,0.0,0.0,0.0,0.0,0.0,0.0,0.0,0.0,5.4564,5.4564,5.4564,5.4675,5.4882,5.4907,5.4907,5.4907,5.516,5.5269,5.5269,5.5993,5.6391,5.6391,5.6935,5.7188,5.7188,5.7188,5.7188,5.7188,5.7188,5.6519,5.5391,5.5991,5.5907,5.5391,0.0,0.0,5.6007,0.0,0.0,0.0,0.0,0.0,0.0,0.0,0.0,0.0,0.0,0.0,0.0,0.0,0.0,0.0,5.2903,0.0,0.0,0.0,5.2729,5.2834,5.2551,0.0,0.0,0.0,0.0,0.0,0.0,0.0,0.0,0.0,0.0,0.0,0.0,0.0,0.0,0.0,0.0,0.0,0.0,0.0,0.0,0.0,0.0,0.0,5.7881,5.8101,5.8351,5.8598,5.9045,5.9513,5.9998,5.9998,6.0348,6.0992,6.0986,6.1343,6.1978,6.1978,6.1978,6.1978,6.1978,6.1978,6.1978,6.1978,6.1978,6.1978,6.1978,6.1978,6.1978,6.1978,6.1978,6.1978,0.0,0.0,0.0,0.0,0.0,0.0,0.0,0.0,0.0,5.4907,0.0,0.0,0.0,0.0,0.0,5.3966,5.3966,5.4261,5.493,5.4979,5.4979,5.4979,0.0,0.0,5.6029,5.679,5.7188,5.7188,5.7188,5.7188,5.7188,5.7188,5.7188,5.7188,5.7188,5.7188,5.7087,5.5273,5.5507,5.7061,0.0,5.5808,5.6284,0.0,0.0,0.0,5.6075,5.613,0.0,5.5665,0.0,0.0,0.0,0.0,0.0,0.0,0.0,0.0,0.0,0.0,0.0,0.0,0.0,0.0,5.28,0.0,0.0,0.0,0.0,0.0,0.0,0.0,0.0,0.0,0.0,0.0,0.0,0.0,0.0,0.0,0.0,0.0,0.0,0.0,0.0,0.0,0.0,5.7103,5.7814,5.8529,5.9247,5.9998,6.003,6.003,6.0062,6.0062,6.041,6.1022,6.1016,6.1372,6.1978,6.1978,6.1978,6.1978,6.1978,6.1978,6.1978,6.1978,6.1978,6.1978,6.1978,6.1978,6.1978,6.1978,6.1978,6.1978,0.0,0.0,0.0,0.0,0.0,0.0,0.0,0.0,5.4907,0.0,0.0,0.0,5.5703,5.605,5.6119,5.5696,5.6041,5.6386,5.6573,5.6573,5.6573,5.6573,5.6754,5.6862,5.6862,5.708,5.7188,5.7188,5.7188,5.7188,5.7188,5.7188,5.7188,5.7188,5.7188,5.7188,5.7163,5.6661,0.0,5.5943,5.6501,5.6697,0.0,0.0,0.0,0.0,0.0,5.6456,5.6644,0.0,5.6339,5.6201,0.0,0.0,0.0,0.0,0.0,0.0,5.4072,0.0,0.0,0.0,0.0,0.0,0.0,0.0,0.0,0.0,0.0,0.0,0.0,0.0,0.0,0.0,0.0,0.0,0.0,0.0,0.0,0.0,0.0,0.0,0.0,0.0,0.0,0.0,0.0,5.69,5.7103,5.8255,5.9445,6.0686,6.0747,6.0956,6.143,6.143,6.1551,6.172,6.172,6.184,6.1978,6.1978,6.1978,6.1978,6.1978,6.1978,6.1978,6.1978,6.1978,6.1978,6.1978,6.1978,6.1978,6.1978,6.1978,6.1978,0.0,0.0,0.0,0.0,0.0,0.0,5.5848,5.5848,5.5848,0.0,0.0,0.0,5.5785,5.6161,5.6311,5.5978,5.6257,5.6661,5.7163,5.7188,5.7188,5.7188,5.7188,5.7188,5.7188,5.7188,5.7188,5.7188,5.7188,5.7188,5.7188,5.7188,5.7188,5.7188,5.7188,5.6933,5.6474,0.0,0.0,0.0,5.6221,0.0,0.0,5.668,5.6707,0.0,0.0,0.0,5.6907,5.6671,5.6591,0.0,0.0,0.0,0.0,0.0,0.0,0.0,0.0,0.0,0.0,0.0,0.0,0.0,5.4136,5.4544,0.0,0.0,0.0,0.0,0.0,0.0,0.0,0.0,0.0,0.0,0.0,0.0,0.0,0.0,0.0,0.0,0.0,0.0,0.0,0.0,5.6194,5.7084,5.8004,5.916,6.0282,6.1372,6.1401,6.1608,6.1978,6.1978,6.1978,6.1978,6.1978,6.1978,6.1978,6.1978,6.1978,6.1978,6.1978,6.1978,6.1978,6.1978,6.1978,6.1978,6.1978,6.1978,6.1978,6.1978,6.1978,6.1978,0.0,0.0,0.0,5.6138,5.6667,5.7112,5.7188,5.7138,5.7112,0.0,5.7138,5.6661,5.5513,5.5461,5.5461,0.0,5.5519,5.5999,5.701,5.7087,5.7112,5.7112,5.7112,5.7138,5.7188,5.7163,5.7138,5.7138,5.7138,5.7138,5.7112,5.7163,5.7163,5.7138,5.7138,0.0,5.5636,0.0,0.0,5.6948,5.5572,5.5722,0.0,0.0,5.6492,5.6697,5.6697,5.6855,5.7036,5.6528,5.6366,0.0,0.0,0.0,0.0,0.0,5.6393,0.0,0.0,0.0,0.0,0.0,0.0,0.0,5.4637,5.4974,5.5189,0.0,0.0,0.0,0.0,0.0,0.0,0.0,0.0,0.0,0.0,0.0,0.0,0.0,0.0,0.0,0.0,0.0,0.0,5.635,5.6455,5.7464,5.9679,6.0487,6.1207,6.1978,6.1978,6.1978,6.1978,6.1978,6.1978,6.1978,6.1978,6.1978,6.1978,6.1978,6.1978,6.1978,6.1978,6.1978,6.1978,6.1978,6.1978,6.1978,6.1978,6.1978,6.1978,6.1978,6.1978,6.1978,0.0,0.0,5.6971,5.6971,5.6685,5.6635,5.7138,5.6803,5.6635,5.7138,5.6767,5.6201,5.549,5.5801,5.5801,0.0,5.6138,5.6635,5.6174,5.6366,5.6474,5.6474,5.6474,5.6688,5.7188,5.6984,5.6855,5.6855,5.6855,5.6786,5.6573,5.6984,5.7061,5.6855,5.6855,5.6855,5.6793,0.0,0.0,5.6213,5.583,0.0,5.6437,5.6134,5.6014,5.607,5.607,5.6265,5.6573,0.0,5.6855,5.7036,0.0,0.0,0.0,0.0,0.0,0.0,0.0,0.0,0.0,0.0,0.0,0.0,5.5943,5.6357,5.6635,0.0,0.0,0.0,0.0,0.0,0.0,0.0,0.0,0.0,0.0,0.0,0.0,0.0,0.0,0.0,0.0,0.0,5.5437,5.5613,5.6174,5.7464,5.9679,5.9958,6.0641,6.1978,6.1978,6.1978,6.1978,6.1978,6.1978,6.1978,6.1978,6.1978,6.1978,6.1978,6.1978,6.1978,6.1978,6.1978,6.1978,6.1978,6.1978,6.1978,6.1978,6.1978,6.1978,6.1978,6.1978,6.1978,0.0,5.7188,5.7188,5.7188,5.6959,5.674,5.674,5.674,5.674,5.674,5.6474,5.5971,5.5099,5.5367,5.5455,0.0,0.0,0.0,0.0,5.6118,5.6146,5.6537,5.6174,5.6229,5.6812,5.668,5.668,5.6812,5.668,5.66,5.66,5.6855,5.6724,5.6229,5.6617,5.6393,5.5645,0.0,5.5818,5.6041,5.5777,0.0,5.6323,5.6264,5.657,5.7069,5.7242,5.7608,5.7954,5.769,5.7702,0.0,0.0,5.7188,5.7188,0.0,5.7188,5.7138,0.0,0.0,0.0,5.633,0.0,0.0,0.0,5.6528,5.6582,0.0,0.0,0.0,0.0,0.0,0.0,0.0,0.0,0.0,0.0,0.0,0.0,0.0,0.0,0.0,0.0,0.0,5.6311,5.6311,5.7025,5.7922,5.905,5.9841,6.0627,6.1362,6.1761,6.1978,6.1978,6.1978,6.1978,6.1978,6.1978,6.1978,6.1978,6.1978,6.1978,6.1978,6.1978,6.1978,6.1978,6.1978,6.1978,6.1978,6.1978,6.1978,6.1978,6.1978,6.1978,6.1978,5.7442,5.7442,5.7478,5.7623,5.7443,5.7181,5.6803,5.7075,5.7181,5.6803,5.672,5.6197,5.5053,5.4981,5.5131,0.0,0.0,0.0,0.0,0.0,5.5671,5.6553,5.5901,5.5744,5.6292,5.6437,5.6546,5.6733,5.6546,5.6465,5.6402,5.6671,5.6339,5.5543,5.6201,5.5773,5.461,0.0,0.0,5.597,0.0,5.6269,5.6771,5.6806,5.7434,5.832,5.8581,5.9095,5.948,5.8776,0.0,5.8528,5.7876,5.755,0.0,0.0,0.0,0.0,0.0,0.0,0.0,0.0,0.0,5.7087,0.0,0.0,0.0,5.5865,0.0,0.0,0.0,0.0,0.0,0.0,0.0,0.0,0.0,0.0,0.0,0.0,0.0,0.0,0.0,0.0,5.7188,5.7188,5.7804,5.8239,5.8383,5.9796,6.0665,6.081,6.158,6.1978,6.1978,6.1978,6.1978,6.1978,6.1978,6.1978,6.1978,6.1978,6.1978,6.1978,6.1978,6.1978,6.1978,6.1978,6.1978,6.1978,6.1978,6.1978,6.1978,6.1978,6.1978,6.1978,5.8383,5.8275,5.8492,5.9216,5.8409,5.7795,5.8267,0.0,5.7795,5.8296,5.8123,5.7495,5.6225,5.5835,0.0,0.0,0.0,0.0,5.5522,0.0,0.0,5.5862,5.5418,5.542,5.6047,5.6501,5.6653,5.6437,5.6653,5.6118,5.4987,5.6201,5.6229,5.5154,5.5278,5.5636,5.6169,0.0,5.59,0.0,5.7223,5.8078,0.0,5.7862,5.8077,5.8674,5.8702,5.9095,5.9526,0.0,5.9195,5.947,0.0,5.8854,5.8275,0.0,0.0,0.0,0.0,0.0,0.0,0.0,5.7188,0.0,0.0,0.0,5.7087,5.701,0.0,0.0,0.0,0.0,0.0,0.0,0.0,0.0,0.0,0.0,0.0,0.0,0.0,0.0,0.0,0.0,0.0,5.7188,5.7297,5.7659,5.8347,5.9253,6.0086,6.0774,6.158,6.1978,6.1978,6.1978,6.1978,6.1978,6.1978,6.1978,6.1978,6.1978,6.1978,6.1978,6.1978,6.1978,6.1978,6.1978,6.1978,6.1978,6.1978,6.1978,6.1978,6.1978,6.1978,6.1978,5.918,5.9108,5.9075,5.905,5.8574,5.8048,0.0,0.0,5.7213,5.7675,5.7335,5.6893,0.0,0.0,0.0,0.0,0.0,5.6192,0.0,0.0,0.0,5.7101,5.5939,5.5798,5.7005,5.6523,5.6429,5.6809,5.629,5.5815,5.5408,5.6014,5.5751,5.4892,5.5373,0.0,5.5334,0.0,5.6275,0.0,0.0,0.0,0.0,5.8853,5.9016,5.9799,5.9799,6.0174,6.0611,0.0,6.0025,0.0,0.0,0.0,0.0,0.0,0.0,0.0,0.0,0.0,0.0,0.0,0.0,0.0,0.0,0.0,5.7188,0.0,0.0,0.0,0.0,0.0,0.0,0.0,0.0,0.0,0.0,0.0,0.0,0.0,0.0,0.0,0.0,0.0,0.0,0.0,0.0,5.7333,5.7695,5.8927,5.976,6.0086,6.1353,6.1978,6.1978,6.1978,6.1978,6.1978,6.1978,6.1978,6.1978,6.1978,6.1978,6.1978,6.1978,6.1978,6.1978,6.1978,6.1978,6.1978,6.1978,6.1978,6.1978,6.1978,6.1978,6.1978,6.0267,6.0086,5.979,5.9324,5.9099,5.8648,0.0,0.0,5.7386,5.7837,5.7484,0.0,5.654,5.6508,0.0,0.0,5.6337,5.6504,0.0,0.0,5.6064,0.0,0.0,0.0,0.0,5.6885,5.6851,5.7388,5.6711,5.6312,5.6217,5.6422,5.6099,5.5365,5.5798,5.5768,5.5448,0.0,5.6807,5.7807,5.8382,5.9494,6.0701,5.9862,5.9995,6.0578,6.0578,6.0938,6.1272,6.0612,6.066,0.0,6.0278,0.0,0.0,0.0,0.0,0.0,5.8891,0.0,0.0,0.0,0.0,0.0,0.0,0.0,0.0,0.0,0.0,0.0,0.0,0.0,0.0,0.0,0.0,0.0,0.0,0.0,0.0,0.0,0.0,0.0,0.0,0.0,0.0,0.0,0.0,0.0,5.7188,5.8528,5.9361,5.9615,6.0955,6.1761,6.1978,6.1978,6.1978,6.1978,6.1978,6.1978,6.1978,6.1978,6.1978,6.1978,6.1978,6.1978,6.1978,6.1978,6.1978,6.1978,6.1978,6.1978,6.1978,6.1978,6.1978,6.1978,6.1906,6.129,6.0801,6.089,6.0397,5.9928,0.0,0.0,0.0,0.0,0.0,0.0,0.0,0.0,0.0,0.0,0.0,5.5125,5.6448,0.0,5.5741,0.0,0.0,5.7184,0.0,0.0,5.8465,5.8137,5.8465,5.8048,5.699,5.7771,5.771,5.6893,5.6401,5.6765,5.7666,5.7394,5.7569,5.8175,5.9531,6.0528,6.1257,0.0,6.0848,6.0578,6.0578,0.0,0.0,6.0696,6.0992,0.0,0.0,0.0,0.0,0.0,0.0,0.0,0.0,0.0,0.0,5.9542,0.0,0.0,0.0,0.0,5.7188,0.0,0.0,0.0,0.0,0.0,0.0,0.0,0.0,0.0,0.0,0.0,0.0,0.0,0.0,0.0,0.0,0.0,0.0,0.0,0.0,0.0,5.7188,5.7985,5.8818,5.9579,6.0412,6.1181,6.1978,6.1978,6.1978,6.1978,6.1978,6.1978,6.1978,6.1978,6.1978,6.1978,6.1978,6.1978,6.1978,6.1978,6.1978,6.1978,6.1978,6.1978,6.1978,6.1978,6.1978,6.1978,6.0686,6.0473,6.0306,6.034,6.0156,0.0,0.0,5.8904,0.0,0.0,5.9334,0.0,0.0,5.8799,5.8593,0.0,0.0,5.7465,5.7924,5.688,0.0,0.0,0.0,5.7248,0.0,0.0,0.0,0.0,5.7523,5.7311,5.6928,5.7216,5.7184,5.693,5.6733,5.6944,0.0,0.0,0.0,0.0,0.0,6.1336,6.1965,0.0,0.0,6.1779,6.1779,6.2004,0.0,6.1808,6.1962,6.2177,6.1666,6.154,6.1552,6.1323,6.1226,0.0,0.0,0.0,6.0267,5.9724,0.0,0.0,0.0,0.0,0.0,0.0,0.0,0.0,0.0,0.0,0.0,0.0,0.0,0.0,0.0,0.0,0.0,0.0,0.0,0.0,0.0,0.0,0.0,0.0,0.0,0.0,0.0,5.7949,5.8782,5.9579,6.0375,6.1208,6.1978,6.1978,6.1978,6.1978,6.1978,6.1978,6.1978,6.1978,6.1978,6.1978,6.1978,6.1978,6.1978,6.1978,6.1978,6.1978,6.1978,6.1978,6.1978,6.1978,6.1978,6.1978,6.0774,6.0774,6.0534,5.9781,5.9657,0.0,0.0,0.0,0.0,0.0,5.9401,0.0,5.9505,0.0,5.9505,0.0,5.9025,5.8758,5.8758,5.8135,0.0,5.818,5.7883,0.0,0.0,0.0,0.0,0.0,0.0,5.7825,5.7462,5.7858,5.7923,5.776,5.776,5.7938,5.8322,5.8732,5.9315,0.0,0.0,6.2143,0.0,0.0,6.2248,6.2389,0.0,6.2619,6.284,6.2403,6.2567,6.2856,6.2319,6.2199,6.2245,6.2153,6.2021,6.1869,6.1362,6.1218,0.0,0.0,6.0267,0.0,6.005,0.0,0.0,0.0,0.0,0.0,0.0,0.0,0.0,0.0,0.0,0.0,0.0,5.7188,0.0,0.0,0.0,0.0,0.0,0.0,0.0,0.0,0.0,0.0,0.0,0.0,5.8456,5.9579,6.0122,6.0919,6.1978,6.1978,6.1978,6.1978,6.1978,6.1978,6.1978,6.1978,6.1978,6.1978,6.1978,6.1978,6.1978,6.1978,6.1978,6.1978,6.1978,6.1978,6.1978,6.1978,6.1978,6.1978,6.2117,6.2117,0.0,0.0,5.8997,0.0,0.0,0.0,5.9996,0.0,5.9958,5.9516,5.9318,5.9279,5.9199,5.9039,5.8966,5.8933,5.8933,5.9382,0.0,0.0,5.892,5.8914,5.7759,0.0,0.0,0.0,0.0,5.9483,5.8422,5.9516,5.9781,5.9284,5.9318,0.0,6.0081,6.0318,6.0802,6.1476,6.2178,6.2915,6.3653,6.3653,0.0,6.2494,6.2494,6.2725,6.2949,6.2624,6.2914,6.3448,6.3444,6.3119,6.2839,6.3153,6.2693,6.205,6.205,6.2014,6.1978,6.1978,0.0,0.0,0.0,0.0,5.9651,0.0,0.0,0.0,0.0,0.0,0.0,0.0,0.0,0.0,0.0,0.0,0.0,0.0,0.0,0.0,0.0,0.0,0.0,0.0,0.0,0.0,0.0,0.0,0.0,5.9542,5.9615,6.0375,6.1978,6.1978,6.1978,6.1978,6.1978,6.1978,6.1978,6.1978,6.1978,6.1978,6.1978,6.1978,6.1978,6.1978,6.1978,6.1978,6.1978,6.1978,6.1978,6.1978,6.1978,6.1978,6.0642,6.0642,6.0393,0.0,5.9481,5.9578,0.0,0.0,0.0,0.0,6.0444,6.0679,6.0638,6.0605,6.0597,6.0556,6.0026,0.0,0.0,0.0,0.0,5.9275,5.912,5.9131,5.9237,5.8964,0.0,5.794,0.0,0.0,5.8422,5.9148,5.9182,5.8667,5.908,5.9459,5.9806,6.0697,6.18,6.3021,6.3196,6.3758,0.0,0.0,6.4285,6.4109,6.4109,6.4346,6.4536,6.4166,6.4148,6.4229,6.3896,6.384,6.3928,6.3784,6.3321,6.2875,6.2875,6.2476,6.1978,6.1978,6.1833,6.1688,0.0,0.0,0.0,0.0,0.0,0.0,0.0,0.0,0.0,0.0,0.0,0.0,0.0,0.0,0.0,0.0,0.0,0.0,0.0,0.0,0.0,0.0,0.0,0.0,0.0,0.0,0.0,5.9542,5.9615,6.0375,6.1978,6.1978,6.1978,6.1978,6.1978,6.1978,6.1978,6.1978,6.1978,6.1978,6.1978,6.1978,6.1978,6.1978,6.1978,6.1978,6.1978,6.1978,6.1978,6.1978,6.1978,6.1978,6.1095,6.1366,0.0,6.129,0.0,0.0,6.0485,6.1346,0.0,6.1847,6.2207,0.0,6.2474,6.2215,6.2047,6.2047,6.1941,0.0,6.1406,0.0,0.0,6.028,5.9725,5.9518,5.9809,5.9637,0.0,5.906,0.0,0.0,5.9414,6.0082,6.0186,5.9803,6.022,6.0565,6.0878,6.1875,6.2986,6.4074,6.4074,0.0,0.0,6.4672,6.4809,6.4911,6.474,6.5046,6.5406,6.4977,6.5058,6.5305,6.5022,6.4842,6.4701,6.4671,6.4181,6.3708,6.3708,6.3382,6.2983,6.2621,6.2512,6.244,6.2087,6.1652,6.1326,0.0,0.0,0.0,0.0,0.0,0.0,0.0,0.0,0.0,0.0,0.0,0.0,0.0,0.0,0.0,0.0,0.0,0.0,0.0,0.0,0.0,0.0,0.0,0.0,5.9542,5.9615,6.0375,6.1978,6.1978,6.1978,6.1978,6.1978,6.1978,6.1978,6.1978,6.1978,6.1978,6.1978,6.1978,6.1978,6.1978,6.1978,6.1978,6.1978,6.1978,6.1978,6.1978,6.1978,6.1978,6.2646,6.3187,0.0,0.0,0.0,0.0,0.0,6.3346,0.0,6.4117,0.0,6.4308,6.4184,6.3802,6.3496,6.3444,0.0,6.3997,6.3309,6.3323,6.2837,6.1631,6.0939,6.0485,6.0362,6.0731,0.0,0.0,0.0,0.0,6.0935,6.1675,6.1882,6.171,6.1951,0.0,0.0,6.3441,6.4109,6.4672,6.4672,6.4672,6.4672,6.4672,6.4877,6.5112,6.4809,6.5147,6.5707,6.5376,6.57,6.6238,6.6366,6.5862,6.5382,6.5648,6.5192,6.4541,6.4541,6.4468,6.4215,6.3526,6.3273,6.3019,6.2331,6.2087,6.1978,6.1978,6.1435,0.0,0.0,0.0,0.0,0.0,0.0,0.0,0.0,0.0,0.0,0.0,0.0,0.0,0.0,0.0,0.0,0.0,0.0,0.0,0.0,0.0,0.0,0.0,5.9615,0.0,6.1978,0.0,6.1978,6.1978,6.1978,6.1978,6.1978,6.1978,6.1978,6.1978,6.1978,6.1978,6.1978,6.1978,6.1978,6.1978,6.1978,6.1978,6.1978,6.1978,6.1978,6.1978,6.4004,0.0,0.0,0.0,0.0,6.4769,6.504,6.4613,6.405,6.3539,6.4349,6.4835,6.4267,6.4593,6.4634,6.4094,6.4634,0.0,0.0,0.0,0.0,6.5189,6.4034,6.3349,6.3329,6.2695,6.2004,0.0,0.0,0.0,6.2248,6.2836,6.2871,6.2448,6.2903,0.0,6.3839,6.4281,0.0,6.4672,6.4672,6.4672,6.4672,6.4672,6.474,6.4775,6.4706,6.4979,6.5344,6.5607,6.5804,6.5994,6.6548,6.6625,6.651,6.6576,6.6025,6.5374,6.5374,6.4903,6.4359,6.4215,6.3671,6.3164,6.3019,6.2476,6.1978,6.1978,6.1869,6.1761,6.1761,0.0,0.0,0.0,0.0,0.0,0.0,0.0,0.0,0.0,0.0,0.0,0.0,0.0,0.0,0.0,0.0,0.0,0.0,0.0,0.0,0.0,0.0,0.0,0.0,0.0,0.0,6.1978,6.1978,6.1978,6.1978,6.1978,6.1978,6.1978,6.1978,6.1978,6.1978,6.1978,6.1978,6.1978,6.1978,6.1978,6.1978,6.1978,6.1978,6.1978,6.4457,0.0,0.0,0.0,0.0,0.0,0.0,6.5774,0.0,6.4939,6.5413,6.5827,6.5868,6.5827,6.5827,6.5868,6.6474,6.6539,6.5812,6.6088,6.6225,6.6113,6.5199,0.0,6.5145,6.43,6.3821,6.3716,0.0,0.0,6.3945,6.4205,6.4173,6.3945,6.4046,6.4195,0.0,0.0,0.0,6.5303,6.5303,6.5549,6.59,6.59,6.59,6.59,6.59,6.6005,6.6071,6.5627,6.5736,6.6119,6.6457,6.6668,6.6786,6.6786,6.6533,6.6207,6.6207,6.5953,6.5555,6.512,6.4722,6.4323,6.3925,6.32,6.2621,6.2621,6.2295,6.1978,6.1978,6.1326,0.0,0.0,0.0,0.0,0.0,0.0,0.0,0.0,0.0,0.0,0.0,0.0,0.0,0.0,0.0,0.0,0.0,0.0,0.0,0.0,0.0,0.0,0.0,0.0,0.0,6.1978,6.1978,6.1978,6.1978,6.1978,6.1978,6.1978,6.1978,6.1978,6.1978,6.1978,6.1978,6.1978,6.1978,6.1978,6.1978,6.1978,6.1978,6.1978,0.0,6.5691,0.0,0.0,6.6539,0.0,6.7161,6.6912,6.6576,6.6449,6.666,6.7037,6.7529,6.7284,6.7202,6.7569,6.8241,6.8274,6.7496,6.7648,6.7446,6.682,6.6159,6.6014,6.6355,6.5739,6.5612,0.0,0.0,0.0,0.0,6.5578,0.0,0.0,0.0,0.0,0.0,0.0,6.5549,6.611,6.611,6.6461,6.7023,6.7023,6.7023,6.7023,6.7023,6.7023,6.6848,6.5929,6.5898,6.6299,6.631,6.6488,6.6697,6.6757,6.6786,6.6786,6.6786,6.6786,6.6641,6.6025,6.5736,6.5446,6.4794,6.4033,6.3454,6.3454,6.2802,6.2195,6.2014,6.1471,0.0,0.0,0.0,0.0,0.0,0.0,0.0,0.0,0.0,0.0,0.0,0.0,0.0,0.0,0.0,0.0,0.0,0.0,0.0,0.0,0.0,0.0,6.1978,0.0,6.1978,0.0,6.1978,6.1978,6.1978,6.1978,6.1978,6.1978,6.1978,6.1978,6.1978,6.1978,6.1978,6.1978,6.1978,6.1978,6.1978,6.1978,6.1978,6.1978,0.0,0.0,0.0,0.0,0.0,0.0,0.0,6.7896,6.7078,6.6491,6.7448,6.8241,6.8319,6.8816,6.8892,6.8358,6.893,6.9008,6.8331,6.8863,6.9161,6.9091,6.8316,6.771,6.7225,6.6944,6.6705,0.0,0.0,0.0,0.0,0.0,0.0,0.0,0.0,0.0,0.0,6.6954,6.6848,6.6918,6.6918,6.6953,6.7023,6.7023,6.7023,6.7023,6.7023,6.7023,6.6988,6.6883,6.6635,6.6368,6.6334,6.63,6.6427,6.6697,6.6786,6.6786,6.6786,6.6786,6.6786,6.6714,6.6134,6.5591,6.5482,6.4867,6.4287,6.4287,6.3635,6.2875,6.215,6.1942,6.1869,0.0,0.0,0.0,0.0,0.0,0.0,0.0,0.0,0.0,0.0,0.0,0.0,0.0,0.0,0.0,0.0,0.0,0.0,0.0,0.0,6.1208,6.1978,6.1978,0.0,6.1978,6.1978,6.1978,6.1978,6.1978,6.1978,6.1978,6.1978,6.1978,6.1978,6.1978,6.1978,6.1978,6.1978,6.1978,6.1978,6.1978,6.1978,6.1978,0.0,0.0,0.0,0.0,0.0,0.0,0.0,6.793,6.7448,6.7569,6.7731,6.793,6.8358,6.8628,6.8854,6.8967,6.9264,6.9302,6.9005,6.9264,6.9412,6.9412,6.9095,6.8809,6.8588,6.8003,6.7689,0.0,0.0,0.0,0.0,0.0,0.0,0.0,0.0,6.6954,6.7236,6.7094,6.7304,6.7725,6.7725,6.8006,6.8428,6.8428,6.8428,6.8428,6.8428,6.8428,6.8357,6.7901,6.7447,6.7122,6.7072,6.7036,6.6988,6.7112,6.6969,6.6786,6.6786,6.6786,6.6786,6.6786,6.6569,6.6315,6.6315,6.57,6.512,6.512,6.4106,6.3092,6.2766,6.2331,6.1978,0.0,0.0,0.0,0.0,0.0,0.0,0.0,0.0,0.0,0.0,0.0,0.0,0.0,0.0,0.0,0.0,0.0,0.0,6.0774,0.0,6.1652,6.1978,6.1978,6.1978,6.1978,6.1978,6.1978,6.1978,6.1978,6.1978,6.1978,6.1978,6.1978,6.1978,6.1978,6.1978,6.1978,6.1978,6.1978,6.1978,6.1978,6.1978,6.1978,6.6995,0.0,6.8323,0.0,6.8088,6.8162,6.859,6.828,6.8162,6.8628,6.828,6.8162,6.8628,6.8667,6.8892,6.9376,6.9412,6.9412,6.9412,6.9412,6.9412,6.9412,6.9412,0.0,6.9412,6.8849,6.8568,6.8568,6.8117,0.0,0.0,0.0,0.0,0.0,6.7517,6.748,6.7725,6.7725,6.8041,6.8568,6.8568,6.8884,6.9412,6.9412,6.9412,6.9412,6.9412,6.9412,6.9305,6.8744,6.8434,6.8186,6.7726,6.7598,6.7585,6.7429,6.7275,6.7112,6.6858,6.6786,6.6786,6.6786,6.6786,6.6786,6.6786,6.6351,6.5881,6.5663,6.4685,6.3816,6.3599,6.2911,6.2367,0.0,0.0,0.0,0.0,0.0,0.0,0.0,6.0448,6.005,6.0303,0.0,0.0,0.0,0.0,0.0,0.0,0.0,0.0,0.0,0.0,0.0,0.0,0.0,6.1978,6.1978,6.1978,6.1978,6.1978,6.1978,6.1978,6.1978,6.1978,6.1978,6.1978,6.1978,6.1978,6.1978,6.1978,6.1978,6.1978,6.1978,6.1978,6.1978,6.8743,6.9342,6.9777,6.9449,6.9376,6.9376,6.9376,6.9376,6.9376,6.9376,6.9376,6.9376,6.9376,6.9376,6.9376,6.9412,6.9412,6.9412,6.9412,6.9412,6.9412,0.0,0.0,6.9412,6.9412,6.9376,6.9412,6.9412,0.0,0.0,6.8646,0.0,6.7974,6.8681,6.8326,6.8638,6.934,6.934,6.9412,6.9412,6.9412,6.9376,6.9412,6.9412,6.9412,6.9412,6.9412,6.9412,6.9412,6.9376,6.9597,6.9601,6.808,6.7822,6.7975,6.7545,6.7672,6.78,6.704,6.6786,6.6786,6.6786,6.6786,6.6786,6.6786,6.6786,6.6569,6.5772,6.5591,6.5337,6.4504,6.3708,6.3164,6.3164,0.0,0.0,0.0,0.0,0.0,0.0,6.1254,6.11,6.1869,0.0,0.0,0.0,0.0,0.0,0.0,0.0,0.0,6.1942,6.1978,0.0,6.1978,6.1978,6.1978,6.1978,6.1978,6.1978,6.1978,6.1978,6.1978,6.1978,6.1978,6.1978,6.1978,6.1978,6.1978,6.1978,6.1978,6.1978,6.1978,6.1978,6.1978,6.1978,6.793,6.8743,6.9377,6.8816,6.908,6.9412,6.9412,6.9412,6.9412,6.9412,6.9412,6.9412,6.9412,6.9412,6.9412,0.0,6.9412,6.9412,0.0,6.9412,6.9412,6.9412,6.9412,6.9412,6.9412,6.9412,6.9412,6.9412,0.0,0.0,0.0,6.8925,6.8961,6.9172,6.9098,6.9165,6.9412,6.9412,6.9412,6.9412,6.9412,6.9412,6.9412,6.9412,6.9412,6.9412,6.9412,6.9412,6.9412,6.9412,6.9486,6.9526,6.9283,6.9066,6.8873,6.8722,6.855,6.8291,6.7776,6.7619,6.751,6.6931,6.6786,6.6786,6.6786,6.6786,6.675,6.646,6.5989,6.5518,6.5265,6.4541,6.3816,6.3273,0.0,0.0,0.0,0.0,0.0,0.0,6.1761,6.1725,0.0,6.1543,0.0,0.0,0.0,0.0,0.0,0.0,0.0,0.0,6.1978,0.0,6.1978,6.1978,6.1978,6.1978,6.1978,6.1978,6.1978,6.1978,6.1978,6.1978,6.1978,6.1978,6.1978,6.1978,6.1978,6.1978,6.1978,6.1978,6.1978,6.1978,6.1978,6.1978,6.9065,6.9687,7.0141,6.9725,6.9992,7.0253,7.0253,7.0253,7.0253,7.0253,7.0007,6.9797,6.9797,6.9551,0.0,6.9412,6.9412,6.9412,6.9412,6.9412,6.9412,6.9412,6.9412,6.9412,6.9412,0.0,0.0,6.9412,6.9412,6.9412,6.9412,6.9412,6.9412,6.9412,6.9412,6.9486,6.9595,6.9449,6.9486,6.9595,6.9449,6.9412,6.9412,6.9412,6.9412,6.9412,6.9412,6.9412,6.9412,6.9412,6.9486,6.9597,6.9669,6.9742,6.9693,6.9374,6.9176,6.8926,6.8358,6.8114,6.7873,6.7402,6.704,6.6786,6.6786,6.6786,6.6786,6.6786,6.6388,6.6062,6.6062,6.5374,6.4685,6.4178,0.0,6.3382,0.0,0.0,0.0,0.0,0.0,0.0,0.0,6.1978,0.0,0.0,0.0,0.0,0.0,0.0,0.0,6.1978,6.1978,0.0,6.1978,6.1978,6.1978,6.1978,6.1978,6.1978,6.1978,6.1978,6.1978,6.1978,6.1978,6.1978,6.1978,6.1978,6.1978,6.1978,6.1978,6.1978,6.1978,6.1978,6.1978,6.1978,7.1501,7.1655,0.0,0.0,7.1731,0.0,7.1731,7.1728,7.1728,7.1728,7.1061,7.0569,7.0569,6.9902,6.9483,6.9483,0.0,0.0,0.0,6.9412,6.9412,6.9412,6.9412,0.0,6.9412,6.9412,6.9412,6.9412,6.9412,6.9412,6.9412,6.9412,6.9412,6.9412,6.9412,6.956,6.9849,6.9559,6.9595,6.9849,6.9522,6.9412,6.9412,6.9412,6.9412,6.9449,6.9449,6.9449,6.9486,6.9449,6.9633,6.9849,6.9559,6.9884,7.0303,6.9554,6.9573,6.9656,6.8898,6.843,6.8096,6.8024,6.7402,6.6786,6.6786,6.6786,6.6786,6.6786,6.6786,6.6786,6.6786,6.6207,6.5663,6.5591,6.4975,6.4178,6.3382,0.0,0.0,0.0,0.0,0.0,0.0,6.2014,6.1978,0.0,0.0,0.0,0.0,0.0,0.0,6.1978,6.1978,6.1978,6.1978,6.1978,6.1978,6.1978,6.1978,6.1978,6.1978,6.1978,6.1978,6.1978,6.1978,6.1978,6.1978,6.1978,6.1978,6.1978,6.1978,6.1978,6.1978,6.1978,6.1978,6.1978,0.0,0.0,7.1511,7.2072,7.2146,7.2146,7.2146,7.1882,7.1728,7.1728,7.1552,7.1447,7.1447,7.071,7.0253,7.0253,6.9727,6.9412,6.9412,6.9412,6.9412,6.9412,6.9412,6.9412,6.9412,6.9412,6.9412,6.9412,6.9412,6.9412,6.9412,6.9412,6.9412,6.9412,6.9412,6.9449,6.9522,6.9449,6.9449,6.9522,6.9449,6.9412,6.9412,6.9412,6.9559,6.9777,6.9777,6.9991,7.0167,6.9884,6.9849,6.992,6.9813,6.9705,6.9669,6.9743,7.0021,7.0219,6.966,6.9429,6.916,6.8247,6.7402,6.6786,6.6786,6.6786,6.6786,6.6786,6.6786,6.6786,6.6786,6.6641,6.6315,6.57,6.5446,6.5011,6.4215,0.0,0.0,0.0,6.3273,6.2911,6.2911,6.2367,6.1978,0.0,0.0,0.0,0.0,0.0,6.1978,6.1978,6.1978,6.1978,6.1978,6.1978,6.1978,6.1978,6.1978,6.1978,6.1978,6.1978,6.1978,6.1978,6.1978,6.1978,6.1978,6.1978,6.1978,6.1978,6.1978,6.1978,6.1978,6.1978,6.1978,6.1978,7.1401,7.2016,7.2567,7.2982,7.3206,7.3356,7.3356,7.3166,7.2938,7.2746,7.2583,7.241,7.2219,7.1517,7.092,7.0534,6.9832,6.9412,6.9412,6.9412,6.9412,6.9412,6.9412,6.9412,6.9412,6.9412,6.9412,6.9412,6.9412,6.9412,6.9412,6.9412,6.9412,6.9412,6.9412,6.9486,6.9597,6.9486,6.9486,6.9597,6.9449,6.9412,6.9412,6.9412,6.9597,6.9885,6.9885,7.0167,7.048,7.0237,7.0062,6.9885,6.9885,6.9777,6.9669,6.9849,7.0167,7.0475,7.0378,7.0213,6.9832,6.882,6.7945,6.7366,6.7366,6.7076,6.6786,6.6786,6.6786,6.6786,6.6786,6.6786,6.6677,6.6207,6.6134,6.5881,6.5048,6.4939,0.0,6.4432,6.3997,6.3744,6.3744,6.3345,6.3092,6.3092,0.0,0.0,6.3092,6.3092,6.2766,6.2014,6.1978,6.1978,6.1978,6.1978,6.1978,6.1978,6.1978,6.1978,6.1978,6.1978,6.1978,6.1978,6.1978,6.1978,6.1978,6.1978,6.1978,6.1978,6.1978,6.1978,6.1978,6.1978,6.1978,6.1978,7.2262,7.3025,7.3597,7.3712,7.4178,7.4593,7.452,7.4631,7.4555,7.4209,7.3878,7.3529,7.3188,7.2405,7.1663,7.0996,7.008,6.9553,6.9412,6.9412,6.9412,6.9412,6.9412,6.9412,6.9486,6.9486,6.9449,6.9412,6.9412,6.9412,6.9412,6.9412,6.9412,6.9412,6.9412,6.9559,6.9813,6.9522,6.956,6.9813,6.9522,6.9412,6.9412,6.9449,6.9669,7.0026,7.0026,7.0341,7.0615,7.0581,7.0341,7.0061,7.0026,6.9991,7.0026,7.0026,7.0306,7.0615,7.0913,7.0698,7.0258,6.9569,6.8778,6.8162,6.8054,6.7474,6.6967,6.6822,6.6786,6.6786,6.6786,6.6786,6.6786,6.6786,6.6786,6.6569,6.5881,0.0,6.5518,6.483,6.4649,6.4577,6.4577,6.4468,6.4396,6.4396,6.4396,0.0,0.0,6.4396,6.378,6.244,6.234,6.234,6.234,6.234,6.234,6.234,6.234,6.234,6.234,6.234,6.234,6.2367,6.2259,6.2186,6.2159,6.205,6.1978,6.1978,6.1978,6.1978,6.1978,6.1978,6.1978,6.1978,7.1355,7.1805,7.2295,7.2838,7.3834,7.4449,7.4187,7.4675,7.4971,7.497,7.4864,7.4793,7.4756,7.3785,7.3102,7.2961,7.1319,7.0043,6.9448,6.9412,6.9412,6.9412,6.9412,6.9559,6.9813,6.9813,6.9669,6.9412,6.9412,6.9412,6.9412,6.9412,6.9412,6.9412,6.9412,6.9412,6.9486,6.9412,6.9412,6.9486,6.9412,6.9412,6.9412,6.9705,7.0062,7.0444,7.0714,7.1045,7.1304,7.1012,7.088,7.0781,7.0478,7.0411,7.0444,7.0747,7.088,7.0913,7.0979,7.0698,7.0372,7.0227,6.9642,6.8814,6.8162,6.7909,6.7619,6.6931,6.6786,6.6786,6.6786,6.6786,6.6786,6.6786,6.6786,6.675,0.0,0.0,6.6569,6.646,6.5844,6.541,6.541,6.4794,6.4396,6.4396,6.4396,6.4396,6.4396,6.4396,6.4287,6.4033,6.4033,6.4033,6.4033,6.4033,6.4033,6.4033,6.4033,6.4033,6.4033,6.4033,6.4033,6.3997,6.3309,6.3019,6.2947,6.2295,6.1978,6.1978,6.1978,6.1978,6.1978,6.1978,6.1978,6.1978,7.1478,7.2236,7.2914,7.2797,7.3917,7.4787,7.464,7.5082,7.5335,7.5118,7.5299,7.5335,7.5118,7.4614,7.4074,7.3462,7.2604,7.1638,7.0675,6.9832,6.9412,6.9412,6.9412,6.9559,6.9885,6.9885,6.992,6.9991,6.9991,6.9991,6.9991,6.9991,6.9884,6.9669,6.9669,6.956,6.9412,6.9412,6.9412,6.9412,6.9412,6.9412,6.9449,6.9777,7.0167,7.0548,7.0847,7.1207,7.1463,7.1304,7.1143,7.0979,7.0817,7.0649,7.0582,7.088,7.111,7.1272,7.1272,7.1115,7.0987,7.0987,7.0408,6.972,6.9358,6.8633,6.7909,6.751,6.7112,6.6786,6.6786,6.6786,6.6786,6.6786,6.6786,0.0,0.0,6.6786,6.6786,6.6786,6.646,6.6243,6.6243,6.5917,6.57,6.57,6.57,6.57,6.57,6.57,6.57,6.57,6.483,6.4396,6.4396,6.4396,6.4396,6.4396,6.4396,6.4396,6.4396,6.4396,6.4396,6.4359,6.3997,6.3852,6.3816,6.3454,6.3309,6.3273,6.2838,6.2657,6.2585,6.2186,6.1978,6.1978,7.1873,7.2567,7.3154,7.2749,7.3721,7.4638,7.4824,7.5335,7.562,7.5407,7.5655,7.5725,7.5407,7.5299,7.4868,7.4005,7.3682,7.3104,7.2161,7.0824,6.9943,6.9693,6.9665,6.9812,7.0062,7.0096,7.0272,7.0514,7.0514,7.0514,7.0514,7.0514,7.0341,7.0062,7.0062,6.9884,6.9668,6.9668,6.9668,6.9668,6.9668,6.9668,6.9704,7.0062,7.0375,7.0649,7.0979,7.1272,7.1494,7.1494,7.1336,7.111,7.111,7.0949,7.0783,7.1012,7.1304,7.1494,7.1494,7.1494,7.1494,7.1494,7.106,7.0589,7.0444,6.943,6.8488,6.8307,6.7655,6.7076,6.7076,6.6931,6.6786,6.6786,0.0,0.0,0.0,6.6786,6.6786,6.6786,6.6786,6.6786,6.6786,6.6786,6.6786,6.6786,6.6786,6.6786,6.6786,6.6786,6.6786,6.6786,6.5591,6.4939,6.4939,6.4939,6.4939,6.4939,6.4939,6.4939,6.4939,6.4939,6.4939,6.4939,6.4758,6.4685,6.4649,6.4468,6.4396,6.4323,6.3708,6.3454,6.3382,6.2802,6.2585,6.2585,7.2305,7.1786,7.1576,7.2219,7.27,7.3247,7.4037,7.5046,7.5829,7.6174,7.6242,7.6242,7.6208,7.5864,7.5619,7.5548,7.4583,7.3759,7.3319,7.254,7.1577,7.0464,7.0416,7.0445,7.048,7.0783,7.0783,7.0514,7.0514,7.0514,7.0514,7.0514,7.048,7.048,7.048,7.0445,7.0445,7.0445,7.0445,7.0445,7.0445,7.0445,7.048,7.0781,7.0913,7.1012,7.1336,7.1463,7.1494,7.1494,7.1463,7.1463,7.1463,7.1431,7.1431,7.1431,7.1463,7.1494,7.1494,7.1494,7.1494,7.1494,7.1458,7.1241,7.0553,7.0299,7.0009,6.9279,6.8452,6.7909,6.7909,6.7293,6.6786,6.6786,0.0,0.0,6.6786,6.6786,6.6786,6.6786,6.6786,6.6786,6.6786,6.6786,6.6786,6.6786,6.6786,6.6786,6.6786,6.6786,6.6786,6.6786,6.6677,6.6641,6.6641,6.6641,6.6641,6.6641,6.6641,6.6641,6.6641,6.6641,6.6641,6.6569,6.5844,6.5518,6.5446,6.4722,6.4396,6.4396,6.4323,6.4287,6.4287,6.4251,6.4215,6.4215,7.2811,7.2811,7.2728,7.2133,7.3276,7.4187,7.4114,7.5227,7.614,7.6275,7.6275,7.6275,7.6275,7.6174,7.5967,7.5725,7.5297,7.4905,7.447,7.3758,7.2618,7.094,7.0628,7.0581,7.0817,7.0913,7.1012,7.1146,7.1146,7.1146,7.1146,7.1146,7.1015,7.0817,7.0817,7.0682,7.0514,7.0514,7.0514,7.0514,7.0514,7.0514,7.0548,7.0847,7.0979,7.1045,7.1368,7.1494,7.1494,7.1494,7.1494,7.1494,7.1494,7.1494,7.1494,7.1494,7.1494,7.1494,7.1494,7.1494,7.1494,7.1494,7.1494,7.1422,7.1132,7.0734,7.033,7.004,6.9285,6.8742,6.8742,6.809,6.7547,6.7547,0.0,6.6786,6.6786,6.6786,6.6786,6.6786,6.6786,6.6786,6.6786,6.6786,6.6786,6.6786,6.6786,6.6786,6.6786,6.6786,6.6786,6.6786,6.6786,6.6786,6.6786,6.6786,6.6786,6.6786,6.6786,6.6786,6.6786,6.6786,6.6786,6.6786,6.6496,6.6351,6.6315,6.6025,6.5881,6.5844,6.5337,6.512,6.5084,6.4577,6.4396,6.4396,7.3694,7.3636,7.3421,7.2686,7.3712,7.4563,7.4416,7.5371,7.614,7.6275,7.6275,7.6275,7.6275,7.6275,7.6174,7.5898,7.5864,7.5725,7.5299,7.4583,7.3369,7.1517,7.1191,7.1068,7.1143,7.1143,7.1272,7.1494,7.1494,7.1494,7.1494,7.1494,7.1368,7.1143,7.1143,7.1012,7.0817,7.0817,7.0817,7.0817,7.0817,7.0817,7.085,7.1045,7.1143,7.1175,7.1399,7.1494,7.1494,7.1494,7.1494,7.1494,7.1494,7.1494,7.1494,7.1494,7.1494,7.1494,7.1494,7.1494,7.1494,7.1494,7.1494,7.1494,7.1494,7.1096,7.0734,7.0734,7.0118,6.9605,6.9605,6.8923,6.838,6.838,6.7692,6.7184,6.7184,6.6967,6.6786,6.6786,6.6786,6.6786,6.6786,6.6786,6.6786,6.6786,6.6786,6.6786,6.6786,6.6786,6.6786,6.6786,6.6786,6.6786,6.6786,6.6786,6.6786,6.6786,6.6786,6.6786,6.6786,6.6786,6.6786,6.6786,6.6786,6.6786,6.6786,6.6786,6.6786,6.675,6.6207,6.5989,6.5917,6.5374,6.5156,6.5156,7.5098,7.3909,7.3142,7.3856,7.3707,7.3874,7.4934,7.5442,7.5829,7.6242,7.6275,7.6275,7.6275,7.6275,7.6275,7.6275,7.6275,7.614,7.5725,7.4971,7.3856,7.2307,7.2235,7.1972,7.1531,7.1494,7.1494,7.1494,7.1494,7.1494,7.1494,7.1494,7.1494,7.1494,7.1494,7.1494,7.1494,7.1494,7.1494,7.1494,7.1494,7.1494,7.1494,7.1494,7.1494,7.1494,7.1494,7.1494,7.1494,7.1494,7.1494,7.1494,7.1494,7.1494,7.1494,7.1494,7.1494,7.1494,7.1494,7.1494,7.1494,7.1494,7.1494,7.1494,7.1494,7.1494,7.1494,7.1494,7.0915,7.0439,7.0439,6.975,6.9207,6.9207,6.8525,6.8017,6.8017,6.7329,6.6822,6.6822,6.6822,6.6822,6.6786,6.6786,6.6786,6.6786,6.6786,6.6786,6.6786,6.6786,6.6786,6.6786,6.6786,6.6786,6.6786,6.6786,6.6786,6.6786,6.6786,6.6786,6.6786,6.6786,6.6786,6.6786,6.6786,6.6786,6.6786,6.6786,6.6786,6.6786,6.6786,6.6786,6.6786,6.6786,6.6786,6.6786,7.5123,7.4728,7.4257,7.3737,7.4181,7.4675,7.479,7.5548,7.6174,7.6275,7.6275,7.6275,7.6275,7.6275,7.6275,7.6275,7.6275,7.6242,7.614,7.5889,7.5311,7.4263,7.3143,7.2485,7.2364,7.1784,7.1494,7.1494,7.1494,7.1494,7.1494,7.1494,7.1494,7.1494,7.1494,7.1494,7.1494,7.1494,7.1494,7.1494,7.1494,7.1494,7.1494,7.1494,7.1494,7.1494,7.1494,7.1494,7.1494,7.1494,7.1494,7.1494,7.1494,7.1494,7.1494,7.1494,7.1494,7.1494,7.1494,7.1494,7.1494,7.1494,7.1494,7.1494,7.1494,7.1494,7.1494,7.1494,7.1313,7.1168,7.1168,7.0553,7.004,7.004,6.9358,6.8814,6.8814,6.8633,6.8271,6.7728,6.7655,6.7438,6.6858,6.6786,6.6786,6.6786,6.6786,6.6786,6.6786,6.6786,6.6786,6.6786,6.6786,6.6786,6.6786,6.6786,6.6786,6.6786,6.6786,6.6786,6.6786,6.6786,6.6786,6.6786,6.6786,6.6786,6.6786,6.6786,6.6786,6.6786,6.6786,6.6786,6.6786,6.6786,6.6786,6.6786,7.5959,7.552,7.4883,7.4272,7.4315,7.4563,7.4826,7.5299,7.5793,7.6242,7.6275,7.6275,7.6275,7.6275,7.6275,7.6275,7.6275,7.6275,7.6275,7.6275,7.6094,7.5623,7.4356,7.3378,7.2726,7.1929,7.1494,7.1494,7.1494,7.1494,7.1494,7.1494,7.1494,7.1494,7.1494,7.1494,7.1494,7.1494,7.1494,7.1494,7.1494,7.1494,7.1494,7.1494,7.1494,7.1494,7.1494,7.1494,7.1494,7.1494,7.1494,7.1494,7.1494,7.1494,7.1494,7.1494,7.1494,7.1494,7.1494,7.1494,7.1494,7.1494,7.1494,7.1494,7.1494,7.1494,7.1494,7.1494,7.1494,7.1494,7.1494,7.1132,7.0842,7.0842,7.0154,6.9678,6.9678,6.9424,6.9026,6.8525,6.8452,6.8271,6.78,6.7728,6.7619,6.7293,6.7293,6.7148,6.6822,6.6786,6.6786,6.6786,6.6786,6.6786,6.6786,6.6786,6.6786,6.6786,6.6786,6.6786,6.6786,6.6786,6.6786,6.6786,6.6786,6.6786,6.6786,6.6786,6.6786,6.6786,6.6786,6.6786,6.6786,6.6786,6.6786,6.6786,7.725,7.6222,7.5208,7.5178,7.4277,7.3948,7.5008,7.4936,7.5155,7.6174,7.6275,7.6275,7.6275,7.6275,7.6275,7.6275,7.6275,7.6275,7.6275,7.6275,7.6275,7.6275,7.5551,7.4428,7.2943,7.2074,7.1567,7.1494,7.1494,7.1494,7.1494,7.1494,7.1494,7.1494,7.1494,7.1494,7.1494,7.1494,7.1494,7.1494,7.1494,7.1494,7.1494,7.1494,7.1494,7.1494,7.1494,7.1494,7.1494,7.1494,7.1494,7.1494,7.1494,7.1494,7.1494,7.1494,7.1494,7.1494,7.1494,7.1494,7.1494,7.1494,7.1494,7.1494,7.1494,7.1494,7.1494,7.1494,7.1494,7.1494,7.1494,7.1494,7.1494,7.1494,7.0915,7.048,7.048,6.9895,6.9388,6.9316,6.9316,6.9279,6.9207,6.9207,6.8887,6.8162,6.8126,6.78,6.704,6.7003,6.7003,6.7003,6.7003,6.6967,6.6895,6.6895,6.6858,6.6786,6.6786,6.6786,6.6786,6.6786,6.6786,6.6786,6.6786,6.6786,6.6786,6.6786,6.6786,6.6786,6.6786,6.6786,6.6786,6.6786,6.6786,6.6786,7.7272,7.6678,7.5956,7.5603,7.4897,7.4633,7.5442,7.5513,7.5654,7.6208,7.6275,7.6275,7.6275,7.6275,7.6275,7.6275,7.6275,7.6275,7.6275,7.6275,7.6275,7.6275,7.5551,7.4938,7.4576,7.3197,7.2146,7.1494,7.1494,7.1494,7.1494,7.1494,7.1494,7.1494,7.1494,7.1494,7.1494,7.1494,7.1494,7.1494,7.1494,7.1494,7.1494,7.1494,7.1494,7.1494,7.1494,7.1494,7.1494,7.1494,7.1494,7.1494,7.1494,7.1494,7.1494,7.1494,7.1494,7.1494,7.1494,7.1494,7.1494,7.1494,7.1494,7.1494,7.1494,7.1494,7.1494,7.1494,7.1494,7.1494,7.1494,7.1494,7.1494,7.1494,7.1386,7.1277,7.1277,7.1096,7.077,7.0221,7.0149,6.9895,6.9279,6.9207,6.9134,6.8923,6.8923,6.885,6.8669,6.87,6.87,6.87,6.87,6.838,6.7764,6.7764,6.7438,6.6786,6.6786,6.6786,6.6786,6.6786,6.6786,6.6786,6.6786,6.6786,6.6786,6.6786,6.6786,6.6786,6.6786,6.6786,6.6786,6.6786,6.6786,6.6786,7.7336,7.7138,7.6695,7.6356,7.5191,7.4678,7.5549,7.5299,7.5263,7.6174,7.6275,7.6275,7.6275,7.6275,7.6275,7.6275,7.6275,7.6275,7.6275,7.6275,7.6275,7.6275,7.5913,7.5515,7.5083,7.425,7.3269,7.2074,7.1712,7.1494,7.1494,7.1494,7.1494,7.1494,7.1494,7.1494,7.1494,7.1494,7.1494,7.1494,7.1494,7.1494,7.1494,7.1494,7.1494,7.1494,7.1494,7.1494,7.1494,7.1494,7.1494,7.1494,7.1494,7.1494,7.1494,7.1494,7.1494,7.1494,7.1494,7.1494,7.1494,7.1494,7.1494,7.1494,7.1494,7.1494,7.1494,7.1494,7.1494,7.1494,7.1494,7.1494,7.1494,7.1494,7.1494,7.1494,7.1494,7.1494,7.135,7.0951,7.0915,7.077,7.0335,7.0299,7.0154,6.9823,6.9787,6.9605,6.9243,6.9207,6.9207,6.9207,6.9207,6.9026,6.8561,6.8561,6.8343,6.7945,6.7184,6.6786,6.6786,6.6786,6.6786,6.6786,6.6786,6.6786,6.6786,6.6786,6.6786,6.6786,6.6786,6.6786,6.6786,6.6786,6.6786,6.6786,7.7342,7.7445,7.7252,7.6839,7.5388,7.4507,7.5297,7.4752,7.4716,7.5933,7.6208,7.6275,7.6275,7.6275,7.6275,7.6275,7.6275,7.6275,7.6275,7.6275,7.6275,7.6275,7.6275,7.5985,7.5334,7.5155,7.4319,7.2726,7.2038,7.1639,7.1494,7.1494,7.1494,7.1494,7.1494,7.1494,7.1494,7.1494,7.1494,7.1494,7.1494,7.1494,7.1494,7.1494,7.1494,7.1494,7.1494,7.1494,7.1494,7.1494,7.1494,7.1494,7.1494,7.1494,7.1494,7.1494,7.1494,7.1494,7.1494,7.1494,7.1494,7.1494,7.1494,7.1494,7.1494,7.1494,7.1494,7.1494,7.1494,7.1494,7.1494,7.1494,7.1494,7.1494,7.1494,7.1494,7.1494,7.1494,7.1494,7.1494,7.1494,7.1494,7.1494,7.1494,7.1241,7.0625,7.0589,7.0299,6.9611,6.9605,6.9605,6.9605,6.9605,6.9533,6.9424,6.9424,6.9352,6.9207,6.7836,6.7148,6.7003,6.6858,6.6786,6.6786,6.6786,6.6786,6.6786,6.6786,6.6786,6.6786,6.6786,6.6786,6.6786,6.6786,6.6786,6.6786,7.7342,7.7445,7.717,7.6514,7.5585,7.4778,7.4245,7.46,7.5044,7.5227,7.5864,7.6275,7.6275,7.6275,7.6275,7.6275,7.6275,7.6275,7.6275,7.6275,7.6275,7.6275,7.6275,7.6239,7.613,7.5478,7.4319,7.2726,7.2581,7.2183,7.1494,7.1494,7.1494,7.1494,7.1494,7.1494,7.1494,7.1494,7.1494,7.1494,7.1494,7.1494,7.1494,7.1494,7.1494,7.1494,7.1494,7.1494,7.1494,7.1494,7.1494,7.1494,7.1494,7.1494,7.1494,7.1494,7.1494,7.1494,7.1494,7.1494,7.1494,7.1494,7.1494,7.1494,7.1494,7.1494,7.1494,7.1494,7.1494,7.1494,7.1494,7.1494,7.1494,7.1494,7.1494,7.1494,7.1494,7.1494,7.1494,7.1494,7.1494,7.1494,7.1494,7.1494,7.1458,7.135,7.135,7.1313,7.1205,7.1205,7.1205,7.1205,7.1205,7.0879,7.0227,7.0258,6.9895,6.9207,6.8989,6.8488,6.78,6.7112,6.6786,6.6786,6.6786,6.6786,6.6786,6.6786,6.6786,6.6786,6.6786,6.6786,6.6786,6.6786,6.6786,6.6786,7.6759,7.7197,7.739,7.7274,7.6418,7.5724,7.5605,7.5293,7.5263,7.5725,7.6072,7.6275,7.6275,7.6275,7.6275,7.6275,7.6275,7.6275,7.6275,7.6275,7.6275,7.6275,7.6275,7.6275,7.6275,7.5949,7.5225,7.4066,7.316,7.2545,7.2183,7.1712,7.1494,7.1494,7.1494,7.1494,7.1494,7.1494,7.1494,7.1494,7.1494,7.1494,7.1494,7.1494,7.1494,7.1494,7.1494,7.1494,7.1494,7.1494,7.1494,7.1494,7.1494,7.1494,7.1494,7.1494,7.1494,7.1494,7.1494,7.1494,7.1494,7.1494,7.1494,7.1494,7.1494,7.1494,7.1494,7.1494,7.1494,7.1494,7.1494,7.1494,7.1494,7.1494,7.1494,7.1494,7.1494,7.1494,7.1494,7.1494,7.1494,7.1494,7.1494,7.1494,7.1494,7.1494,7.1494,7.1494,7.1494,7.1494,7.1494,7.1494,7.1494,7.135,7.1024,7.1024,7.0842,7.048,7.0046,6.943,6.8669,6.8307,6.7909,6.7474,6.7474,6.7221,6.6786,6.6786,6.6786,6.6786,6.6786,6.6786,6.6786,6.6786,6.6786,6.6786]}]]